[[{"header":{"parameterUnit":"m.s-1","parameterCategory":1,"la1":31.0,"la2":29.5877,"lo1":-88.7671,"lo2":-86.6584,"dy":0.0162,"dx":0.0185,"nx":115,"ny":88,"refTime":"2024-08-24T06:00:00:Z","depth":0,"parameterNumber":2,"parameterNumberName":"U-component_of_WINDS"},"data":[0.0,0.0,0.0,0.0,0.0,0.0,0.0,0.0,0.0,0.0,0.0,0.0,0.0,0.0,0.0,0.0,0.0,0.0,0.0,0.0,0.0,0.0,0.0,0.0,0.0,0.0,0.0,0.0,0.0,0.0,0.0,0.0,0.0,0.0,0.0,0.0,0.0,0.0,0.0,0.0,0.0,0.0,0.0,0.0,0.0,0.0,0.0,0.0,0.0,0.0,0.0,0.0,0.0,0.0,0.0,0.0,0.0,0.0,0.0,0.0,0.0,0.0,0.0,0.0,0.0,0.0,0.0,0.0,0.0,0.0,0.0,0.0,0.0,0.0,0.0,0.0,0.0,0.0,0.0,0.0,0.0,0.0,0.0,0.0,0.0,0.0,0.0,0.0,0.0,0.0,0.0,0.0,0.0,0.0,0.0,0.0,0.0,0.0,0.0,0.0,0.0,0.0,0.0,0.0,0.0,0.0,0.0,0.0,0.0,0.0,0.0,0.0,0.0,0.0,0.0,0.0,0.0,0.0,0.0,0.0,0.0,0.0,0.0,0.0,0.0,0.0,0.0,0.0,0.0,0.0,0.0,0.0,0.0,0.0,0.0,0.0,0.0,0.0,0.0,0.0,0.0,0.0,0.0,0.0,0.0,0.0,0.0,0.0,0.0,0.0,0.0,0.0,0.0,0.0,0.0,0.0,0.0,0.0,0.0,0.0,0.0,0.0,0.0,0.0,0.0,0.0,0.0,0.0,0.0,0.0,0.0,0.0,0.0,0.0,0.0,0.0,0.0,0.0,0.0,0.0,0.0,0.0,0.0,0.0,0.0,0.0,0.0,0.0,0.0,0.0,0.0,0.0,0.0,0.0,0.0,0.0,0.0,0.0,0.0,0.0,0.0,0.0,0.0,0.0,0.0,0.0,0.0,0.0,0.0,0.0,0.0,0.0,0.0,0.0,0.0,0.0,0.0,0.0,0.0,0.0,0.0,0.0,0.0,0.0,0.0,0.0,0.0,0.0,0.0,0.0,0.0,0.0,0.0,0.0,0.0,0.0,0.0,0.0,0.0,0.0,0.0,0.0,0.0,0.0,0.0,0.0,0.0,0.0,0.0,0.0,0.0,0.0,0.0,0.0,0.0,0.0,0.0,0.0,0.0,0.0,0.0,0.0,0.0,0.0,0.0,0.0,0.0,0.0,0.0,0.0,0.0,0.0,0.0,0.0,0.0,0.0,0.0,0.0,0.0,0.0,0.0,0.0,0.0,0.0,0.0,0.0,0.0,0.0,0.0,0.0,0.0,0.0,0.0,0.0,0.0,0.0,0.0,0.0,0.0,0.0,0.0,0.0,0.0,0.0,0.0,0.0,0.0,0.0,0.0,0.0,0.0,0.0,0.0,0.0,0.0,0.0,0.0,0.0,0.0,0.0,0.0,0.0,0.0,0.0,0.0,0.0,0.0,0.0,0.0,0.0,0.0,0.0,0.0,0.0,0.0,0.0,0.0,0.0,0.0,0.0,0.0,0.0,0.0,0.0,0.0,0.0,0.0,0.0,0.0,0.0,0.0,0.0,0.0,0.0,0.0,0.0,0.0,0.0,0.0,0.0,0.0,0.0,0.0,0.0,0.0,0.0,0.0,0.0,0.0,0.0,0.0,0.0,0.0,0.0,0.0,0.0,0.0,0.0,0.0,0.0,0.0,0.0,0.0,0.0,0.0,0.0,0.0,0.0,0.0,0.0,0.0,0.0,0.0,0.0,0.0,0.0,0.0,0.0,0.0,0.0,0.0,0.0,0.0,0.0,0.0,0.0,0.0,0.0,0.0,0.0,0.0,0.0,0.0,0.0,0.0,0.0,0.0,0.0,0.0,0.0,0.0,0.0,0.0,0.0,0.0,0.0,0.0,0.0,0.0,0.0,0.0,0.0,0.0,0.0,0.0,0.0,0.0,0.0,0.0,0.0,0.0,0.0,0.0,0.0,0.0,0.0,0.0,0.0,0.0,0.0,0.0,0.0,0.0,0.0,0.0,0.0,0.0,0.0,0.0,0.0,0.0,0.0,0.0,0.0,0.0,0.0,0.0,0.0,0.0,0.0,0.0,0.0,0.0,0.0,0.0,0.0,0.0,0.0,0.0,0.0,0.0,0.0,0.0,0.0,0.0,0.0,0.0,0.0,0.0,0.0,0.0,0.0,0.0,0.0,0.0,0.0,0.0,0.0,0.0,0.0,0.0,0.0,0.0,0.0,0.0,0.0,0.0,0.0,0.0,0.0,0.0,0.0,0.0,0.0,0.0,0.0,0.0,0.0,0.0,0.0,0.0,0.0,0.0,0.0,0.0,0.0,0.0,0.0,0.0,0.0,0.0,0.0,0.0,0.0,0.0,0.0,0.0,0.0,0.0,0.0,0.0,0.0,0.0,0.0,0.0,0.0,0.0,0.0,0.0,0.0,0.0,0.0,0.0,0.0,0.0,0.0,0.0,0.0,0.0,0.0,0.0,0.0,0.0,0.0,0.0,0.0,0.0,0.0,0.0,0.0,0.0,0.0,0.0,0.0,0.0,0.0,0.0,0.0,0.0,0.0,0.0,0.0,0.0,0.0,0.0,0.0,0.0,0.0,0.0,0.0,0.0,0.0,0.0,0.0,0.0,0.0,0.0,0.0,0.0,0.0,0.0,0.0,0.0,0.0,0.0,0.0,0.0,0.0,0.0,0.0,0.0,0.0,0.0,0.0,0.0,0.0,0.0,0.0,0.0,0.0,0.0,0.0,0.0,0.0,0.0,0.0,0.0,0.0,0.0,0.0,0.0,0.0,0.0,0.0,0.0,0.0,0.0,0.0,0.0,0.0,0.0,0.0,0.0,0.0,0.0,0.0,0.0,0.0,0.0,0.0,0.0,0.0,0.0,0.0,0.0,0.0,0.0,0.0,0.0,0.0,0.0,0.0,0.0,0.0,0.0,0.0,0.0,0.0,0.0,0.0,0.0,0.0,0.0,0.0,0.0,0.0,0.0,0.0,0.0,0.0,0.0,0.0,0.0,0.0,0.0,0.0,0.0,0.0,0.0,0.0,0.0,0.0,0.0,0.0,0.0,0.0,0.0,0.0,0.0,0.0,0.0,0.0,0.0,0.0,0.0,0.0,0.0,0.0,0.0,0.0,0.0,0.0,0.0,0.0,0.0,0.0,0.0,0.0,0.0,0.0,0.0,0.0,0.0,0.0,0.0,0.0,0.0,0.0,0.0,0.0,0.0,0.0,0.0,0.0,0.0,0.0,0.0,0.0,0.0,0.0,0.0,0.0,0.0,0.0,0.0,0.0,0.0,0.0,0.0,0.0,0.0,0.0,0.0,0.0,0.0,0.0,0.0,0.0,0.0,0.0,0.0,0.0,0.0,0.0,0.0,0.0,0.0,0.0,0.0,0.0,0.0,0.0,0.0,0.0,0.0,0.0,0.0,0.0,0.0,0.0,0.0,0.0,0.0,0.0,0.0,0.0,0.0,0.0,0.0,0.0,0.0,0.0,0.0,0.0,0.0,0.0,0.0,0.0,0.0,0.0,0.0,0.0,0.0,0.0,0.0,0.0,0.0,0.0,0.0,0.0,0.0,0.0,0.0,0.0,0.0,0.0,0.0,0.0,0.0,0.0,0.0,0.0,0.0,0.0,0.0,0.0,0.0,0.0,0.0,0.0,0.0,0.0,0.0,0.0,0.0,0.0,0.0,0.0,0.0,0.0,0.0,0.0,0.0,0.0,0.0,0.0,0.0,0.0,0.0,0.0,0.0,0.0,0.0,0.0,0.0,0.0,0.0,0.0,0.0,0.0,0.0,0.0,0.0,0.0,0.0,0.0,0.0,0.0,0.0,0.0,0.0,0.0,0.0,0.0,0.0,0.0,0.0,0.0,0.0,0.0,0.0,0.0,0.0,0.0,0.0,0.0,0.0,0.0,0.0,0.0,0.0,0.0,0.0,0.0,0.0,0.0,0.0,0.0,0.0,0.0,0.0,0.0,0.0,0.0,0.0,0.0,0.0,0.0,0.0,0.0,0.0,0.0,0.0,0.0,0.0,0.0,0.0,0.0,0.0,0.0,0.0,0.0,0.0,0.0,0.0,0.0,0.0,0.0,0.0,0.0,0.0,0.0,0.0,0.0,0.0,0.0,0.0,0.0,0.0,0.0,0.0,0.0,0.0,0.0,0.0,0.0,0.0,0.0,0.0,0.0,0.0,0.0,0.0,0.0,0.0,0.0,0.0,0.0,0.0,0.0,0.0,0.0,0.0,0.0,0.0,0.0,0.763,0.0,0.0,0.0,0.0,0.0,0.0,0.0,0.0,0.0,0.0,0.0,0.0,0.0,0.0,0.0,0.0,0.0,0.0,0.0,0.0,0.0,0.0,0.0,0.0,0.0,0.0,0.0,0.0,0.0,0.0,0.0,0.0,0.0,0.0,0.0,0.0,0.0,0.0,0.0,0.0,0.0,0.0,0.0,0.0,0.0,0.0,0.0,0.0,0.0,0.0,0.0,0.0,0.0,0.0,0.0,0.0,0.0,0.0,0.0,0.0,0.0,0.0,0.0,0.0,0.0,0.0,0.0,0.0,0.0,0.0,0.0,0.0,0.0,0.0,0.0,0.0,0.0,0.0,0.0,0.0,0.0,0.0,0.0,0.0,0.0,0.0,0.0,0.0,0.0,0.0,0.0,0.0,0.0,0.0,0.0,0.0,0.0,0.0,0.0,0.0,0.0,0.0,0.0,0.0,0.0,0.0,0.0,0.0,0.0,0.0,1.0147,0.9883,0.9718,0.9273,0.8539,0.0,0.0,0.0,0.0,0.0,0.0,0.0,0.0,0.0,0.0,0.0,0.0,0.0,0.0,0.0,0.0,0.0,0.0,0.0,0.0,0.0,0.0,0.0,0.0,0.0,0.0,0.0,0.0,0.0,0.0,0.0,0.0,0.0,0.0,0.0,0.0,0.0,0.0,0.0,0.0,0.0,0.0,0.0,0.0,0.0,0.0,0.0,0.0,0.0,0.0,0.0,0.0,0.0,0.0,0.0,0.0,0.0,0.0,0.0,0.0,0.0,0.0,0.0,0.0,0.0,0.0,0.0,0.0,0.0,0.0,0.0,0.0,0.0,0.0,0.0,0.0,0.0,0.0,0.0,0.0,0.0,0.0,0.0,0.0,0.0,0.0,0.0,0.0,0.0,0.0,0.0,0.0,0.0,0.0,0.0,0.0,0.0,0.0,0.0,0.0,0.0,0.0,0.0,0.0,0.0,0.0,0.0,0.0,0.0,0.0,0.0,0.0,1.0491,0.9992,0.9112,0.0,0.0,0.0,0.0,0.0,0.0,0.0,0.0,0.0,0.0,0.0,0.0,0.0,0.0,0.0,0.0,0.0,0.0,0.0,0.0,0.0,0.0,0.0,0.0,0.0,0.0,0.0,0.0,0.0,0.0,0.0,0.0,0.0,0.0,0.0,0.0,0.0,0.0,0.0,0.0,0.0,0.0,0.0,0.0,0.0,0.0,0.0,0.0,0.0,0.0,0.0,0.0,0.0,0.0,0.0,0.0,0.0,0.0,0.0,0.0,0.0,0.0,0.0,0.0,0.0,0.0,0.0,0.0,0.0,0.0,0.0,0.0,0.0,0.0,0.0,0.0,0.0,0.0,0.0,0.0,0.0,0.0,0.0,0.0,0.0,0.0,0.0,0.0,0.0,0.0,0.0,0.0,0.0,0.0,0.0,0.0,0.0,0.0,0.0,0.0,0.0,0.0,0.0,0.0,0.0,0.0,0.0,0.0,0.0,0.0,1.1027,1.0718,1.0511,0.0,0.8549,0.0,0.0,0.0,0.0,0.0,0.0,0.0,0.0,0.0,0.0,0.0,0.0,0.0,0.0,0.0,0.0,0.0,0.0,0.0,0.0,0.0,0.0,0.0,0.0,0.0,0.0,0.0,0.0,0.0,0.0,0.0,0.0,0.0,0.0,0.0,0.0,0.0,0.0,0.0,0.0,0.0,0.0,0.0,0.0,0.0,0.0,0.0,0.0,0.0,0.0,0.0,0.0,0.0,0.0,0.0,0.0,0.0,0.0,0.0,0.0,0.0,0.0,0.0,0.0,0.0,0.0,0.0,0.0,0.0,0.0,0.0,0.0,0.0,0.0,0.0,0.0,0.0,0.0,0.0,0.0,0.0,0.0,0.0,0.0,0.0,0.0,0.0,0.0,0.0,0.0,0.0,0.0,0.0,0.0,0.0,0.0,0.0,0.0,0.0,0.0,0.0,0.0,0.0,0.0,0.0,0.0,0.0,0.0,0.0,0.0,1.0997,1.0712,1.0392,0.9645,0.0,0.0,0.0,0.0,0.0,0.0,0.0,0.0,0.0,0.0,0.0,0.0,0.0,0.0,0.0,0.0,0.0,0.0,0.0,0.0,0.0,0.0,0.0,0.0,0.0,0.0,0.0,0.0,0.0,0.0,0.0,0.0,0.0,0.0,0.0,0.0,0.0,0.0,0.0,0.0,0.0,0.0,0.0,0.0,0.0,0.0,0.0,0.0,0.0,0.0,0.0,0.0,0.0,0.0,0.0,0.0,0.0,0.0,0.0,0.0,0.0,0.0,0.0,0.0,0.0,0.0,0.0,0.0,0.0,0.0,0.0,0.0,0.0,0.0,0.0,0.0,0.0,0.0,0.0,0.0,0.0,0.0,0.0,0.0,0.0,0.0,0.0,0.0,0.0,0.0,0.0,0.0,0.0,0.0,0.0,0.0,0.0,0.0,0.0,0.0,0.0,0.0,0.0,0.0,0.0,0.0,0.0,0.0,0.0,0.0,1.1227,0.0,1.0589,1.0267,0.9548,0.8406,0.0,0.0,0.0,0.0,0.0,0.0,0.0,0.0,0.0,0.0,0.0,0.0,0.0,0.0,0.0,0.0,0.0,0.0,0.0,0.0,0.0,0.0,0.0,0.0,0.0,0.0,0.0,0.0,0.0,0.0,0.0,0.0,0.0,0.0,0.0,0.0,0.0,0.0,0.0,0.0,0.0,0.0,0.0,0.0,0.0,0.0,0.0,0.0,0.0,0.0,0.0,0.0,0.0,0.0,0.0,0.0,0.0,0.0,0.0,0.0,0.0,0.0,0.0,0.0,0.0,0.0,0.0,0.0,0.0,0.0,0.0,0.0,0.0,0.0,0.0,0.0,0.0,0.0,0.0,0.0,0.0,0.0,0.0,0.0,0.0,0.0,0.0,0.0,0.0,0.0,0.0,0.0,0.0,0.0,0.0,0.0,0.0,0.0,0.0,0.0,0.0,0.0,0.0,0.0,0.0,0.0,0.0,0.0,0.0,1.1227,1.0849,1.0331,1.016,0.9536,0.0,0.0,0.0,0.0,0.0,0.0,0.0,0.0,0.0,0.0,0.0,0.0,0.0,0.0,0.0,0.0,0.0,0.0,0.0,0.0,0.0,0.0,0.0,0.0,0.0,0.0,0.0,0.0,0.0,0.0,0.0,0.0,0.0,0.0,0.0,0.0,0.0,0.0,0.0,0.0,0.0,0.0,0.0,0.0,0.0,0.0,0.0,0.0,0.0,0.0,0.0,0.0,0.0,0.0,0.0,0.0,0.0,0.0,0.0,0.0,0.0,0.0,0.0,0.0,0.0,0.0,0.0,0.0,0.0,0.0,0.0,0.0,0.0,0.0,0.0,0.0,0.0,0.0,0.0,0.0,0.0,0.0,0.0,0.0,0.0,0.0,0.0,0.0,0.0,0.0,0.0,0.0,0.0,0.0,0.0,0.0,0.0,0.0,0.0,0.0,0.0,0.0,0.0,0.0,0.0,0.0,0.0,0.0,0.0,1.1497,1.1068,1.0656,1.0306,1.018,0.953,0.0,0.0,0.0,0.0,0.0,0.0,0.0,0.0,0.0,0.0,0.0,0.0,0.0,0.0,0.0,0.0,0.0,0.0,0.0,0.0,0.0,0.0,0.0,0.0,0.0,0.0,0.0,0.0,0.0,0.0,0.0,0.0,0.0,0.0,0.0,0.0,0.0,0.0,0.0,0.0,0.0,0.0,0.0,0.0,0.0,0.0,0.0,0.0,0.0,0.0,0.0,0.0,0.0,0.0,0.0,0.0,0.0,0.0,0.0,0.0,0.0,0.0,0.0,0.0,0.0,0.0,0.0,0.0,0.0,0.0,0.0,0.0,0.0,0.0,0.0,0.0,0.0,0.0,0.0,0.0,0.0,0.0,0.0,0.0,0.0,0.0,0.0,0.0,0.0,0.0,0.0,0.0,0.0,0.0,0.0,0.0,0.0,0.0,0.0,0.0,0.0,0.0,0.0,0.0,0.0,0.0,0.0,0.0,0.0,1.162,0.0,1.0809,0.0,1.0399,0.9684,0.0,0.0,0.0,0.0,0.0,0.0,0.0,0.0,0.0,0.0,0.0,0.0,0.0,0.0,0.0,0.0,0.0,0.0,0.0,0.0,0.0,0.0,0.0,0.0,0.0,0.0,0.0,0.0,0.0,0.0,0.0,0.0,0.0,0.0,0.0,0.0,0.0,0.0,0.0,0.0,0.0,0.0,0.0,0.0,0.0,0.0,0.0,0.0,0.0,0.0,0.0,0.0,0.0,0.0,0.0,0.0,0.0,0.0,0.0,0.0,0.0,0.0,0.0,0.0,0.0,0.0,0.0,0.0,0.0,0.0,0.0,0.0,0.0,0.0,0.0,0.0,0.0,0.0,0.0,0.0,0.0,0.0,0.0,0.0,0.0,0.0,0.0,0.0,0.0,0.0,0.0,0.0,0.0,0.0,0.0,0.0,0.0,0.0,0.0,0.0,0.0,0.0,0.0,0.0,0.0,0.0,0.0,0.0,1.1751,1.1865,1.1594,1.1322,1.1105,1.0896,1.0007,0.0,0.0,0.0,0.0,0.0,0.0,0.0,0.0,0.0,0.0,0.0,0.0,0.0,0.0,0.0,0.0,0.0,0.0,0.0,0.0,0.0,0.0,0.0,0.0,0.0,0.0,0.0,0.0,0.0,0.0,0.0,0.0,0.0,0.0,0.0,0.0,0.0,0.0,0.0,0.0,0.0,0.0,0.0,0.0,0.0,0.0,0.0,0.0,0.0,0.0,0.0,0.0,0.0,0.0,0.0,0.0,0.0,0.0,0.0,0.0,0.0,0.0,0.0,0.0,0.0,0.0,0.0,0.0,0.0,0.0,0.0,0.0,0.0,0.0,0.0,0.0,0.0,0.0,0.0,0.0,0.0,0.0,0.0,0.0,0.0,0.0,0.0,0.0,0.0,0.0,0.0,0.0,0.0,0.0,0.0,0.0,0.0,0.0,0.0,0.0,0.0,0.0,0.0,0.0,0.0,0.0,0.0,0.0,0.0,1.1908,1.2028,1.1951,1.1648,1.1099,1.0367,0.0,0.0,0.0,0.0,0.0,0.0,0.0,0.0,0.0,0.0,0.0,0.0,0.0,0.0,0.0,0.0,0.0,0.0,0.0,0.0,0.0,0.0,0.0,0.0,0.0,0.0,0.0,0.0,0.0,0.0,0.0,0.0,0.0,0.0,0.0,0.0,0.0,0.0,0.0,0.0,0.0,0.0,0.0,0.0,0.0,0.0,0.0,0.0,0.0,0.0,0.0,0.0,0.0,0.0,0.0,0.0,0.0,0.0,0.0,0.0,0.0,0.0,0.0,0.0,0.0,0.0,0.0,0.0,0.0,0.0,0.0,0.0,0.0,0.0,0.0,0.0,0.0,0.0,0.0,0.0,0.0,0.0,0.0,0.0,0.0,0.0,0.0,0.0,0.0,0.0,0.0,0.0,0.0,0.0,0.0,0.0,0.0,0.0,0.0,0.0,0.0,0.0,0.0,0.0,0.0,0.0,0.0,0.0,0.0,1.2718,1.2644,1.2487,1.2205,1.1491,1.0718,0.9924,0.0,0.0,0.0,0.0,0.0,0.0,0.0,0.0,0.0,0.0,0.0,0.0,0.0,0.0,0.0,0.0,0.0,0.0,0.0,0.0,0.0,0.0,0.0,0.0,0.0,0.0,0.0,0.0,0.0,0.0,0.0,0.0,0.0,0.0,0.0,0.0,0.0,0.0,0.0,0.0,0.0,0.0,0.0,0.0,0.0,0.0,0.0,0.0,0.0,0.0,0.0,0.0,0.0,0.0,0.0,0.0,0.0,0.0,0.0,0.0,0.0,0.0,0.0,0.0,0.0,0.0,0.0,0.0,0.0,0.0,0.0,0.0,0.0,0.0,0.0,0.0,0.0,0.0,0.0,0.0,0.0,0.0,0.0,0.0,0.0,0.0,0.0,0.0,0.0,0.0,0.0,0.0,0.0,0.0,0.0,0.0,0.0,0.0,0.0,0.0,0.0,0.0,0.0,0.0,0.0,0.0,0.0,0.0,1.4149,1.3486,1.3016,1.279,1.2086,1.1163,0.0,0.0,0.0,0.0,0.0,0.0,0.0,0.0,0.0,0.0,0.0,0.0,0.0,0.0,0.0,0.0,0.0,0.0,0.0,0.0,0.0,0.0,0.0,0.0,0.0,0.0,0.0,0.0,0.0,0.0,0.0,0.0,0.0,0.0,0.0,0.0,0.0,0.0,0.0,0.0,0.0,0.0,0.0,0.0,0.0,0.0,0.0,0.0,0.0,0.0,0.0,0.0,0.0,0.0,0.0,0.0,0.0,0.0,0.0,0.0,0.0,0.0,0.0,0.0,0.0,0.0,0.0,0.0,0.0,0.0,0.0,0.0,0.0,0.0,0.0,0.0,0.0,0.0,0.0,0.0,0.0,0.0,0.0,0.0,0.0,0.0,0.0,0.0,0.0,0.0,0.0,0.0,0.0,0.0,0.0,0.0,0.0,0.0,0.0,0.0,0.0,0.0,0.0,0.0,0.0,0.0,0.0,0.0,0.0,1.4706,1.4712,1.442,1.3824,1.3133,1.227,0.0,0.0,0.0,0.0,0.0,0.0,0.0,0.0,0.0,0.0,0.0,0.0,0.0,0.0,0.0,0.0,0.0,0.0,0.0,0.0,0.0,0.0,0.0,0.0,0.0,0.0,0.0,0.0,0.0,0.0,0.0,0.0,0.0,0.0,0.0,0.0,0.0,0.0,0.0,0.0,0.0,0.0,0.0,0.0,0.0,0.0,0.0,0.0,0.0,0.0,0.0,0.0,0.0,0.0,0.0,0.0,0.0,0.0,0.0,0.0,0.0,0.0,0.0,0.0,0.0,0.0,0.0,0.0,0.0,0.0,0.0,0.0,0.0,0.0,0.0,0.0,0.0,0.0,0.0,0.0,0.0,0.0,0.0,0.0,0.0,0.0,0.0,0.0,0.0,0.0,0.0,0.0,0.0,0.0,0.0,0.0,0.0,0.0,0.0,0.0,0.0,0.0,0.0,0.0,0.0,0.0,0.0,0.0,1.4319,1.5203,1.5498,1.537,1.4847,1.3756,1.2701,0.0,0.0,0.0,0.0,0.0,0.0,0.0,0.0,0.0,0.0,0.0,0.0,0.0,0.0,0.0,0.0,0.0,0.0,0.0,0.0,0.0,0.0,0.0,0.0,0.0,0.0,0.0,0.0,0.0,0.0,0.0,0.0,0.0,0.0,0.0,0.0,0.0,0.0,0.0,0.0,0.0,0.0,0.0,0.0,0.0,0.0,0.0,0.0,0.0,0.0,0.0,0.0,0.0,0.0,0.0,0.0,0.0,0.0,0.0,0.0,0.0,0.0,0.0,0.0,0.0,0.0,0.0,0.0,0.0,0.0,0.0,0.0,0.0,0.0,0.0,0.0,0.0,0.0,0.0,0.0,0.0,0.0,0.0,0.0,0.0,0.0,0.0,0.0,0.0,0.0,0.0,0.0,0.0,0.0,0.0,0.0,0.0,0.0,0.0,0.0,0.0,0.0,0.0,0.0,0.0,0.0,0.0,0.0,1.4787,1.5477,1.5938,1.6028,1.5663,1.419,1.2839,0.0,0.0,0.0,0.0,0.0,0.0,0.0,0.0,0.0,0.0,0.0,0.0,0.0,0.0,0.0,0.0,0.0,0.0,0.0,0.0,0.0,0.0,0.0,0.0,0.0,0.0,0.0,0.0,0.0,0.0,0.0,0.0,0.0,0.0,0.0,0.0,0.0,0.0,0.0,0.0,0.0,0.0,0.0,0.0,0.0,0.0,0.0,0.0,0.0,0.0,0.0,0.0,0.0,0.0,0.0,0.0,0.0,0.0,0.0,0.0,0.0,0.0,0.0,0.0,0.0,0.0,0.0,0.0,0.0,0.0,0.0,0.0,0.0,0.0,0.0,0.0,0.0,0.0,0.0,0.0,0.0,0.0,0.0,0.0,0.0,0.0,0.0,0.0,0.0,0.0,0.0,0.0,0.0,0.0,0.0,0.0,0.0,0.0,0.0,0.0,0.0,0.0,0.0,0.0,0.0,0.0,0.0,0.0,1.4946,1.5429,1.6168,1.6304,1.5706,1.4949,1.3828,0.0,0.0,0.0,0.0,0.0,0.0,0.0,0.0,0.0,0.0,0.0,0.0,0.0,0.0,0.0,0.0,0.0,0.0,0.0,0.0,0.0,0.0,0.0,0.0,0.0,0.0,0.0,0.0,0.0,0.0,0.0,0.0,0.0,0.0,0.0,0.0,0.0,0.0,0.0,0.0,0.0,0.0,0.0,0.0,0.0,0.0,0.0,0.0,1.2079,0.0,0.0,0.0,0.0,0.0,0.0,0.0,0.0,0.0,0.0,0.0,0.0,0.0,0.0,0.0,0.0,0.0,0.0,0.0,0.0,0.0,0.0,0.0,0.0,0.0,0.0,0.0,0.0,0.0,0.0,0.0,0.0,0.0,0.0,0.0,0.0,0.0,0.0,0.0,0.0,0.0,0.0,0.0,0.0,0.0,0.0,0.0,0.0,0.0,0.0,0.0,0.0,0.0,0.0,0.0,0.0,0.0,0.0,0.0,1.5354,1.5685,1.6334,1.6492,1.607,1.5324,1.4117,0.0,0.0,0.0,0.0,0.0,0.0,0.0,0.0,0.0,0.0,0.0,0.0,0.0,0.0,0.0,0.0,0.0,0.0,0.0,0.0,0.0,0.0,0.0,0.0,0.0,0.0,0.0,0.0,0.0,0.0,0.0,0.0,0.0,0.0,0.0,0.0,0.0,0.0,0.0,0.0,0.0,0.0,0.0,0.0,0.0,0.0,0.0,0.0,0.0,0.0,0.0,0.0,0.0,0.0,0.0,0.0,0.0,0.0,0.0,0.0,0.0,0.0,0.0,0.0,0.0,0.0,0.0,0.0,0.0,0.0,0.0,0.0,0.0,0.0,0.0,0.0,0.0,0.0,0.0,0.0,0.0,0.0,0.0,0.0,0.0,0.0,0.0,0.0,0.0,0.0,0.0,0.0,0.0,0.0,0.0,0.0,0.0,0.0,0.0,0.0,0.0,0.0,0.0,0.0,0.0,0.0,0.0,1.4743,1.565,1.5949,1.6384,1.6556,1.6432,1.5424,1.414,1.258,0.0,0.0,0.0,0.0,0.0,0.0,0.0,0.0,0.0,0.0,0.0,0.0,0.0,0.0,0.0,0.0,0.0,0.0,0.0,0.0,0.0,0.0,0.0,0.0,0.0,0.0,0.0,0.0,0.0,0.0,0.0,0.0,0.0,0.0,0.0,0.0,0.0,0.0,1.1455,1.3624,0.0,0.0,0.0,0.0,0.0,0.0,0.0,0.0,1.417,0.0,0.0,0.0,0.0,0.0,0.0,0.0,0.0,0.0,0.0,0.0,0.0,0.0,0.0,0.0,0.0,0.0,0.0,0.0,0.0,0.0,0.0,0.0,0.0,0.0,0.0,0.0,0.0,0.0,0.0,0.0,0.0,0.0,0.0,0.0,0.0,0.0,0.0,0.0,0.0,0.0,0.0,0.0,0.0,0.0,0.0,0.0,0.0,0.0,0.0,0.0,0.0,0.0,0.0,0.0,0.0,1.2956,1.4376,1.5295,1.5744,1.6086,1.6276,1.6241,1.5265,1.4175,1.3024,0.0,0.0,0.0,0.0,0.0,0.0,0.0,0.0,0.0,0.0,0.0,0.0,0.0,0.0,0.0,0.0,0.0,0.0,0.0,0.0,0.0,0.0,0.0,0.0,0.0,0.0,0.0,0.0,0.0,0.0,0.0,0.0,0.0,0.0,0.0,0.0,0.0,0.0,0.0,1.5219,1.6212,0.0,0.0,0.0,0.0,0.0,0.0,0.0,0.0,1.546,0.0,0.0,0.0,0.0,0.0,0.0,0.0,0.0,0.0,0.0,0.0,0.0,0.0,0.0,0.0,0.0,0.0,0.0,0.0,0.0,0.0,0.0,0.0,0.0,0.0,0.0,0.0,0.0,0.0,0.0,0.0,0.0,0.0,0.0,0.0,0.0,0.0,0.0,0.0,0.0,0.0,0.0,0.0,0.0,0.0,0.0,0.0,0.0,0.0,0.0,0.0,0.0,0.0,0.0,0.0,1.3141,1.4257,1.5179,1.5832,1.5944,1.6024,1.6087,1.5102,1.4052,0.0,0.0,0.0,0.0,0.0,0.0,0.0,0.0,0.0,0.0,0.0,0.0,0.0,0.0,0.0,0.0,0.0,0.0,0.0,0.0,0.0,0.0,0.0,0.0,0.0,0.0,0.0,0.0,0.0,0.0,0.0,0.0,0.0,0.0,0.0,0.0,0.0,0.0,0.0,0.0,1.6744,1.7425,1.8341,0.0,0.0,0.0,0.0,0.0,0.0,1.6915,1.6443,0.0,0.0,0.0,0.0,0.0,0.0,0.0,0.0,0.0,0.0,0.0,0.0,0.0,0.0,0.0,0.0,0.0,0.0,0.0,0.0,0.0,0.0,0.0,0.0,0.0,0.0,0.0,0.0,0.0,0.0,0.0,0.0,0.0,0.0,0.0,0.0,0.0,0.0,0.0,0.0,0.0,0.0,0.0,0.0,0.0,0.0,0.0,0.0,0.0,0.0,0.0,0.0,0.0,0.0,0.0,1.322,1.4109,1.5002,1.5841,1.5747,1.5726,1.5845,1.4862,1.3859,0.0,0.0,0.0,0.0,0.0,0.0,0.0,0.0,0.0,0.0,0.0,0.0,0.0,0.0,0.0,0.0,0.0,0.0,0.0,0.0,0.0,0.0,0.0,0.0,0.0,0.0,0.0,0.0,0.0,0.0,0.0,0.0,0.0,0.0,0.0,0.0,0.0,0.0,0.0,0.0,0.0,1.8737,1.9331,1.934,0.0,0.0,0.0,0.0,1.8156,1.7926,0.0,0.0,0.0,0.0,0.0,0.0,0.0,0.0,0.0,0.0,0.0,0.0,0.0,0.0,0.0,0.0,0.0,0.0,0.0,0.0,0.0,0.0,0.0,0.0,0.0,0.0,0.0,0.0,0.0,0.0,0.0,0.0,0.0,0.0,0.0,0.0,0.0,0.0,0.0,0.0,0.0,0.0,0.0,0.0,0.0,0.0,0.0,0.0,0.0,0.0,0.0,0.0,0.0,0.0,0.0,0.0,1.2927,1.3696,1.4568,1.5488,1.5311,1.5255,1.5368,1.4499,1.36,0.0,0.0,0.0,0.0,0.0,0.0,0.0,0.0,0.0,0.0,0.0,0.0,0.0,0.0,0.0,0.0,0.0,0.0,0.0,0.0,0.0,0.0,0.0,0.0,0.0,0.0,0.0,0.0,0.0,0.0,0.0,0.0,0.0,0.0,0.0,0.0,0.0,0.0,0.0,0.0,0.0,2.0163,2.0691,2.111,2.1321,0.0,0.0,2.108,2.0936,1.9836,0.0,0.0,0.0,0.0,0.0,0.0,0.0,0.0,0.0,0.0,0.0,0.0,0.0,0.0,0.0,0.0,0.0,0.0,0.0,0.0,0.0,0.0,0.0,0.0,0.0,0.0,0.0,0.0,0.0,0.0,0.0,0.0,0.0,0.0,0.0,0.0,0.0,0.0,0.0,0.0,0.0,0.0,0.0,0.0,0.0,0.0,0.0,0.0,0.0,0.0,0.0,0.0,0.0,0.0,0.0,1.1688,1.2443,1.3244,1.4076,1.4937,1.48,1.4777,1.496,1.4111,1.3261,0.0,0.0,0.0,0.0,0.0,0.0,0.0,0.0,0.0,0.0,0.0,0.0,0.0,0.0,0.0,0.0,0.0,0.0,0.0,0.0,0.0,0.0,0.0,0.0,0.0,0.0,0.0,0.0,0.0,0.0,0.0,0.0,0.0,0.0,0.0,0.0,0.0,0.0,0.0,0.0,0.0,0.0,2.1496,2.1676,0.0,0.0,0.0,2.158,2.1419,0.0,0.0,0.0,0.0,0.0,0.0,0.0,0.0,0.0,0.0,0.0,0.0,0.0,0.0,0.0,0.0,0.0,0.0,0.0,0.0,0.0,0.0,0.0,0.0,0.0,0.0,0.0,0.0,0.0,0.0,0.0,0.0,0.0,0.0,0.0,0.0,0.0,0.0,0.0,0.0,0.0,0.0,0.0,0.0,0.0,0.0,0.0,0.0,0.0,0.0,0.0,0.0,0.0,0.0,0.0,0.0,0.0,1.1993,1.2811,1.3617,1.4421,1.4268,1.4303,1.449,1.3716,0.0,0.0,0.0,0.0,0.0,0.0,0.0,0.0,0.0,0.0,0.0,0.0,0.0,0.0,0.0,0.0,0.0,0.0,0.0,0.0,0.0,0.0,0.0,0.0,0.0,0.0,0.0,0.9561,0.0,0.0,0.0,0.0,0.0,0.0,0.0,0.0,0.0,0.0,0.0,0.0,0.0,0.0,2.1326,2.2421,2.2642,2.2667,0.0,0.0,2.255,2.2172,2.1489,2.0668,0.0,0.0,0.0,0.0,0.0,0.0,0.0,0.0,0.0,0.0,0.0,0.0,0.0,0.0,0.0,0.0,0.0,0.0,0.0,0.0,0.0,0.0,0.0,0.0,0.0,0.0,0.0,0.0,0.0,0.0,0.0,0.0,0.0,0.0,0.0,0.0,0.0,0.0,0.0,0.0,0.0,0.0,0.0,0.0,0.0,0.0,0.0,0.0,0.0,0.0,0.0,0.0,0.0,0.0,0.0,1.171,1.2399,1.3173,1.3989,1.3787,1.3775,1.4022,1.3325,1.2804,0.0,0.0,0.0,0.0,0.0,0.0,0.0,0.0,0.0,0.0,0.0,0.0,0.0,0.0,0.0,0.0,0.0,0.0,0.0,0.0,0.0,0.0,0.0,0.0,0.0,0.0,0.0,0.0,0.0,0.0,0.0,0.0,0.0,0.0,0.0,0.0,0.0,0.0,0.0,0.0,0.0,2.3138,2.3774,2.4717,2.5319,0.0,2.5345,2.507,2.4209,2.3507,2.2721,2.1592,0.0,0.0,0.0,0.0,0.0,0.0,0.0,0.0,0.0,0.0,0.0,0.0,0.0,0.0,0.0,0.0,0.0,0.0,0.0,0.0,0.0,0.0,0.0,0.0,0.0,0.0,0.0,0.0,0.0,0.0,0.0,0.0,0.0,0.0,0.0,0.0,0.0,0.0,0.0,0.0,0.0,0.0,0.0,0.0,0.0,0.0,0.0,0.0,0.0,0.0,0.0,0.0,0.0,1.069,1.1625,1.211,1.27,1.3464,1.3397,1.3443,1.3644,1.2963,1.2475,0.0,0.0,0.0,0.0,0.0,0.0,0.0,0.0,0.0,0.0,0.0,0.0,0.0,0.0,0.0,0.0,0.0,0.0,0.0,0.0,0.0,0.0,0.0,0.0,0.0,0.0,0.0,0.0,1.1581,1.19,1.2313,0.0,0.0,0.0,0.0,0.0,0.0,0.0,0.0,0.0,0.0,2.3955,2.4957,2.5393,0.0,0.0,2.5517,2.5215,2.443,2.3604,2.2745,2.1759,2.0573,0.0,0.0,0.0,0.0,0.0,0.0,0.0,0.0,0.0,0.0,0.0,0.0,0.0,0.0,0.0,0.0,0.0,0.0,0.0,0.0,0.0,0.0,0.0,0.0,0.0,0.0,0.0,0.0,0.0,0.0,0.0,0.0,0.0,0.0,0.0,0.0,0.0,0.0,0.0,0.0,0.0,0.0,0.0,0.0,0.0,0.0,0.0,0.0,0.0,0.0,0.0,0.0,1.0548,1.147,1.1763,1.2309,1.3098,1.3084,1.3132,1.329,1.2741,1.2308,0.0,0.0,0.0,0.0,0.0,0.0,0.0,0.0,0.0,0.0,0.0,0.0,0.0,0.0,0.0,0.0,0.0,0.0,0.0,0.0,0.0,0.0,0.0,0.0,0.0,0.0,0.0,0.0,1.1815,1.2222,1.2882,0.0,0.0,0.0,0.0,0.0,0.0,0.0,0.0,0.0,0.0,2.4954,2.5897,2.6219,2.6289,2.6156,2.5993,2.5601,2.4816,2.4103,2.3336,2.2422,0.0,0.0,0.0,0.0,0.0,0.0,0.0,0.0,0.0,0.0,0.0,0.0,0.0,0.0,0.0,0.0,0.0,0.0,0.0,0.0,0.0,0.0,0.0,0.0,0.0,0.0,0.0,0.5455,0.0,0.0,0.5744,0.0,0.0,0.0,0.0,0.0,0.0,0.0,0.0,0.0,0.0,0.0,0.0,0.0,0.0,0.0,0.0,0.0,0.0,0.0,0.0,0.0,0.0,1.0596,1.1185,1.143,1.1987,1.2873,1.2783,1.2854,1.3097,1.2699,1.2399,1.2181,0.0,0.0,0.0,0.0,0.0,0.0,0.0,0.0,0.0,0.0,0.0,0.0,0.0,0.0,0.0,0.0,0.0,0.0,0.0,0.0,0.0,0.0,0.0,0.0,0.0,0.0,1.1533,1.2106,1.2797,0.0,0.0,0.0,0.0,0.0,0.0,0.0,0.0,0.0,2.3317,2.5129,2.6325,2.6565,2.7424,2.784,2.7418,2.7126,2.6622,2.5685,2.5416,2.4999,0.0,0.0,0.0,0.0,0.0,0.0,0.0,0.0,0.0,0.0,0.0,0.0,0.0,0.0,0.0,0.0,0.0,0.0,0.0,0.0,0.0,0.0,0.0,0.0,0.0,0.0,0.0,0.6003,0.5858,0.0,0.0,0.0,0.0,0.0,0.0,0.0,0.0,0.0,0.0,0.0,0.9931,1.0042,0.0,0.0,0.0,0.0,0.0,0.0,0.0,0.0,0.0,0.0,0.0,0.0,1.0557,1.1185,1.1807,1.2368,1.2881,1.2938,1.3014,1.3093,1.2574,1.1958,1.1216,0.0,0.0,0.0,0.0,0.0,0.0,0.0,0.0,0.0,0.0,0.0,0.0,0.0,0.0,0.0,0.0,0.0,0.0,0.0,0.0,0.0,0.0,0.0,0.0,0.0,1.1959,0.0,0.0,0.0,0.0,0.0,0.0,0.0,0.0,0.0,0.0,0.0,2.2893,2.4768,2.599,2.7036,2.7926,2.8466,2.8525,0.0,0.0,0.0,0.0,0.0,0.0,0.0,0.0,0.0,0.0,0.0,0.0,0.0,0.0,2.1086,1.9492,1.8724,1.8357,1.8497,0.0,0.0,0.0,0.0,0.0,0.0,0.0,0.0,0.0,0.0,0.0,0.0,0.0,0.0,0.6465,0.6266,0.6417,0.0,0.0,0.0,0.0,0.0,0.0,0.0,0.0,0.9207,0.9593,0.9983,1.0078,1.037,0.0,1.037,1.011,0.0,0.0,0.0,0.0,0.0,0.0,0.0,0.0,1.0684,1.129,1.1765,1.2307,1.2855,1.2962,1.2967,1.2922,1.2317,1.1725,1.1172,1.0942,1.0294,0.0,0.0,0.0,0.0,0.0,0.0,0.0,0.0,0.0,0.0,0.0,0.0,0.0,0.0,0.0,0.0,0.0,0.0,0.0,0.0,0.0,0.0,0.0,1.265,0.0,0.0,0.0,0.0,0.0,0.0,0.0,0.0,0.0,2.3481,2.3705,2.4299,2.5838,2.689,2.7762,2.8452,0.0,0.0,0.0,0.0,0.0,0.0,0.0,2.4975,2.4648,2.4486,2.4532,2.488,2.461,2.4261,2.4055,0.0,0.0,2.1331,2.0606,2.0339,2.0341,1.9671,1.9106,1.9224,1.9126,1.8966,0.0,0.0,0.0,0.0,0.0,0.0,0.0,0.0,0.6955,0.6889,0.0,0.6915,0.0,0.0,0.0,0.0,0.8338,0.8379,0.0,0.0,0.9066,0.9253,0.9727,0.9503,0.9737,1.0339,1.0227,1.0336,1.0583,0.9623,0.0,0.0,0.0,0.0,0.0,0.0,1.0962,1.1451,1.1416,1.1796,1.2739,1.2793,1.2752,1.2564,1.1978,1.1745,1.1926,1.0943,1.04,1.0467,0.9149,0.0,0.0,0.0,0.0,0.0,0.0,0.0,0.0,0.0,0.0,0.0,0.0,0.0,0.0,0.0,0.0,0.0,0.0,0.0,0.0,1.2714,0.0,0.0,0.0,0.0,0.0,0.0,0.0,0.0,0.0,0.0,2.5702,2.5418,2.5513,2.6581,0.0,0.0,0.0,0.0,2.8566,2.8223,2.7656,2.7152,2.6752,2.6428,2.6102,2.5762,0.0,0.0,2.668,2.6416,2.6156,2.6134,2.6146,2.5499,2.3375,2.2829,2.2645,2.2535,2.1722,2.119,2.1173,2.0878,2.0586,0.5089,0.0,0.0,0.0,0.0,0.636,0.6658,0.7018,0.7207,0.7194,0.7074,0.7122,0.0,0.0,0.0,0.0,0.0,0.0,0.8342,0.8521,0.8648,0.8888,0.9235,0.9168,0.9347,0.9748,0.9818,0.9953,1.0105,0.9677,0.9683,1.0079,0.0,0.0,0.0,0.0,1.0939,1.1155,1.1768,1.2174,1.2367,1.2605,1.259,1.232,1.214,1.1921,1.1724,1.1495,1.1028,1.0322,1.0008,0.0,0.0,0.0,0.0,0.0,0.0,0.0,0.0,0.0,0.0,0.0,0.0,0.0,0.0,0.0,0.0,0.0,0.0,0.0,1.301,1.4055,1.4978,0.0,0.0,0.0,0.0,0.0,0.0,0.0,0.0,0.0,2.7561,2.6585,2.6138,0.0,0.0,2.8919,2.9388,2.985,2.9981,2.9452,2.8908,0.0,2.7088,2.6915,2.681,2.6524,2.7211,2.7723,2.7512,2.7698,2.7736,2.7264,2.7636,2.7628,2.646,2.49,2.3925,2.3779,2.2995,2.224,2.2144,2.2125,2.2148,0.4074,0.4514,0.4935,0.5399,0.5867,0.6067,0.6415,0.684,0.6984,0.6985,0.694,0.6976,0.6999,0.7022,0.7299,0.0,0.0,0.0,0.8127,0.8236,0.8351,0.854,0.8798,0.8787,0.8993,0.9325,0.9421,0.9656,1.0015,0.9678,0.9759,1.0175,0.0,0.0,1.0335,1.0659,1.091,1.1097,1.1586,1.1897,1.2038,1.2209,1.2297,1.2281,1.1987,1.1839,1.1843,1.1624,1.1246,1.0778,1.0447,0.9888,0.0,0.0,0.0,0.0,0.0,0.0,0.0,0.0,0.0,0.0,0.0,0.9955,1.0574,0.0,0.0,0.0,1.2494,1.3843,1.4305,1.5657,0.0,0.0,0.0,0.0,0.0,0.0,0.0,2.2669,2.4975,2.7237,2.8802,2.7971,2.7444,2.8135,2.8652,2.9164,2.9686,0.0,3.0061,2.9757,2.9316,2.8681,2.7677,2.7608,2.7744,2.7966,2.8591,2.9139,2.9146,2.9172,2.8989,2.8582,2.8607,2.8603,2.8103,2.6476,2.5137,2.4965,2.4345,2.3724,2.3322,2.3254,2.3204,0.2855,0.3085,0.4055,0.483,0.5416,0.5493,0.5825,0.6325,0.6389,0.6416,0.6454,0.6545,0.6624,0.6717,0.7264,0.0,0.765,0.7759,0.7951,0.8178,0.8069,0.812,0.8375,0.8375,0.8586,0.8945,0.8985,0.9352,0.9991,0.9561,0.9516,0.9823,0.9969,1.0133,1.0344,1.0527,1.0785,1.1122,1.1002,1.1215,1.174,1.1692,1.1881,1.2311,1.1638,1.1539,1.2088,1.1388,1.1167,1.1493,1.052,1.0047,1.0225,0.0,0.0,0.0,0.0,0.0,0.0,0.0,0.0,0.0,0.0,0.0,0.0,0.0,0.0,0.0,1.4804,0.0,1.5789,1.7475,0.0,0.0,0.0,2.1604,2.221,2.3813,2.4688,2.4175,0.0,0.0,2.9648,2.9435,2.9182,2.9333,2.9285,2.9283,2.9394,2.9454,2.9409,2.9657,2.9348,2.8998,2.8634,2.8638,2.8993,2.9666,3.0102,3.038,3.0725,3.0434,2.9992,2.961,2.9139,2.8688,2.8578,2.7447,2.6479,2.5841,2.5573,2.5201,2.4506,2.4139,2.379,0.1797,0.198,0.238,0.3363,0.4656,0.4848,0.5211,0.5686,0.5569,0.5638,0.5872,0.5764,0.5976,0.6411,0.6713,0.6937,0.7103,0.7111,0.7171,0.7236,0.7201,0.7204,0.7286,0.7384,0.7562,0.7797,0.8075,0.8393,0.8755,0.8885,0.9068,0.9297,0.9483,0.965,0.9784,0.9943,1.0169,1.051,1.0582,1.0866,1.1397,1.1402,1.1494,1.1702,1.1291,1.1213,1.1501,1.1145,1.0998,1.1116,1.0696,1.0321,1.0078,0.9498,0.0,0.0,0.0,0.0,0.0,0.0,0.0,0.0,0.0,1.1736,1.2411,0.0,1.2198,0.0,1.6605,1.8226,1.7824,1.9349,0.0,0.0,2.212,2.3093,2.3632,2.4805,2.5648,2.5857,2.714,2.8643,3.028,3.024,3.0221,3.0577,2.9935,2.9496,2.9665,3.0318,3.079,3.0911,3.0952,3.077,3.0074,3.0348,3.0663,3.0782,3.0851,3.0758,3.033,3.0347,3.018,2.9594,2.924,2.8855,2.8376,2.7634,2.6806,2.5945,2.5557,2.5264,2.4719,2.4497,2.4197,0.0973,0.1103,0.1407,0.2197,0.329,0.3823,0.4292,0.4641,0.4625,0.485,0.5221,0.5309,0.5578,0.5951,0.6146,0.6325,0.6496,0.6559,0.6648,0.6763,0.6763,0.6814,0.6907,0.6977,0.7128,0.7321,0.7497,0.7768,0.8079,0.8223,0.8405,0.8597,0.8725,0.8801,0.8903,0.935,0.9675,0.9849,1.0126,1.05,1.098,1.1052,1.1193,1.1389,1.1137,1.1129,1.1383,1.103,1.0908,1.1099,1.076,1.0503,1.039,1.0072,0.9954,0.0,0.0,0.0,0.0,0.0,0.0,0.0,0.0,0.0,0.0,0.0,1.461,1.6642,1.8855,1.9977,1.9536,2.1102,2.2283,2.2582,2.3769,2.467,2.4966,2.616,2.6944,2.6953,2.8156,2.9555,3.0925,3.0865,3.0733,3.0898,3.0421,3.0154,3.0464,3.0985,3.1334,3.1447,3.1521,3.1425,3.0913,3.1411,3.175,3.1497,3.1403,3.1177,3.0663,3.0434,3.0137,2.9432,2.91,2.8699,2.7964,2.7455,2.6845,2.6104,2.5713,2.5416,2.4904,2.4686,2.4409,0.0203,0.0249,0.0746,0.1198,0.1645,0.2619,0.3181,0.3504,0.3714,0.4065,0.4492,0.4949,0.5254,0.5401,0.5602,0.5788,0.5958,0.6067,0.6263,0.6507,0.6523,0.6601,0.6788,0.6788,0.6889,0.713,0.7107,0.7304,0.7697,0.7649,0.7727,0.7899,0.7934,0.7927,0.7948,0.8672,0.912,0.9246,0.9697,1.0117,1.0498,1.0665,1.0879,1.1186,1.1003,1.1055,1.1375,1.0915,1.0839,1.1207,1.08,1.0661,1.0917,1.0596,1.0824,0.0,1.1424,0.0,0.0,0.0,0.0,0.0,0.0,0.0,0.0,1.6041,1.7507,1.9675,2.1131,2.1693,2.1043,2.268,2.3787,2.3893,2.5165,2.6076,2.6176,2.7453,2.8199,2.7778,2.9066,3.0374,3.1396,3.1226,3.0901,3.0842,3.0786,3.0909,3.1348,3.1422,3.1417,3.1417,3.1541,3.1733,3.1597,3.2013,3.2256,3.1938,3.1701,3.1516,3.1135,3.0498,2.9818,2.9198,2.8781,2.829,2.7394,2.7054,2.6689,2.6106,2.59,2.5641,2.511,2.4785,2.4404,-0.0896,-0.0825,-0.0094,0.0259,0.04,0.1194,0.2028,0.2894,0.3149,0.3461,0.3823,0.4279,0.4594,0.4788,0.503,0.5347,0.5662,0.5703,0.5858,0.6122,0.6122,0.6122,0.6184,0.618,0.6385,0.6774,0.6652,0.6785,0.724,0.7273,0.7321,0.7359,0.7513,0.752,0.7378,0.0,0.0,0.0,0.9425,0.9759,0.9938,1.0238,1.0491,1.0713,1.0537,0.0,1.0891,1.0581,1.0584,1.1007,1.0854,0.0,0.0,0.0,0.0,0.0,0.0,0.0,0.0,0.0,0.0,0.0,1.5661,1.6147,1.5609,1.6834,1.8514,2.0517,2.2673,2.3568,2.2672,2.3791,2.4763,2.5197,2.5881,2.6478,2.6866,2.7556,2.8237,2.897,2.9459,3.0087,3.093,3.091,3.0847,3.1071,3.1185,3.137,3.1791,3.1604,3.1477,3.1535,3.215,3.2568,3.2262,3.2296,3.2176,3.1848,3.1521,3.1138,3.051,2.984,2.9266,2.885,2.8139,2.7489,2.7047,2.6879,2.6631,2.6037,2.5825,2.5629,2.5297,2.4843,2.421,-0.1645,-0.1335,-0.0811,-0.0358,0.0,0.0401,0.0998,0.1728,0.2249,0.2675,0.3084,0.3557,0.3837,0.4034,0.4289,0.4599,0.4951,0.4949,0.5137,0.5488,0.5509,0.5616,0.5788,0.5809,0.5996,0.6346,0.6272,0.6315,0.6553,0.6712,0.6791,0.6811,0.708,0.7149,0.7071,0.726,0.7741,0.8539,0.908,0.9479,0.9704,1.0029,1.0235,1.0292,1.0298,0.0,0.0,0.0,0.0,0.0,0.0,0.0,0.0,0.0,0.0,1.3755,1.3401,1.3305,1.3686,1.4347,1.4933,1.5339,1.6789,1.7669,1.7574,1.8745,1.9998,2.1189,2.2866,2.3718,2.343,2.4313,2.5172,2.5641,2.6175,2.6667,2.7115,2.7607,2.8137,2.8651,2.9232,2.9793,3.0215,3.0408,3.0533,3.0713,3.0769,3.0892,3.127,3.1574,3.1773,3.1927,3.233,3.2615,3.2254,3.1884,3.1641,3.1328,3.0994,3.0465,2.9783,2.9255,2.878,2.8196,2.7607,2.7218,2.6909,2.669,2.645,2.6161,2.5944,2.5614,2.5165,2.4667,2.4108,-0.2402,-0.1889,-0.1598,-0.099,-0.0265,-0.024,0.0096,0.0618,0.1358,0.0,0.0,0.2833,0.3112,0.3272,0.3534,0.384,0.4164,0.4183,0.4436,0.4878,0.4878,0.507,0.5434,0.5436,0.5602,0.5894,0.5892,0.5943,0.5978,0.6216,0.633,0.6354,0.6615,0.6778,0.6849,0.7022,0.744,0.8163,0.8684,0.9117,0.9479,0.9833,1.0031,1.0005,1.0225,1.0419,1.0564,1.049,1.0581,1.089,1.0943,1.1466,1.2445,1.2539,1.3084,1.4227,1.4067,1.4083,1.4517,1.5172,1.5754,1.6235,1.7616,1.8777,1.9652,2.037,2.106,2.171,2.2633,2.3319,2.3652,2.4547,2.5288,2.5645,2.6152,2.6606,2.7048,2.7504,2.7849,2.8066,2.8777,2.9278,2.9244,2.9623,2.9932,2.992,2.992,3.008,3.0442,3.1181,3.1811,3.1967,3.2145,3.2157,3.1737,3.1172,3.0736,3.0623,3.0261,2.9737,2.9105,2.8687,2.8218,2.7574,2.7256,2.7027,2.6849,2.6547,2.6318,2.6234,2.5968,2.5577,2.4879,2.4319,2.3796,-0.3687,-0.3104,-0.2615,-0.2007,-0.1352,-0.1133,-0.0605,0.0143,0.0877,0.1466,0.1916,0.222,0.2475,0.2725,0.2932,0.3262,0.3689,0.3709,0.3953,0.4393,0.4393,0.455,0.4818,0.4818,0.5061,0.545,0.5532,0.5695,0.5892,0.6008,0.6045,0.6071,0.6152,0.636,0.6609,0.6679,0.698,0.7612,0.8143,0.861,0.8994,0.9493,0.9829,0.9995,1.0292,1.0486,1.0514,1.081,1.1084,1.1303,1.1597,1.1907,1.2247,1.2776,1.3413,1.417,1.4222,1.4596,1.5429,1.5618,1.6278,1.7667,1.848,1.9249,2.0014,2.001,2.0541,2.1899,2.2676,2.3232,2.3564,2.4509,2.5158,2.5304,2.5667,2.6081,2.6543,2.6863,2.7306,2.7873,2.8299,2.8454,2.8292,2.8619,2.891,2.891,2.8956,2.9106,2.9669,3.051,3.1072,3.1241,3.1552,3.1484,3.0915,3.0193,2.976,2.9692,2.9462,2.9024,2.8303,2.7899,2.7584,2.7443,2.6941,2.667,2.6836,2.6607,2.6231,2.5986,2.5604,2.5078,2.4437,2.3691,2.3059,-0.4577,-0.3865,-0.3472,-0.2856,-0.2106,-0.152,-0.0864,-0.02,0.0125,0.0638,0.1217,0.1501,0.1682,0.181,0.2162,0.2511,0.2851,0.2985,0.3216,0.3516,0.3539,0.374,0.4078,0.4103,0.4346,0.4788,0.4992,0.5141,0.5238,0.5414,0.5591,0.5733,0.6054,0.6263,0.6343,0.6471,0.6684,0.7022,0.7683,0.8217,0.8584,0.9024,0.9305,0.9346,0.9718,0.9956,1.0066,1.0448,1.0753,1.0908,1.1372,1.1816,1.2174,1.2655,1.3357,1.4278,1.4383,1.4764,1.5608,1.6055,1.6822,1.8049,1.8533,1.915,2.0017,2.0385,2.0943,2.1837,2.2416,2.2923,2.338,2.402,2.4573,2.5054,2.5261,2.5611,2.6168,2.6378,2.6683,2.7189,2.7455,2.7502,2.7326,2.7634,2.7893,2.7906,2.8094,2.8456,2.8839,2.9382,2.9966,3.0476,3.0983,3.0893,3.0148,2.9244,2.8839,2.8873,2.8676,2.8279,2.7747,2.7441,2.727,2.6957,2.6683,2.6662,2.6697,2.634,2.5978,2.5549,2.5064,2.4484,2.3728,2.278,2.1966,-0.5498,-0.4704,-0.4361,-0.3661,-0.2744,-0.189,-0.1189,-0.0679,-0.0496,-0.0076,0.0439,0.0799,0.0988,0.108,0.1416,0.171,0.1961,0.2165,0.2376,0.2548,0.2636,0.2863,0.327,0.335,0.3588,0.3989,0.4312,0.4438,0.4494,0.482,0.5161,0.5521,0.5924,0.612,0.6067,0.6344,0.6508,0.6654,0.727,0.778,0.8175,0.8532,0.8748,0.8806,0.9176,0.9467,0.9681,1.0101,1.0431,1.0643,1.1128,1.1618,1.213,1.2429,1.3107,1.4085,1.4373,1.477,1.5463,1.6297,1.7094,1.782,1.8288,1.8901,1.9725,2.0525,2.1191,2.1668,2.1923,2.2361,2.3011,2.3369,2.3829,2.4563,2.4803,2.5097,2.5635,2.5824,2.6028,2.6322,2.6504,2.6586,2.6562,2.6754,2.6979,2.7112,2.7444,2.7833,2.8032,2.8245,2.8724,2.9371,3.0148,3.0205,2.9324,2.8315,2.7857,2.8019,2.7973,2.7656,2.7294,2.7215,2.7093,2.6563,2.6525,2.6518,2.6216,2.5872,2.545,2.496,2.4373,2.3692,2.2724,2.1681,2.0888,-0.6645,-0.599,-0.5395,-0.4482,-0.336,-0.2505,-0.1917,-0.1488,-0.0745,-0.0368,-0.0206,0.0228,0.0597,0.0809,0.0882,0.1017,0.1214,0.1213,0.1376,0.1563,0.1802,0.2061,0.2336,0.2579,0.281,0.3058,0.3463,0.3705,0.3748,0.4383,0.4997,0.5454,0.554,0.5729,0.599,0.6206,0.6447,0.6695,0.6808,0.721,0.7812,0.8071,0.8348,0.8704,0.9081,0.9412,0.9587,1.0189,1.0649,1.102,1.1255,1.1581,1.1982,1.2228,1.2672,1.3386,1.3984,1.4603,1.5218,1.6089,1.6724,1.7024,1.7813,1.8511,1.9065,1.9875,2.0671,2.119,2.1221,2.1545,2.2304,2.2741,2.3146,2.3616,2.4167,2.4565,2.4692,2.5079,2.5348,2.5314,2.5645,2.5815,2.5839,2.6008,2.6284,2.6486,2.6788,2.7017,2.7098,2.7312,2.7434,2.7775,2.8665,2.9082,2.829,2.7299,2.701,2.7095,2.7358,2.7211,2.6849,2.6776,2.6878,2.639,2.6129,2.6032,2.5675,2.5315,2.471,2.4097,2.3476,2.276,2.1632,2.0687,2.0075,-0.7489,-0.6875,-0.6342,-0.5355,-0.4089,-0.3321,-0.2621,-0.1948,-0.1461,-0.0938,-0.0422,-0.0157,0.0077,0.0325,0.0499,0.0593,0.0679,0.0849,0.094,0.0978,0.1097,0.131,0.1547,0.1654,0.1906,0.2257,0.2607,0.2854,0.3099,0.372,0.4281,0.478,0.5058,0.5374,0.5698,0.5941,0.618,0.6477,0.6483,0.6783,0.7281,0.7473,0.7699,0.7997,0.8369,0.8746,0.907,0.9544,1.0038,1.0584,1.0921,1.1362,1.1912,1.2062,1.2466,1.324,1.396,1.46,1.5161,1.5681,1.6204,1.6794,1.7325,1.7894,1.843,1.9046,1.9614,2.01,2.0511,2.1043,2.1678,2.2107,2.2478,2.288,2.329,2.3603,2.3811,2.4134,2.4455,2.4833,2.503,2.5118,2.5143,2.5274,2.5494,2.5771,2.6018,2.6225,2.6404,2.662,2.6774,2.6863,2.7366,2.7586,2.7338,2.7091,2.6833,2.6823,2.7028,2.6955,2.661,2.6447,2.645,2.6117,2.5855,2.5458,2.4931,2.4548,2.4047,2.3308,2.2413,2.1596,2.0601,2.0082,1.9793,-0.8222,-0.7769,-0.7145,-0.6067,-0.4702,-0.4089,-0.3368,-0.2534,-0.2037,-0.1363,-0.0672,-0.0484,-0.0238,0.0,0.0204,0.0277,0.0322,0.0495,0.0565,0.0509,0.0581,0.0727,0.0896,0.0987,0.1177,0.1534,0.1791,0.2116,0.2493,0.3012,0.3564,0.4076,0.452,0.4906,0.5279,0.5638,0.5941,0.6135,0.6285,0.655,0.6868,0.7011,0.7183,0.7458,0.7845,0.824,0.8587,0.898,0.9496,1.0161,1.0462,1.094,1.1576,1.1847,1.2312,1.3089,1.3769,1.4361,1.4871,1.5247,1.5755,1.6421,1.6809,1.7253,1.7724,1.8156,1.852,1.8893,1.9585,2.0221,2.102,2.1318,2.1628,2.2022,2.235,2.2652,2.2853,2.3154,2.3603,2.4149,2.4208,2.4307,2.4415,2.4563,2.4809,2.5079,2.524,2.5528,2.585,2.6104,2.6255,2.6364,2.6402,2.6487,2.6672,2.6718,2.6709,2.6651,2.6681,2.6669,2.6413,2.6219,2.5935,2.5594,2.5435,2.4955,2.4167,2.3692,2.3215,2.2364,2.1489,2.0709,2.0075,1.9786,1.962,-0.8852,-0.8685,-0.7781,-0.6614,-0.5346,-0.4733,-0.4117,-0.3437,-0.2351,-0.1608,-0.1203,-0.0656,-0.0244,0.0,0.0026,0.0,0.0,0.0,0.0,0.0,0.0302,0.0428,0.0453,0.0668,0.0809,0.0906,0.1081,0.151,0.2155,0.2453,0.2915,0.359,0.3836,0.4231,0.4754,0.5324,0.5706,0.5805,0.6257,0.6588,0.6639,0.6693,0.6926,0.7321,0.7762,0.8065,0.8311,0.8703,0.9213,0.9887,0.9933,1.0268,1.0912,1.1557,1.2165,1.272,1.3244,1.3733,1.4208,1.4904,1.5489,1.5777,1.6276,1.6732,1.7005,1.7293,1.7597,1.7866,1.8376,1.9074,2.0075,2.0408,2.0576,2.0963,2.1445,2.1725,2.1776,2.2249,2.2703,2.3079,2.3204,2.3279,2.3562,2.3935,2.4202,2.4443,2.4557,2.4821,2.5383,2.5569,2.5736,2.599,2.6069,2.609,2.627,2.649,2.6385,2.6222,2.6222,2.6222,2.6023,2.5766,2.5356,2.492,2.442,2.386,2.3259,2.2703,2.2165,2.1432,2.068,1.996,1.9758,1.9562,1.9446,-0.9176,-0.8829,-0.7907,-0.7182,-0.6593,-0.5629,-0.4835,-0.4089,-0.3082,-0.2235,-0.1585,-0.0973,-0.0551,-0.0244,-0.0081,0.0,0.0,0.0,0.0,0.0,0.0101,0.0151,0.0151,0.0251,0.04,0.0523,0.0613,0.0938,0.1465,0.1732,0.2133,0.268,0.3086,0.3563,0.4151,0.4587,0.5075,0.5672,0.5937,0.623,0.6668,0.6732,0.69,0.7167,0.7293,0.7522,0.7851,0.8139,0.8623,0.9245,0.941,0.989,1.0673,1.1353,1.188,1.231,1.2749,1.3277,1.39,1.4369,1.4856,1.5295,1.5617,1.5944,1.6234,1.6619,1.7044,1.749,1.7759,1.8265,1.8867,1.9519,1.9982,2.0166,2.0609,2.0925,2.0994,2.1267,2.1674,2.208,2.2207,2.2274,2.2426,2.2778,2.3276,2.3767,2.3998,2.4381,2.4963,2.5262,2.5413,2.5535,2.5631,2.5635,2.5458,2.6134,2.6375,2.596,2.5791,2.5685,2.5519,2.4844,2.4375,2.4133,2.3544,2.2849,2.2271,2.1617,2.111,2.0651,1.9873,1.9729,1.9555,1.9475,1.9424,-0.9413,-0.8935,-0.8251,-0.7741,-0.7316,-0.6244,-0.5414,-0.4773,-0.3754,-0.2845,-0.2077,-0.1458,-0.0891,-0.0441,-0.0193,-0.0082,0.0,0.0,0.0,0.0,0.0,0.0,0.0,0.0,0.0101,0.0277,0.0372,0.0585,0.0867,0.1124,0.1492,0.1988,0.2358,0.2898,0.3547,0.4019,0.4611,0.5221,0.5595,0.6028,0.6473,0.6704,0.6885,0.705,0.7104,0.7271,0.7545,0.7829,0.8176,0.8623,0.8927,0.9487,1.0342,1.0924,1.14,1.1778,1.2153,1.269,1.3421,1.379,1.4206,1.4663,1.5022,1.5255,1.5475,1.5991,1.6529,1.6927,1.7422,1.7747,1.8062,1.8684,1.916,1.929,1.968,1.9939,1.9998,2.0274,2.0686,2.108,2.1241,2.1267,2.1283,2.179,2.2366,2.3005,2.3324,2.3774,2.4492,2.4809,2.5004,2.512,2.5237,2.5037,2.4803,2.5086,2.5555,2.5285,2.4934,2.4905,2.4704,2.3972,2.3468,2.3215,2.2708,2.1979,2.1267,2.0608,2.0184,1.9873,1.9707,1.9562,1.9475,1.9424,1.9395,-0.958,-0.9192,-0.8861,-0.8278,-0.7585,-0.6637,-0.5938,-0.5402,-0.4251,-0.3363,-0.2702,-0.205,-0.1291,-0.0616,-0.0419,-0.025,0.0,0.0,0.0,0.0,0.0,0.0,0.0,0.0,0.0,0.0,0.0273,0.0393,0.0417,0.0653,0.1006,0.1432,0.1717,0.2259,0.2971,0.3621,0.4198,0.465,0.5326,0.5835,0.5959,0.6442,0.6805,0.6998,0.7213,0.7391,0.7492,0.7746,0.8014,0.8212,0.848,0.906,0.9852,1.0335,1.0721,1.1091,1.1423,1.1952,1.266,1.3164,1.353,1.3902,1.4346,1.4628,1.4809,1.5328,1.5837,1.6176,1.6921,1.7549,1.7575,1.7878,1.82,1.8403,1.8781,1.893,1.9016,1.9361,1.9802,2.0078,2.03,2.03,2.0351,2.0883,2.1601,2.2217,2.2588,2.3089,2.3901,2.4149,2.4366,2.4607,2.4584,2.4329,2.4092,2.3927,2.4261,2.4411,2.41,2.388,2.3636,2.3083,2.2518,2.2207,2.1695,2.0988,2.073,2.0126,1.996,1.9678,1.9533,1.9453,1.9424,1.9395,1.9395,-0.9734,-0.9573,-0.9271,-0.8831,-0.8269,-0.7514,-0.6742,-0.5893,-0.4817,-0.4022,-0.3285,-0.231,-0.1673,-0.1264,-0.0729,-0.0364,-0.0278,0.0,0.0,0.0,0.0,0.0,0.0,0.0,0.0,0.0,0.0075,0.0,0.0,0.0373,0.0592,0.0805,0.1314,0.1762,0.2198,0.2929,0.3594,0.4208,0.4684,0.5256,0.5886,0.6154,0.6435,0.6844,0.7127,0.7263,0.7316,0.7685,0.7915,0.7993,0.8253,0.8711,0.9307,0.975,0.9997,1.0144,1.0702,1.1395,1.2097,1.2391,1.2681,1.3093,1.3437,1.3771,1.4106,1.4534,1.5142,1.577,1.6575,1.6968,1.7028,1.7279,1.7622,1.8062,1.8344,1.8527,1.8546,1.8814,1.916,1.9446,1.9368,1.9492,2.0002,2.0506,2.0971,2.1821,2.2119,2.2532,2.3153,2.3329,2.3386,2.356,2.3512,2.342,2.3075,2.2793,2.2841,2.3038,2.2898,2.2813,2.2575,2.2243,2.1681,2.1196,2.0651,2.0306,2.0018,1.9815,1.9649,1.9562,1.9482,1.9424,1.9424,1.9395,1.9395,-0.9788,-0.9758,-0.9427,-0.9166,-0.8846,-0.8119,-0.7359,-0.6584,-0.5544,-0.4736,-0.3951,-0.3045,-0.23,-0.1817,-0.1189,-0.0761,-0.0393,-0.0224,-0.0111,0.0,0.0,0.0,0.0,0.0,0.0,0.0,0.0,0.0,0.0,0.0151,0.0301,0.0497,0.0868,0.1333,0.1707,0.2313,0.3017,0.372,0.4107,0.4668,0.5379,0.5633,0.5989,0.6548,0.6867,0.7058,0.7191,0.7492,0.7702,0.782,0.809,0.8431,0.8793,0.9164,0.9356,0.944,0.9941,1.0654,1.1321,1.1482,1.1731,1.2156,1.2566,1.2917,1.3339,1.3791,1.4682,1.5493,1.5859,1.6178,1.6391,1.6696,1.704,1.7457,1.7845,1.8108,1.8239,1.8351,1.8586,1.8843,1.8876,1.909,1.9395,1.9971,2.0339,2.1153,2.1453,2.167,2.2181,2.2312,2.2356,2.2356,2.232,2.215,2.193,2.1702,2.1474,2.156,2.161,2.1638,2.1581,2.1274,2.0823,2.0507,2.0046,1.988,1.962,1.9562,1.9453,1.9424,1.9395,1.9395,1.9395,1.9395,1.9395,-0.9788,-0.9761,-0.9457,-0.9302,-0.9171,-0.8379,-0.7887,-0.7469,-0.6446,-0.5469,-0.4753,-0.4008,-0.3156,-0.2222,-0.1866,-0.131,-0.0619,-0.0364,-0.0252,-0.0084,0.0,0.0,0.0,0.0,0.0,0.0,0.0,0.0,0.0,0.0,0.0126,0.0353,0.0453,0.0757,0.1381,0.1814,0.2385,0.3078,0.3586,0.4123,0.4687,0.505,0.5497,0.6174,0.6447,0.6728,0.7029,0.7214,0.7373,0.7617,0.799,0.8233,0.8348,0.8616,0.8814,0.88,0.9253,0.9797,1.0265,1.0645,1.0921,1.123,1.1835,1.2284,1.2476,1.3319,1.4222,1.4932,1.498,1.5143,1.5651,1.6025,1.6318,1.671,1.7292,1.7668,1.7911,1.7984,1.817,1.8368,1.8616,1.8849,1.8794,1.9403,1.9878,2.028,2.0643,2.0937,2.1123,2.1288,2.1203,2.1231,2.1324,2.1274,2.116,2.0931,2.073,2.0701,2.0701,2.0701,2.073,2.0479,2.0226,1.9902,1.97,1.9511,1.9395,1.9395,1.9395,1.9395,1.9395,1.9395,1.9395,1.9395,1.9395,-0.9788,-0.9788,-0.97,-0.9518,-0.9275,-0.9004,-0.8492,-0.7823,-0.7248,-0.6396,-0.5518,-0.4609,-0.392,-0.3249,-0.2313,-0.1721,-0.1341,-0.0733,-0.0392,-0.028,-0.0084,0.0,0.0,0.0,0.0,0.0,0.0,0.0,0.0,0.0,0.0,0.0101,0.0304,0.048,0.0783,0.1367,0.1868,0.2345,0.3041,0.3631,0.4152,0.4655,0.5075,0.5469,0.5894,0.628,0.6634,0.6986,0.7319,0.7602,0.7883,0.8069,0.8112,0.8333,0.8435,0.8386,0.8733,0.9154,0.9508,0.9925,1.0263,1.0561,1.1156,1.1639,1.1876,1.2564,1.3424,1.408,1.4083,1.3986,1.4557,1.5095,1.563,1.6344,1.6868,1.7305,1.7463,1.7776,1.7963,1.7894,1.8306,1.8676,1.9088,1.9346,1.9722,2.0117,2.0308,2.0407,2.0493,2.0522,2.0551,2.0522,2.0579,2.0529,2.0421,2.0184,2.004,1.9982,1.996,1.9938,1.9967,1.988,1.9713,1.9511,1.9533,1.9424,1.9395,1.9395,1.9395,1.9395,1.9395,1.9395,1.9395,1.9395,1.9395,-0.9788,-0.9788,-0.9788,-0.97,-0.9488,-0.9335,-0.9001,-0.8449,-0.7841,-0.72,-0.6358,-0.5443,-0.4674,-0.3982,-0.3122,-0.2395,-0.1857,-0.1142,-0.0709,-0.0396,-0.0141,0.0,0.0,0.0,0.0,0.0,0.0,0.0,0.0,0.0,0.0,0.0,0.0155,0.0284,0.0466,0.0827,0.1369,0.1859,0.2375,0.2882,0.3523,0.3953,0.4335,0.4675,0.514,0.5491,0.5917,0.6561,0.7126,0.7509,0.7743,0.7864,0.8013,0.8137,0.8162,0.8017,0.8467,0.884,0.9021,0.9395,0.9711,0.9953,1.0451,1.0852,1.1194,1.176,1.2581,1.32,1.2876,1.2935,1.345,1.4256,1.5009,1.5503,1.6203,1.6733,1.7094,1.7411,1.7739,1.7941,1.8294,1.8712,1.9312,1.9393,1.9557,1.979,1.9881,1.9902,1.9902,1.9931,1.996,2.0018,1.9989,1.9989,1.9967,1.9822,1.9758,1.9678,1.9649,1.9511,1.9511,1.954,1.9482,1.9424,1.9424,1.9395,1.9395,1.9395,1.9395,1.9395,1.9395,1.9395,1.9395,1.9395,1.9395,-0.9788,-0.9788,-0.9788,-0.9788,-0.9731,-0.9488,-0.9305,-0.9122,-0.8449,-0.7839,-0.7284,-0.6464,-0.5527,-0.4558,-0.4022,-0.3225,-0.2095,-0.1655,-0.1037,-0.0572,0.0,0.0,0.0,0.0,0.0,0.0,0.0,0.0,0.0,0.0,0.0,0.0,0.0,0.0133,0.0318,0.0425,0.0826,0.1353,0.1667,0.2104,0.2711,0.3119,0.3516,0.389,0.434,0.4692,0.5237,0.5962,0.6725,0.735,0.7516,0.7742,0.7947,0.8002,0.8049,0.813,0.8431,0.867,0.8746,0.9101,0.9302,0.9455,0.9789,1.0065,1.0485,1.1108,1.1715,1.2187,1.1782,1.1923,1.2532,1.3672,1.4369,1.4684,1.5255,1.6046,1.6731,1.7066,1.749,1.8242,1.8344,1.8715,1.905,1.9307,1.9265,1.9239,1.933,1.9439,1.9497,1.9562,1.9591,1.9591,1.954,1.9482,1.9482,1.9453,1.9482,1.9482,1.9482,1.9453,1.9453,1.9453,1.9424,1.9395,1.9395,1.9395,1.9395,1.9395,1.9395,1.9395,1.9395,1.9395,1.9395,1.9395,1.9395,-0.9788,-0.9788,-0.9788,-0.9788,-0.9788,-0.9731,-0.9545,-0.9275,-0.9092,-0.8513,-0.7811,-0.7261,-0.6484,-0.5544,-0.4727,-0.3847,-0.2965,-0.2184,-0.134,-0.0516,-0.017,0.0,0.0,0.0,0.0,0.0,0.0,0.0,0.0,0.0,0.0,0.0,0.0,0.0,0.0,0.0295,0.0453,0.072,0.1093,0.1492,0.1964,0.2436,0.2826,0.3176,0.3807,0.4232,0.4551,0.5275,0.5905,0.6362,0.7058,0.7583,0.7879,0.7977,0.8127,0.8365,0.8456,0.8565,0.8619,0.8964,0.9221,0.9239,0.954,0.9874,0.9952,1.0491,1.0884,1.1044,1.0994,1.1244,1.201,1.3115,1.3675,1.3925,1.4492,1.5237,1.596,1.6802,1.7391,1.7747,1.8106,1.8432,1.8583,1.859,1.8625,1.8655,1.88,1.8975,1.9091,1.9185,1.9243,1.9278,1.9301,1.9301,1.9395,1.9395,1.9395,1.9395,1.9395,1.9395,1.9395,1.9395,1.9395,1.9395,1.9395,1.9395,1.9395,1.9395,1.9395,1.9395,1.9395,1.9395,1.9395,1.9395,1.9395,-0.9788,-0.9788,-0.9788,-0.9788,-0.9788,-0.9788,-0.9697,-0.9518,-0.9366,-0.9031,-0.8513,-0.7933,-0.723,-0.6556,-0.5561,-0.469,-0.3702,-0.2519,-0.1412,-0.0635,-0.0285,-0.0141,0.0,0.0,0.0,0.0,0.0,0.0,0.0,0.0,0.0,0.0,0.0,0.0,0.0,0.0164,0.0273,0.0438,0.0655,0.0979,0.135,0.1725,0.2171,0.2508,0.309,0.3462,0.3645,0.4479,0.5029,0.5527,0.6253,0.7098,0.7704,0.7933,0.822,0.8588,0.8615,0.8594,0.8705,0.8858,0.9036,0.9056,0.9281,0.944,0.9541,0.9816,1.0005,1.0198,1.0343,1.0606,1.1447,1.2206,1.2762,1.3163,1.3674,1.4371,1.5053,1.601,1.6961,1.7287,1.7629,1.7571,1.7619,1.7678,1.8029,1.8117,1.8204,1.8379,1.8655,1.8771,1.8952,1.9039,1.9091,1.9178,1.9366,1.9395,1.9395,1.9395,1.9395,1.9395,1.9395,1.9395,1.9395,1.9395,1.9395,1.9395,1.9395,1.9395,1.9395,1.9395,1.9395,1.9395,1.9395,1.9395,1.9395,-0.9788,-0.9788,-0.9788,-0.9788,-0.9788,-0.9788,-0.9788,-0.9758,-0.9518,-0.9339,-0.9183,-0.8419,-0.7903,-0.7291,-0.6462,-0.5452,-0.411,-0.276,-0.1514,-0.0962,-0.0547,-0.0342,0.0,0.0,0.0,0.0,0.0,0.0,0.0,0.0,0.0,0.0,0.0,0.0,0.0,0.0,0.0112,0.0279,0.0362,0.0528,0.0798,0.107,0.1417,0.1839,0.2186,0.251,0.2841,0.3539,0.4219,0.4607,0.525,0.6135,0.7028,0.7721,0.8137,0.8665,0.8634,0.8642,0.8649,0.8794,0.8923,0.8909,0.8909,0.9023,0.9217,0.9189,0.9296,0.9518,0.9769,1.0092,1.0791,1.1439,1.1876,1.2261,1.2758,1.3391,1.403,1.4852,1.5737,1.6973,1.6921,1.6667,1.6591,1.6655,1.715,1.7555,1.7642,1.7789,1.8064,1.8327,1.8473,1.8655,1.8735,1.88,1.8981,1.9098,1.9127,1.9068,1.9162,1.9162,1.9162,1.9098,1.9068,1.9366,1.9395,1.9395,1.9395,1.9395,1.9395,1.9395,1.9395,1.9395,1.9395,1.9395,1.9395,-0.9788,-0.9788,-0.9788,-0.9788,-0.9788,-0.9788,-0.9788,-0.9788,-0.9731,-0.9552,-0.9275,-0.9092,-0.8543,-0.7811,-0.7105,-0.5755,-0.4144,-0.2797,-0.1956,-0.1514,-0.1023,-0.0546,-0.0372,0.0,0.0,0.0,0.0,0.0,0.0,0.0,0.0,0.0,0.0,0.0,0.0,0.0,0.0,0.0,0.0,0.0251,0.0446,0.0585,0.0779,0.1161,0.1409,0.1688,0.2051,0.2614,0.3208,0.3795,0.439,0.5049,0.5847,0.6741,0.7461,0.8045,0.8348,0.8451,0.8577,0.8741,0.8881,0.8909,0.8923,0.8923,0.8978,0.8944,0.9013,0.9154,0.9433,0.9752,1.0346,1.0867,1.1094,1.1429,1.1933,1.2525,1.2948,1.3484,1.4435,1.5865,1.5852,1.562,1.5442,1.5502,1.6059,1.6437,1.6644,1.6909,1.7267,1.7619,1.7906,1.8117,1.8292,1.8386,1.8509,1.8655,1.8713,1.8538,1.8538,1.8567,1.8567,1.8538,1.8661,1.8981,1.9278,1.9336,1.9366,1.9395,1.9395,1.9395,1.9395,1.9395,1.9395,1.9395,1.9395,-0.9724,-0.9788,-0.9788,-0.9788,-0.9788,-0.9788,-0.9788,-0.9788,-0.9788,-0.9727,-0.9545,-0.9366,-0.9004,-0.8363,-0.7717,-0.6305,-0.4576,-0.3461,-0.2643,-0.2046,-0.1514,-0.0938,-0.0612,-0.0317,0.0,0.0,0.0,0.0,0.0,0.0,0.0,0.0,0.0,0.0,0.0,0.0,0.0,0.0,0.0,0.0,0.0,0.0,0.0364,0.0589,0.0757,0.0981,0.1374,0.1906,0.241,0.2886,0.3446,0.4147,0.4845,0.5519,0.6353,0.7332,0.7854,0.8211,0.8432,0.8654,0.874,0.8895,0.8973,0.9045,0.9025,0.9001,0.899,0.9195,0.9418,0.9752,1.0156,1.0432,1.0614,1.0909,1.1286,1.1623,1.1937,1.2118,1.3191,1.4446,1.4451,1.4217,1.3953,1.4222,1.4878,1.5294,1.5585,1.597,1.6408,1.6732,1.705,1.7496,1.7678,1.783,1.7801,1.7743,1.7918,1.786,1.7837,1.786,1.8006,1.7971,1.8269,1.8655,1.8917,1.9039,1.9366,1.9395,1.9395,1.9395,1.9395,1.9395,1.9395,1.9395,1.9395,-0.966,-0.9788,-0.9788,-0.9788,-0.9788,-0.9788,-0.9788,-0.9788,-0.9788,-0.9788,-0.9758,-0.9518,-0.9278,-0.8821,-0.8025,-0.6768,-0.508,-0.431,-0.3396,-0.2612,-0.205,-0.1495,-0.098,-0.0531,-0.0352,0.0,0.0,0.0,0.0,0.0,0.0,0.0,0.0,0.0,0.0,0.0,0.0,0.0,0.0,0.0,0.0,0.0,0.0084,0.0308,0.0336,0.0476,0.0841,0.1234,0.166,0.2058,0.2566,0.3236,0.3985,0.4256,0.503,0.6292,0.7022,0.7702,0.8088,0.8428,0.8571,0.8879,0.903,0.9128,0.9213,0.9154,0.9167,0.9442,0.9642,0.9818,0.9991,1.004,1.0217,1.0465,1.0657,1.0819,1.1057,1.1329,1.1635,1.2475,1.284,1.2964,1.2754,1.3084,1.3739,1.4217,1.4515,1.4937,1.5318,1.5639,1.6018,1.6673,1.7032,1.7185,1.7067,1.6631,1.6773,1.6891,1.6891,1.695,1.7179,1.7373,1.7701,1.7971,1.8298,1.848,1.8923,1.933,1.9301,1.9307,1.9366,1.9395,1.9395,1.9395,1.9395,-0.966,-0.9788,-0.9788,-0.9788,-0.9788,-0.9788,-0.9788,-0.9788,-0.9788,-0.9788,-0.9788,-0.9727,-0.9518,-0.9031,-0.7994,-0.6865,-0.5822,-0.4867,-0.4154,-0.349,-0.2642,-0.2084,-0.1652,-0.0829,-0.0593,-0.0355,-0.0118,0.0,0.0,0.0,0.0,0.0,0.0,0.0,0.0,0.0,0.0,0.0,0.0,0.0,0.0,0.0,0.0,0.0,0.0,0.0197,0.0451,0.0678,0.0935,0.1403,0.1748,0.2276,0.2883,0.3494,0.3795,0.464,0.5661,0.701,0.7434,0.7913,0.835,0.8676,0.89,0.9061,0.9277,0.9407,0.9445,0.973,0.9812,0.9808,0.9869,0.9845,0.9896,1.0021,1.0247,1.0334,1.0486,1.0634,1.0936,1.1031,1.1571,1.176,1.1734,1.2182,1.2629,1.305,1.3499,1.3893,1.4316,1.4664,1.4957,1.555,1.6029,1.6242,1.5852,1.5472,1.5531,1.5739,1.5857,1.5946,1.6201,1.6461,1.6726,1.7026,1.7414,1.7977,1.8509,1.8858,1.9068,1.9214,1.9301,1.9366,1.9395,1.9395,1.9395,-0.9615,-0.9788,-0.9788,-0.9788,-0.9788,-0.9788,-0.9788,-0.9788,-0.9788,-0.9788,-0.9788,-0.9788,-0.9609,-0.9122,-0.8147,-0.7355,-0.662,-0.57,-0.496,-0.4404,-0.3518,-0.2808,-0.2227,-0.1639,-0.1179,-0.0572,-0.036,0.0,0.0,0.0,0.0,0.0,0.0,0.0,0.0,0.0,0.0,0.0,0.0,0.0,0.0,0.0,0.0,0.0,0.0,0.0,0.0173,0.0346,0.0491,0.0845,0.1107,0.1599,0.2114,0.2518,0.2813,0.3468,0.4516,0.5701,0.6707,0.7411,0.7916,0.8396,0.8727,0.9186,0.9479,0.9629,0.9652,0.9768,0.9788,0.9788,0.9788,0.9788,0.9788,0.9852,0.9974,1.0004,1.0061,1.0092,1.0243,1.0243,1.0304,1.0641,1.0978,1.1367,1.1756,1.2088,1.2505,1.293,1.3384,1.3833,1.4102,1.4401,1.4818,1.5151,1.4575,1.4068,1.4157,1.4336,1.452,1.4729,1.511,1.5397,1.5693,1.6083,1.6561,1.7209,1.7948,1.8509,1.8829,1.9062,1.9272,1.9307,1.9366,1.9395,1.9395,-0.9588,-0.9785,-0.9788,-0.9788,-0.9788,-0.9788,-0.9788,-0.9788,-0.9788,-0.9788,-0.9788,-0.9792,-0.9609,-0.9247,-0.8604,-0.7994,-0.7449,-0.6653,-0.5853,-0.5143,-0.4435,-0.3662,-0.2952,-0.2369,-0.1662,-0.0864,-0.0579,-0.0394,-0.0212,0.0,0.0,0.0,0.0,0.0,0.0,0.0,0.0,0.0,0.0,0.0,0.0,0.0,0.0,0.0,0.0,0.0,0.0,0.0147,0.0294,0.0385,0.0652,0.1038,0.1341,0.1705,0.2142,0.2746,0.3604,0.4497,0.5619,0.653,0.7287,0.7944,0.8586,0.9213,0.9677,0.9788,0.9788,0.9788,0.9788,0.9788,0.9788,0.9788,0.9788,0.9788,0.9822,0.9788,0.9819,0.991,0.994,0.997,1.0001,0.994,1.0274,1.0607,1.094,1.1182,1.1545,1.1963,1.2419,1.2934,1.3084,1.329,1.3654,1.3893,1.335,1.29,1.293,1.3054,1.3234,1.3564,1.4038,1.4361,1.4629,1.5075,1.5645,1.6212,1.6832,1.7766,1.8648,1.8881,1.912,1.9272,1.9336,1.9366,1.9395,-0.9653,-0.9788,-0.9788,-0.9788,-0.9788,-0.9788,-0.9788,-0.9788,-0.9788,-0.9788,-0.9788,-0.9792,-0.9609,-0.9339,-0.9122,-0.8635,-0.7872,-0.7477,-0.674,-0.5943,-0.5143,-0.4496,-0.3789,-0.3052,-0.2313,-0.1727,-0.1136,-0.0676,-0.04,0.0,0.0,0.0,0.0,0.0,0.0,0.0,0.0,0.0,0.0,0.0,0.0,0.0,0.0,0.0,0.0,0.0,0.0,0.0,0.0,0.0,0.0361,0.0423,0.0578,0.1068,0.1627,0.2056,0.2701,0.3505,0.432,0.5561,0.6779,0.7683,0.845,0.9027,0.9478,0.9727,0.9788,0.9761,0.9761,0.9788,0.9788,0.9788,0.9788,0.9788,0.9788,0.9788,0.9788,0.9788,0.9849,0.9819,0.9788,0.9788,0.9788,1.0183,1.0391,1.0668,1.088,1.1299,1.1514,1.1937,1.1967,1.2178,1.2509,1.2539,1.2057,1.1846,1.1722,1.1997,1.2298,1.2664,1.311,1.335,1.3555,1.4157,1.4724,1.5205,1.5804,1.6744,1.7649,1.8525,1.8962,1.9033,1.922,1.9336,1.9395,-0.966,-0.9788,-0.9788,-0.9788,-0.9788,-0.9788,-0.9788,-0.9788,-0.9788,-0.9788,-0.9788,-0.9788,-0.9731,-0.9579,-0.9366,-0.9153,-0.8665,-0.7994,-0.7505,-0.6954,-0.6248,-0.5481,-0.4744,-0.4006,-0.3237,-0.2405,-0.1666,-0.0987,-0.0494,-0.037,-0.0185,0.0,0.0,0.0,0.0,0.0,0.0,0.0,0.0,0.0,0.0,0.0,0.0,0.0,0.0,0.0,0.0,0.0,0.0,0.0,0.0,0.0,0.0,0.0648,0.0987,0.1327,0.1975,0.256,0.3236,0.45,0.5939,0.7111,0.7867,0.8482,0.8994,0.9393,0.9579,0.964,0.97,0.9788,0.9788,0.9788,0.9788,0.9788,0.9788,0.9788,0.9788,0.9788,0.9788,0.9788,0.9788,0.9788,0.9788,0.9849,0.997,1.0122,1.0365,1.0607,1.0849,1.1031,1.1122,1.1182,1.1514,1.1605,1.1212,1.0849,1.0547,1.097,1.1394,1.1786,1.2178,1.2298,1.2565,1.317,1.3833,1.4431,1.5086,1.5828,1.6744,1.7824,1.8444,1.8735,1.8952,1.9278,1.9366,-0.973,-0.9788,-0.9788,-0.9788,-0.9788,-0.9788,-0.9788,-0.9788,-0.9788,-0.9788,-0.9788,-0.9788,-0.9788,-0.9727,-0.9579,-0.9366,-0.9122,-0.8632,-0.8266,-0.7778,-0.7169,-0.6493,-0.5788,-0.4991,-0.4098,-0.3113,-0.2343,-0.1666,-0.108,-0.0771,-0.0493,-0.0247,0.0,0.0,0.0,0.0,0.0,0.0,0.0,0.0,0.0,0.0,0.0,0.0,0.0,0.0,0.0,0.0,0.0,0.0,0.0,0.0,0.0,0.0216,0.0,0.0833,0.1203,0.1727,0.2496,0.388,0.5293,0.6307,0.7044,0.7625,0.8266,0.8876,0.897,0.9278,0.9518,0.9758,0.9697,0.97,0.9792,0.9788,0.9788,0.9788,0.9788,0.9788,0.9788,0.9788,0.9788,0.9788,0.9788,0.9788,0.9849,0.994,1.0031,1.0213,1.0304,1.0429,1.0459,1.0486,1.0577,1.0577,1.0486,1.0334,1.0243,1.0516,1.088,1.0967,1.1239,1.139,1.1756,1.2389,1.305,1.3679,1.4396,1.5175,1.6212,1.7338,1.7977,1.8677,1.8881,1.9178,1.9336,-0.9781,-0.9788,-0.9788,-0.9788,-0.9788,-0.9788,-0.9788,-0.9788,-0.9788,-0.9788,-0.9788,-0.9788,-0.9788,-0.9788,-0.9731,-0.9579,-0.94,-0.9183,-0.8909,-0.8388,-0.7933,-0.7408,-0.6707,-0.5849,-0.496,-0.4192,-0.3237,-0.2405,-0.185,-0.1326,-0.0895,-0.0494,-0.034,0.0,0.0,0.0,0.0,0.0,0.0,0.0,0.0,0.0,0.0,0.0,0.0,0.0,0.0,0.0,0.0,0.0,0.0,0.0,0.0,0.0,0.0,0.0618,0.0587,0.0926,0.1603,0.3665,0.4742,0.5387,0.6062,0.6738,0.7564,0.8055,0.836,0.876,0.9214,0.9454,0.9518,0.9582,0.967,0.9731,0.9731,0.9788,0.9788,0.9788,0.9788,0.9788,0.9788,0.9788,0.9788,0.9788,0.9788,0.9819,0.9819,0.9852,0.9943,1.0004,1.0065,1.0095,1.0122,1.0122,1.0122,0.997,0.994,1.0186,1.0365,1.0456,1.0604,1.0846,1.1243,1.1726,1.2298,1.2955,1.3739,1.455,1.5793,1.7067,1.8123,1.8794,1.8939,1.9113,1.9301,-0.9788,-0.9788,-0.9788,-0.9788,-0.9788,-0.9788,-0.9788,-0.9788,-0.9788,-0.9788,-0.9788,-0.9788,-0.9788,-0.9788,-0.9788,-0.9731,-0.9609,-0.9335,-0.9089,-0.8967,-0.8485,-0.8025,-0.738,-0.6587,-0.5728,-0.493,-0.3944,-0.299,-0.2312,-0.182,-0.1173,-0.071,-0.0371,-0.0124,0.0,0.0,0.0,0.0,0.0,0.0,0.0,0.0,0.0,0.0,0.0,0.0,0.0,0.0,0.0,0.0,0.0,0.0,0.0,0.0,0.0,0.0,0.0,0.0494,0.1172,0.2436,0.3358,0.4189,0.5049,0.5757,0.6464,0.7472,0.7933,0.8177,0.8449,0.8662,0.8973,0.9278,0.9427,0.9518,0.9579,0.9731,0.9788,0.9788,0.9788,0.9788,0.9788,0.9788,0.9788,0.9788,0.9788,0.9788,0.9788,0.9788,0.9883,0.9852,0.9883,0.9883,0.9879,0.9849,0.9788,0.9788,0.9788,0.9974,1.0004,1.0001,1.0152,1.0365,1.0698,1.1152,1.1692,1.2234,1.338,1.4515,1.5674,1.682,1.7912,1.8561,1.8677,1.8975,1.9366,-0.9788,-0.9788,-0.9788,-0.9788,-0.9788,-0.9788,-0.9788,-0.9788,-0.9788,-0.9788,-0.9788,-0.9788,-0.9788,-0.9788,-0.9788,-0.9788,-0.9788,-0.9606,-0.9488,-0.9396,-0.8973,-0.8577,-0.8025,-0.7322,-0.6523,-0.5696,-0.4744,-0.3789,-0.3021,-0.2436,-0.1666,-0.0864,-0.034,-0.0185,0.0,0.0,0.0,0.0,0.0,0.0,0.0,0.0,0.0,0.0,0.0,0.0,0.0,0.0,0.0,0.0,0.0,0.0,0.0,0.0,0.0,0.0,0.0,0.0,0.0864,0.1142,0.2097,0.2897,0.3851,0.4744,0.5515,0.6495,0.7046,0.7322,0.7444,0.7903,0.8394,0.8757,0.9001,0.9092,0.9366,0.9518,0.967,0.964,0.9788,0.9788,0.9788,0.9788,0.9788,0.9788,0.9788,0.9788,0.9788,0.9788,0.9788,0.9788,0.9788,0.9788,0.9788,0.9788,0.9788,0.9788,0.9788,0.9788,0.9788,0.9788,0.9849,1.0092,1.0334,1.0577,1.1148,1.1933,1.3315,1.4545,1.5674,1.6679,1.7684,1.8152,1.8334,1.8836,1.9366,-0.9788,-0.9788,-0.9788,-0.9788,-0.9788,-0.9788,-0.9788,-0.9788,-0.9788,-0.9788,-0.9788,-0.9788,-0.9788,-0.9788,-0.9788,-0.9788,-0.9788,-0.9758,-0.9761,-0.967,-0.9305,-0.9034,-0.8638,-0.8058,-0.7169,-0.6309,-0.5419,-0.4529,-0.3821,-0.2744,-0.182,-0.108,-0.0587,-0.0278,0.0,0.0,0.0,0.0,0.0,0.0,0.0,0.0,0.0,0.0,0.0,0.0,0.0,0.0,0.0,0.0,0.0,0.0,0.0,0.0,0.0,0.0,0.0,0.0,0.0432,0.0617,0.0926,0.1788,0.2683,0.3729,0.4651,0.5391,0.5912,0.628,0.6526,0.7138,0.7689,0.8055,0.8419,0.8696,0.9031,0.9214,0.9366,0.9518,0.9697,0.9788,0.9788,0.9788,0.9788,0.9788,0.9788,0.9788,0.9788,0.9788,0.9788,0.9788,0.9788,0.9788,0.9788,0.9788,0.9788,0.9788,0.9788,0.9788,0.9788,0.9788,0.9822,0.9852,1.0122,1.0425,1.0728,1.1661,1.326,1.455,1.5626,1.6596,1.7508,1.8064,1.8363,1.8923,1.9395,-0.9788,-0.9788,-0.9788,-0.9788,-0.9788,-0.9788,-0.9788,-0.9788,-0.9788,-0.9788,-0.9788,-0.9788,-0.9788,-0.9788,-0.9788,-0.9788,-0.9788,-0.9788,-0.9788,-0.967,-0.9488,-0.9156,-0.876,-0.8238,-0.7475,-0.6742,-0.5945,-0.5083,-0.4069,-0.2959,-0.1851,-0.105,-0.071,-0.0371,0.0,0.0,0.0,0.0,0.0,0.0,0.0,0.0,0.0,0.0,0.0,0.0,0.0,0.0,0.0,0.0,0.0,0.0,0.0,0.0,0.0,0.0,0.0,0.0093,0.0,0.0371,0.0587,0.0802,0.1481,0.2313,0.3268,0.407,0.4685,0.5176,0.5515,0.6035,0.6679,0.7166,0.7594,0.7991,0.8421,0.8815,0.9001,0.9335,0.9515,0.9788,0.9788,0.9788,0.9788,0.9788,0.9788,0.9788,0.9788,0.9788,0.9788,0.9788,0.9788,0.9788,0.9788,0.9788,0.9788,0.9788,0.9788,0.9788,0.9788,0.9788,0.9788,0.9879,1.0001,1.0365,1.0876,1.1963,1.3384,1.452,1.5442,1.6414,1.7297,1.786,1.8421,1.8981,1.9395,-0.9788,-0.9788,-0.9788,-0.9788,-0.9788,-0.9788,-0.9788,-0.9788,-0.9788,-0.9788,-0.9788,-0.9788,-0.9788,-0.9788,-0.9788,-0.9788,-0.9788,-0.9788,-0.9788,-0.9731,-0.9579,-0.9247,-0.8851,-0.8424,-0.7783,-0.7051,-0.6315,-0.5546,-0.4407,-0.3176,-0.2036,-0.105,-0.0772,-0.0432,0.0,0.0,0.0,0.0,0.0,0.0,0.0,0.0,0.0,0.0,0.0,0.0,0.0,0.0,0.0,0.0,0.0,0.0,0.0,0.0,0.0,0.0,0.0,0.0,0.0,0.0,0.0278,0.0371,0.0618,0.1173,0.1882,0.2685,0.3485,0.4162,0.4472,0.4841,0.5544,0.6217,0.6738,0.7227,0.7778,0.8327,0.8693,0.9062,0.9396,0.9697,0.9788,0.9788,0.9788,0.9788,0.9788,0.9788,0.9788,0.9788,0.9788,0.9788,0.9788,0.9788,0.9788,0.9788,0.9788,0.9788,0.9788,0.9788,0.9788,0.9788,0.9788,0.9879,1.0031,1.0543,1.1178,1.2264,1.3294,1.4217,1.5165,1.6142,1.712,1.7824,1.8421,1.8952,1.9278,-0.9788,-0.9788,-0.9788,-0.9788,-0.9788,-0.9788,-0.9788,-0.9788,-0.9788,-0.9788,-0.9788,-0.9788,-0.9788,-0.9788,-0.9788,-0.9788,-0.9788,-0.9788,-0.9788,-0.9788,-0.9761,-0.946,-0.9037,-0.8796,-0.8,-0.7174,-0.6377,-0.5638,-0.4624,-0.3361,-0.2098,-0.1081,-0.0896,-0.0556,0.0,0.0,0.0,0.0,0.0,0.0,0.0,0.0,0.0,0.0,0.0,0.0,0.0,0.0,0.0,0.0,0.0,0.0,0.0,0.0,0.0,0.0,0.0,0.0,0.0,0.0,0.0,0.0,0.0309,0.0587,0.1142,0.1914,0.2808,0.3177,0.3485,0.3947,0.4622,0.5174,0.5696,0.6278,0.686,0.7503,0.8083,0.8662,0.9363,0.9667,0.9788,0.9788,0.9788,0.9788,0.9788,0.9788,0.9788,0.9788,0.9788,0.9788,0.9788,0.9788,0.9788,0.9788,0.9788,0.9788,0.9788,0.9788,0.9788,0.9788,0.9788,0.991,1.0061,1.0604,1.1209,1.2023,1.299,1.3948,1.4932,1.5965,1.6915,1.7766,1.8415,1.8923,1.922,-0.9788,-0.9788,-0.9788,-0.9788,-0.9788,-0.9788,-0.9788,-0.9788,-0.9788,-0.9788,-0.9788,-0.9788,-0.9788,-0.9788,-0.9788,-0.9788,-0.9788,-0.9788,-0.9788,-0.9788,-0.9788,-0.946,-0.9007,-0.8857,-0.8091,-0.7174,-0.6346,-0.5452,-0.4101,-0.3023,-0.2129,-0.1081,-0.0803,-0.0401,0.0,0.0,0.0,0.0,0.0,0.0,0.0,0.0,0.0,0.0,0.0,0.0,0.0,0.0,0.0,0.0,0.0,0.0,0.0,0.0,0.0,0.0,0.0,0.0,0.0,0.0,0.0,0.0,0.0,0.0,0.0741,0.1514,0.2038,0.2284,0.2591,0.3114,0.3638,0.4161,0.4684,0.5329,0.6035,0.674,0.7444,0.8388,0.9271,0.9576,0.9758,0.9788,0.9788,0.9788,0.9788,0.9788,0.9788,0.9788,0.9788,0.9788,0.9788,0.9788,0.9788,0.9788,0.9788,0.9788,0.9788,0.9788,0.9788,0.9788,0.9788,0.9879,1.0001,1.0577,1.1209,1.1907,1.2689,1.3688,1.4699,1.5763,1.6708,1.7531,1.824,1.8771,1.9098,-0.9788,-0.9788,-0.9788,-0.9788,-0.9788,-0.9788,-0.9788,-0.9788,-0.9788,-0.9788,-0.9788,-0.9788,-0.9788,-0.9788,-0.9788,-0.9788,-0.9788,-0.9788,-0.9788,-0.9788,-0.9731,-0.94,-0.9129,-0.8885,-0.7969,-0.7084,-0.6039,-0.4901,-0.3608,-0.2807,-0.2036,-0.1112,-0.0679,0.0,0.0,0.0,0.0,0.0,0.0,0.0,0.0,0.0,0.0,0.0,0.0,0.0,0.0,0.0,0.0,0.0,0.0,0.0,0.0,0.0,0.0,0.0,0.0,0.0,0.0,0.0,0.0,0.0,0.0,0.0,0.0,0.0896,0.1266,0.1513,0.1605,0.2067,0.2715,0.3269,0.3884,0.4498,0.5419,0.628,0.7258,0.8297,0.9119,0.9697,0.9788,0.9788,0.9788,0.9788,0.9788,0.9788,0.9788,0.9788,0.9788,0.9788,0.9788,0.9788,0.9788,0.9788,0.9788,0.9788,0.9788,0.9788,0.9788,0.9788,0.9788,0.9822,1.0001,1.0486,1.0997,1.1545,1.2389,1.3359,1.4466,1.5561,1.6443,1.7326,1.7971,1.8619,1.8981,-0.9788,-0.9788,-0.9788,-0.9788,-0.9788,-0.9788,-0.9788,-0.9788,-0.9788,-0.9788,-0.9788,-0.9788,-0.9788,-0.9788,-0.9788,-0.9788,-0.9788,-0.9788,-0.9788,-0.9788,-0.9788,-0.9457,-0.9156,-0.8854,-0.7939,-0.6806,-0.564,-0.4624,-0.3486,-0.2746,-0.1913,-0.1111,-0.0649,0.0,0.0,0.0,0.0,0.0,0.0,0.0,0.0,0.0,0.0,0.0,0.0,0.0,0.0,0.0,0.0,0.0,0.0,0.0,0.0,0.0,0.0,0.0,0.0,0.0,0.0,0.0,0.0,0.0,0.0,0.0,0.0,0.0,0.0,0.0,0.0,0.1173,0.1821,0.2468,0.3083,0.376,0.4774,0.5882,0.7013,0.8083,0.8845,0.9545,0.967,0.967,0.9788,0.9788,0.9788,0.9788,0.9788,0.9788,0.9788,0.9788,0.9788,0.9788,0.9788,0.9788,0.9788,0.9788,0.9788,0.9788,0.9788,0.9788,0.9788,0.9822,0.994,1.0274,1.0789,1.1333,1.2057,1.2964,1.4102,1.5264,1.6089,1.6938,1.7883,1.8502,1.8917,-0.9788,-0.9788,-0.9788,-0.9788,-0.9788,-0.9788,-0.9788,-0.9788,-0.9788,-0.9788,-0.9788,-0.9788,-0.9788,-0.9788,-0.9788,-0.9788,-0.9788,-0.9788,-0.9788,-0.9788,-0.9788,-0.9548,-0.9217,-0.879,-0.7875,-0.6681,-0.5456,-0.4441,-0.3516,-0.259,-0.1759,-0.1019,-0.0371,0.0,0.0,0.0,0.0,0.0,0.0,0.0,0.0,0.0,0.0,0.0,0.0,0.0,0.0,0.0,0.0,0.0,0.0,0.0,0.0,0.0,0.0,0.0,0.0,0.0,0.0,0.0,0.0,0.0,0.0,0.0,0.0,0.0,0.0,0.0,0.0,0.0,0.108,0.1727,0.2374,0.3081,0.3943,0.5266,0.6495,0.7475,0.833,0.8879,0.9275,0.9488,0.9788,0.9788,0.9788,0.9788,0.9788,0.9788,0.9788,0.9788,0.9788,0.9788,0.9788,0.9788,0.9788,0.9788,0.9788,0.9788,0.9788,0.9788,0.9788,0.9788,0.997,1.0152,1.0577,1.1122,1.1877,1.2664,1.3679,1.4783,1.5615,1.6526,1.7525,1.8401,1.8862]},{"header":{"parameterUnit":"m.s-1","parameterCategory":1,"la1":31.0,"la2":29.5877,"lo1":-88.7671,"lo2":-86.6584,"dy":0.0162,"dx":0.0185,"nx":115,"ny":88,"refTime":"2024-08-24T06:00:00:Z","depth":0,"parameterNumber":3,"parameterNumberName":"V-component_of_WINDS"},"data":[0.0,0.0,0.0,0.0,0.0,0.0,0.0,0.0,0.0,0.0,0.0,0.0,0.0,0.0,0.0,0.0,0.0,0.0,0.0,0.0,0.0,0.0,0.0,0.0,0.0,0.0,0.0,0.0,0.0,0.0,0.0,0.0,0.0,0.0,0.0,0.0,0.0,0.0,0.0,0.0,0.0,0.0,0.0,0.0,0.0,0.0,0.0,0.0,0.0,0.0,0.0,0.0,0.0,0.0,0.0,0.0,0.0,0.0,0.0,0.0,0.0,0.0,0.0,0.0,0.0,0.0,0.0,0.0,0.0,0.0,0.0,0.0,0.0,0.0,0.0,0.0,0.0,0.0,0.0,0.0,0.0,0.0,0.0,0.0,0.0,0.0,0.0,0.0,0.0,0.0,0.0,0.0,0.0,0.0,0.0,0.0,0.0,0.0,0.0,0.0,0.0,0.0,0.0,0.0,0.0,0.0,0.0,0.0,0.0,0.0,0.0,0.0,0.0,0.0,0.0,0.0,0.0,0.0,0.0,0.0,0.0,0.0,0.0,0.0,0.0,0.0,0.0,0.0,0.0,0.0,0.0,0.0,0.0,0.0,0.0,0.0,0.0,0.0,0.0,0.0,0.0,0.0,0.0,0.0,0.0,0.0,0.0,0.0,0.0,0.0,0.0,0.0,0.0,0.0,0.0,0.0,0.0,0.0,0.0,0.0,0.0,0.0,0.0,0.0,0.0,0.0,0.0,0.0,0.0,0.0,0.0,0.0,0.0,0.0,0.0,0.0,0.0,0.0,0.0,0.0,0.0,0.0,0.0,0.0,0.0,0.0,0.0,0.0,0.0,0.0,0.0,0.0,0.0,0.0,0.0,0.0,0.0,0.0,0.0,0.0,0.0,0.0,0.0,0.0,0.0,0.0,0.0,0.0,0.0,0.0,0.0,0.0,0.0,0.0,0.0,0.0,0.0,0.0,0.0,0.0,0.0,0.0,0.0,0.0,0.0,0.0,0.0,0.0,0.0,0.0,0.0,0.0,0.0,0.0,0.0,0.0,0.0,0.0,0.0,0.0,0.0,0.0,0.0,0.0,0.0,0.0,0.0,0.0,0.0,0.0,0.0,0.0,0.0,0.0,0.0,0.0,0.0,0.0,0.0,0.0,0.0,0.0,0.0,0.0,0.0,0.0,0.0,0.0,0.0,0.0,0.0,0.0,0.0,0.0,0.0,0.0,0.0,0.0,0.0,0.0,0.0,0.0,0.0,0.0,0.0,0.0,0.0,0.0,0.0,0.0,0.0,0.0,0.0,0.0,0.0,0.0,0.0,0.0,0.0,0.0,0.0,0.0,0.0,0.0,0.0,0.0,0.0,0.0,0.0,0.0,0.0,0.0,0.0,0.0,0.0,0.0,0.0,0.0,0.0,0.0,0.0,0.0,0.0,0.0,0.0,0.0,0.0,0.0,0.0,0.0,0.0,0.0,0.0,0.0,0.0,0.0,0.0,0.0,0.0,0.0,0.0,0.0,0.0,0.0,0.0,0.0,0.0,0.0,0.0,0.0,0.0,0.0,0.0,0.0,0.0,0.0,0.0,0.0,0.0,0.0,0.0,0.0,0.0,0.0,0.0,0.0,0.0,0.0,0.0,0.0,0.0,0.0,0.0,0.0,0.0,0.0,0.0,0.0,0.0,0.0,0.0,0.0,0.0,0.0,0.0,0.0,0.0,0.0,0.0,0.0,0.0,0.0,0.0,0.0,0.0,0.0,0.0,0.0,0.0,0.0,0.0,0.0,0.0,0.0,0.0,0.0,0.0,0.0,0.0,0.0,0.0,0.0,0.0,0.0,0.0,0.0,0.0,0.0,0.0,0.0,0.0,0.0,0.0,0.0,0.0,0.0,0.0,0.0,0.0,0.0,0.0,0.0,0.0,0.0,0.0,0.0,0.0,0.0,0.0,0.0,0.0,0.0,0.0,0.0,0.0,0.0,0.0,0.0,0.0,0.0,0.0,0.0,0.0,0.0,0.0,0.0,0.0,0.0,0.0,0.0,0.0,0.0,0.0,0.0,0.0,0.0,0.0,0.0,0.0,0.0,0.0,0.0,0.0,0.0,0.0,0.0,0.0,0.0,0.0,0.0,0.0,0.0,0.0,0.0,0.0,0.0,0.0,0.0,0.0,0.0,0.0,0.0,0.0,0.0,0.0,0.0,0.0,0.0,0.0,0.0,0.0,0.0,0.0,0.0,0.0,0.0,0.0,0.0,0.0,0.0,0.0,0.0,0.0,0.0,0.0,0.0,0.0,0.0,0.0,0.0,0.0,0.0,0.0,0.0,0.0,0.0,0.0,0.0,0.0,0.0,0.0,0.0,0.0,0.0,0.0,0.0,0.0,0.0,0.0,0.0,0.0,0.0,0.0,0.0,0.0,0.0,0.0,0.0,0.0,0.0,0.0,0.0,0.0,0.0,0.0,0.0,0.0,0.0,0.0,0.0,0.0,0.0,0.0,0.0,0.0,0.0,0.0,0.0,0.0,0.0,0.0,0.0,0.0,0.0,0.0,0.0,0.0,0.0,0.0,0.0,0.0,0.0,0.0,0.0,0.0,0.0,0.0,0.0,0.0,0.0,0.0,0.0,0.0,0.0,0.0,0.0,0.0,0.0,0.0,0.0,0.0,0.0,0.0,0.0,0.0,0.0,0.0,0.0,0.0,0.0,0.0,0.0,0.0,0.0,0.0,0.0,0.0,0.0,0.0,0.0,0.0,0.0,0.0,0.0,0.0,0.0,0.0,0.0,0.0,0.0,0.0,0.0,0.0,0.0,0.0,0.0,0.0,0.0,0.0,0.0,0.0,0.0,0.0,0.0,0.0,0.0,0.0,0.0,0.0,0.0,0.0,0.0,0.0,0.0,0.0,0.0,0.0,0.0,0.0,0.0,0.0,0.0,0.0,0.0,0.0,0.0,0.0,0.0,0.0,0.0,0.0,0.0,0.0,0.0,0.0,0.0,0.0,0.0,0.0,0.0,0.0,0.0,0.0,0.0,0.0,0.0,0.0,0.0,0.0,0.0,0.0,0.0,0.0,0.0,0.0,0.0,0.0,0.0,0.0,0.0,0.0,0.0,0.0,0.0,0.0,0.0,0.0,0.0,0.0,0.0,0.0,0.0,0.0,0.0,0.0,0.0,0.0,0.0,0.0,0.0,0.0,0.0,0.0,0.0,0.0,0.0,0.0,0.0,0.0,0.0,0.0,0.0,0.0,0.0,0.0,0.0,0.0,0.0,0.0,0.0,0.0,0.0,0.0,0.0,0.0,0.0,0.0,0.0,0.0,0.0,0.0,0.0,0.0,0.0,0.0,0.0,0.0,0.0,0.0,0.0,0.0,0.0,0.0,0.0,0.0,0.0,0.0,0.0,0.0,0.0,0.0,0.0,0.0,0.0,0.0,0.0,0.0,0.0,0.0,0.0,0.0,0.0,0.0,0.0,0.0,0.0,0.0,0.0,0.0,0.0,0.0,0.0,0.0,0.0,0.0,0.0,0.0,0.0,0.0,0.0,0.0,0.0,0.0,0.0,0.0,0.0,0.0,0.0,0.0,0.0,0.0,0.0,0.0,0.0,0.0,0.0,0.0,0.0,0.0,0.0,0.0,0.0,0.0,0.0,0.0,0.0,0.0,0.0,0.0,0.0,0.0,0.0,0.0,0.0,0.0,0.0,0.0,0.0,0.0,0.0,0.0,0.0,0.0,0.0,0.0,0.0,0.0,0.0,0.0,0.0,0.0,0.0,0.0,0.0,0.0,0.0,0.0,0.0,0.0,0.0,0.0,0.0,0.0,0.0,0.0,0.0,0.0,0.0,0.0,0.0,0.0,0.0,0.0,0.0,0.0,0.0,0.0,0.0,0.0,0.0,0.0,0.0,0.0,0.0,0.0,0.0,0.0,0.0,0.0,0.0,0.0,0.0,0.0,0.0,0.0,0.0,0.0,0.0,0.0,0.0,0.0,0.0,0.0,0.0,0.0,0.0,0.0,0.0,0.0,0.0,0.0,0.0,0.0,0.0,0.0,0.0,0.0,0.0,0.0,0.0,0.0,0.0,0.0,0.0,0.0,0.0,0.0,0.0,0.0,0.0,0.0,0.0,0.0,0.0,0.0,0.0,0.0,0.0,0.0,0.0,0.0,0.0,0.0,0.0,0.0,0.0,0.0,0.0,0.0,0.0,0.0,0.0,0.0,0.0,0.0,0.0,0.0,0.0,0.0,0.0,0.0,0.0,0.0,0.0,0.0,0.0,0.8739,0.0,0.0,0.0,0.0,0.0,0.0,0.0,0.0,0.0,0.0,0.0,0.0,0.0,0.0,0.0,0.0,0.0,0.0,0.0,0.0,0.0,0.0,0.0,0.0,0.0,0.0,0.0,0.0,0.0,0.0,0.0,0.0,0.0,0.0,0.0,0.0,0.0,0.0,0.0,0.0,0.0,0.0,0.0,0.0,0.0,0.0,0.0,0.0,0.0,0.0,0.0,0.0,0.0,0.0,0.0,0.0,0.0,0.0,0.0,0.0,0.0,0.0,0.0,0.0,0.0,0.0,0.0,0.0,0.0,0.0,0.0,0.0,0.0,0.0,0.0,0.0,0.0,0.0,0.0,0.0,0.0,0.0,0.0,0.0,0.0,0.0,0.0,0.0,0.0,0.0,0.0,0.0,0.0,0.0,0.0,0.0,0.0,0.0,0.0,0.0,0.0,0.0,0.0,0.0,0.0,0.0,0.0,0.0,0.0,0.0,0.996,1.0223,1.0433,1.031,0.9812,0.0,0.0,0.0,0.0,0.0,0.0,0.0,0.0,0.0,0.0,0.0,0.0,0.0,0.0,0.0,0.0,0.0,0.0,0.0,0.0,0.0,0.0,0.0,0.0,0.0,0.0,0.0,0.0,0.0,0.0,0.0,0.0,0.0,0.0,0.0,0.0,0.0,0.0,0.0,0.0,0.0,0.0,0.0,0.0,0.0,0.0,0.0,0.0,0.0,0.0,0.0,0.0,0.0,0.0,0.0,0.0,0.0,0.0,0.0,0.0,0.0,0.0,0.0,0.0,0.0,0.0,0.0,0.0,0.0,0.0,0.0,0.0,0.0,0.0,0.0,0.0,0.0,0.0,0.0,0.0,0.0,0.0,0.0,0.0,0.0,0.0,0.0,0.0,0.0,0.0,0.0,0.0,0.0,0.0,0.0,0.0,0.0,0.0,0.0,0.0,0.0,0.0,0.0,0.0,0.0,0.0,0.0,0.0,0.0,0.0,0.0,0.0,1.1287,1.1109,1.0505,0.0,0.0,0.0,0.0,0.0,0.0,0.0,0.0,0.0,0.0,0.0,0.0,0.0,0.0,0.0,0.0,0.0,0.0,0.0,0.0,0.0,0.0,0.0,0.0,0.0,0.0,0.0,0.0,0.0,0.0,0.0,0.0,0.0,0.0,0.0,0.0,0.0,0.0,0.0,0.0,0.0,0.0,0.0,0.0,0.0,0.0,0.0,0.0,0.0,0.0,0.0,0.0,0.0,0.0,0.0,0.0,0.0,0.0,0.0,0.0,0.0,0.0,0.0,0.0,0.0,0.0,0.0,0.0,0.0,0.0,0.0,0.0,0.0,0.0,0.0,0.0,0.0,0.0,0.0,0.0,0.0,0.0,0.0,0.0,0.0,0.0,0.0,0.0,0.0,0.0,0.0,0.0,0.0,0.0,0.0,0.0,0.0,0.0,0.0,0.0,0.0,0.0,0.0,0.0,0.0,0.0,0.0,0.0,0.0,0.0,1.0765,1.1099,1.1296,0.0,0.9933,0.0,0.0,0.0,0.0,0.0,0.0,0.0,0.0,0.0,0.0,0.0,0.0,0.0,0.0,0.0,0.0,0.0,0.0,0.0,0.0,0.0,0.0,0.0,0.0,0.0,0.0,0.0,0.0,0.0,0.0,0.0,0.0,0.0,0.0,0.0,0.0,0.0,0.0,0.0,0.0,0.0,0.0,0.0,0.0,0.0,0.0,0.0,0.0,0.0,0.0,0.0,0.0,0.0,0.0,0.0,0.0,0.0,0.0,0.0,0.0,0.0,0.0,0.0,0.0,0.0,0.0,0.0,0.0,0.0,0.0,0.0,0.0,0.0,0.0,0.0,0.0,0.0,0.0,0.0,0.0,0.0,0.0,0.0,0.0,0.0,0.0,0.0,0.0,0.0,0.0,0.0,0.0,0.0,0.0,0.0,0.0,0.0,0.0,0.0,0.0,0.0,0.0,0.0,0.0,0.0,0.0,0.0,0.0,0.0,0.0,1.0795,1.1105,1.1379,1.0973,0.0,0.0,0.0,0.0,0.0,0.0,0.0,0.0,0.0,0.0,0.0,0.0,0.0,0.0,0.0,0.0,0.0,0.0,0.0,0.0,0.0,0.0,0.0,0.0,0.0,0.0,0.0,0.0,0.0,0.0,0.0,0.0,0.0,0.0,0.0,0.0,0.0,0.0,0.0,0.0,0.0,0.0,0.0,0.0,0.0,0.0,0.0,0.0,0.0,0.0,0.0,0.0,0.0,0.0,0.0,0.0,0.0,0.0,0.0,0.0,0.0,0.0,0.0,0.0,0.0,0.0,0.0,0.0,0.0,0.0,0.0,0.0,0.0,0.0,0.0,0.0,0.0,0.0,0.0,0.0,0.0,0.0,0.0,0.0,0.0,0.0,0.0,0.0,0.0,0.0,0.0,0.0,0.0,0.0,0.0,0.0,0.0,0.0,0.0,0.0,0.0,0.0,0.0,0.0,0.0,0.0,0.0,0.0,0.0,0.0,1.0527,0.0,1.1195,1.1465,1.1032,0.9875,0.0,0.0,0.0,0.0,0.0,0.0,0.0,0.0,0.0,0.0,0.0,0.0,0.0,0.0,0.0,0.0,0.0,0.0,0.0,0.0,0.0,0.0,0.0,0.0,0.0,0.0,0.0,0.0,0.0,0.0,0.0,0.0,0.0,0.0,0.0,0.0,0.0,0.0,0.0,0.0,0.0,0.0,0.0,0.0,0.0,0.0,0.0,0.0,0.0,0.0,0.0,0.0,0.0,0.0,0.0,0.0,0.0,0.0,0.0,0.0,0.0,0.0,0.0,0.0,0.0,0.0,0.0,0.0,0.0,0.0,0.0,0.0,0.0,0.0,0.0,0.0,0.0,0.0,0.0,0.0,0.0,0.0,0.0,0.0,0.0,0.0,0.0,0.0,0.0,0.0,0.0,0.0,0.0,0.0,0.0,0.0,0.0,0.0,0.0,0.0,0.0,0.0,0.0,0.0,0.0,0.0,0.0,0.0,0.0,1.0527,1.0944,1.1461,1.156,1.1068,0.0,0.0,0.0,0.0,0.0,0.0,0.0,0.0,0.0,0.0,0.0,0.0,0.0,0.0,0.0,0.0,0.0,0.0,0.0,0.0,0.0,0.0,0.0,0.0,0.0,0.0,0.0,0.0,0.0,0.0,0.0,0.0,0.0,0.0,0.0,0.0,0.0,0.0,0.0,0.0,0.0,0.0,0.0,0.0,0.0,0.0,0.0,0.0,0.0,0.0,0.0,0.0,0.0,0.0,0.0,0.0,0.0,0.0,0.0,0.0,0.0,0.0,0.0,0.0,0.0,0.0,0.0,0.0,0.0,0.0,0.0,0.0,0.0,0.0,0.0,0.0,0.0,0.0,0.0,0.0,0.0,0.0,0.0,0.0,0.0,0.0,0.0,0.0,0.0,0.0,0.0,0.0,0.0,0.0,0.0,0.0,0.0,0.0,0.0,0.0,0.0,0.0,0.0,0.0,0.0,0.0,0.0,0.0,0.0,1.0261,1.0723,1.1132,1.1483,1.1569,1.1073,0.0,0.0,0.0,0.0,0.0,0.0,0.0,0.0,0.0,0.0,0.0,0.0,0.0,0.0,0.0,0.0,0.0,0.0,0.0,0.0,0.0,0.0,0.0,0.0,0.0,0.0,0.0,0.0,0.0,0.0,0.0,0.0,0.0,0.0,0.0,0.0,0.0,0.0,0.0,0.0,0.0,0.0,0.0,0.0,0.0,0.0,0.0,0.0,0.0,0.0,0.0,0.0,0.0,0.0,0.0,0.0,0.0,0.0,0.0,0.0,0.0,0.0,0.0,0.0,0.0,0.0,0.0,0.0,0.0,0.0,0.0,0.0,0.0,0.0,0.0,0.0,0.0,0.0,0.0,0.0,0.0,0.0,0.0,0.0,0.0,0.0,0.0,0.0,0.0,0.0,0.0,0.0,0.0,0.0,0.0,0.0,0.0,0.0,0.0,0.0,0.0,0.0,0.0,0.0,0.0,0.0,0.0,0.0,0.0,1.0765,0.0,1.1579,0.0,1.1897,1.1301,0.0,0.0,0.0,0.0,0.0,0.0,0.0,0.0,0.0,0.0,0.0,0.0,0.0,0.0,0.0,0.0,0.0,0.0,0.0,0.0,0.0,0.0,0.0,0.0,0.0,0.0,0.0,0.0,0.0,0.0,0.0,0.0,0.0,0.0,0.0,0.0,0.0,0.0,0.0,0.0,0.0,0.0,0.0,0.0,0.0,0.0,0.0,0.0,0.0,0.0,0.0,0.0,0.0,0.0,0.0,0.0,0.0,0.0,0.0,0.0,0.0,0.0,0.0,0.0,0.0,0.0,0.0,0.0,0.0,0.0,0.0,0.0,0.0,0.0,0.0,0.0,0.0,0.0,0.0,0.0,0.0,0.0,0.0,0.0,0.0,0.0,0.0,0.0,0.0,0.0,0.0,0.0,0.0,0.0,0.0,0.0,0.0,0.0,0.0,0.0,0.0,0.0,0.0,0.0,0.0,0.0,0.0,0.0,1.0592,1.1723,1.2045,1.2302,1.2497,1.2603,1.1821,0.0,0.0,0.0,0.0,0.0,0.0,0.0,0.0,0.0,0.0,0.0,0.0,0.0,0.0,0.0,0.0,0.0,0.0,0.0,0.0,0.0,0.0,0.0,0.0,0.0,0.0,0.0,0.0,0.0,0.0,0.0,0.0,0.0,0.0,0.0,0.0,0.0,0.0,0.0,0.0,0.0,0.0,0.0,0.0,0.0,0.0,0.0,0.0,0.0,0.0,0.0,0.0,0.0,0.0,0.0,0.0,0.0,0.0,0.0,0.0,0.0,0.0,0.0,0.0,0.0,0.0,0.0,0.0,0.0,0.0,0.0,0.0,0.0,0.0,0.0,0.0,0.0,0.0,0.0,0.0,0.0,0.0,0.0,0.0,0.0,0.0,0.0,0.0,0.0,0.0,0.0,0.0,0.0,0.0,0.0,0.0,0.0,0.0,0.0,0.0,0.0,0.0,0.0,0.0,0.0,0.0,0.0,0.0,0.0,1.1791,1.2469,1.2943,1.3165,1.2867,1.2233,0.0,0.0,0.0,0.0,0.0,0.0,0.0,0.0,0.0,0.0,0.0,0.0,0.0,0.0,0.0,0.0,0.0,0.0,0.0,0.0,0.0,0.0,0.0,0.0,0.0,0.0,0.0,0.0,0.0,0.0,0.0,0.0,0.0,0.0,0.0,0.0,0.0,0.0,0.0,0.0,0.0,0.0,0.0,0.0,0.0,0.0,0.0,0.0,0.0,0.0,0.0,0.0,0.0,0.0,0.0,0.0,0.0,0.0,0.0,0.0,0.0,0.0,0.0,0.0,0.0,0.0,0.0,0.0,0.0,0.0,0.0,0.0,0.0,0.0,0.0,0.0,0.0,0.0,0.0,0.0,0.0,0.0,0.0,0.0,0.0,0.0,0.0,0.0,0.0,0.0,0.0,0.0,0.0,0.0,0.0,0.0,0.0,0.0,0.0,0.0,0.0,0.0,0.0,0.0,0.0,0.0,0.0,0.0,0.0,1.2942,1.3338,1.3672,1.3871,1.338,1.2703,1.1814,0.0,0.0,0.0,0.0,0.0,0.0,0.0,0.0,0.0,0.0,0.0,0.0,0.0,0.0,0.0,0.0,0.0,0.0,0.0,0.0,0.0,0.0,0.0,0.0,0.0,0.0,0.0,0.0,0.0,0.0,0.0,0.0,0.0,0.0,0.0,0.0,0.0,0.0,0.0,0.0,0.0,0.0,0.0,0.0,0.0,0.0,0.0,0.0,0.0,0.0,0.0,0.0,0.0,0.0,0.0,0.0,0.0,0.0,0.0,0.0,0.0,0.0,0.0,0.0,0.0,0.0,0.0,0.0,0.0,0.0,0.0,0.0,0.0,0.0,0.0,0.0,0.0,0.0,0.0,0.0,0.0,0.0,0.0,0.0,0.0,0.0,0.0,0.0,0.0,0.0,0.0,0.0,0.0,0.0,0.0,0.0,0.0,0.0,0.0,0.0,0.0,0.0,0.0,0.0,0.0,0.0,0.0,0.0,1.4926,1.4637,1.4536,1.4632,1.4182,1.3274,0.0,0.0,0.0,0.0,0.0,0.0,0.0,0.0,0.0,0.0,0.0,0.0,0.0,0.0,0.0,0.0,0.0,0.0,0.0,0.0,0.0,0.0,0.0,0.0,0.0,0.0,0.0,0.0,0.0,0.0,0.0,0.0,0.0,0.0,0.0,0.0,0.0,0.0,0.0,0.0,0.0,0.0,0.0,0.0,0.0,0.0,0.0,0.0,0.0,0.0,0.0,0.0,0.0,0.0,0.0,0.0,0.0,0.0,0.0,0.0,0.0,0.0,0.0,0.0,0.0,0.0,0.0,0.0,0.0,0.0,0.0,0.0,0.0,0.0,0.0,0.0,0.0,0.0,0.0,0.0,0.0,0.0,0.0,0.0,0.0,0.0,0.0,0.0,0.0,0.0,0.0,0.0,0.0,0.0,0.0,0.0,0.0,0.0,0.0,0.0,0.0,0.0,0.0,0.0,0.0,0.0,0.0,0.0,0.0,1.5582,1.6215,1.6371,1.6061,1.5547,1.4639,0.0,0.0,0.0,0.0,0.0,0.0,0.0,0.0,0.0,0.0,0.0,0.0,0.0,0.0,0.0,0.0,0.0,0.0,0.0,0.0,0.0,0.0,0.0,0.0,0.0,0.0,0.0,0.0,0.0,0.0,0.0,0.0,0.0,0.0,0.0,0.0,0.0,0.0,0.0,0.0,0.0,0.0,0.0,0.0,0.0,0.0,0.0,0.0,0.0,0.0,0.0,0.0,0.0,0.0,0.0,0.0,0.0,0.0,0.0,0.0,0.0,0.0,0.0,0.0,0.0,0.0,0.0,0.0,0.0,0.0,0.0,0.0,0.0,0.0,0.0,0.0,0.0,0.0,0.0,0.0,0.0,0.0,0.0,0.0,0.0,0.0,0.0,0.0,0.0,0.0,0.0,0.0,0.0,0.0,0.0,0.0,0.0,0.0,0.0,0.0,0.0,0.0,0.0,0.0,0.0,0.0,0.0,0.0,1.4844,1.6374,1.7269,1.7642,1.7499,1.6376,1.517,0.0,0.0,0.0,0.0,0.0,0.0,0.0,0.0,0.0,0.0,0.0,0.0,0.0,0.0,0.0,0.0,0.0,0.0,0.0,0.0,0.0,0.0,0.0,0.0,0.0,0.0,0.0,0.0,0.0,0.0,0.0,0.0,0.0,0.0,0.0,0.0,0.0,0.0,0.0,0.0,0.0,0.0,0.0,0.0,0.0,0.0,0.0,0.0,0.0,0.0,0.0,0.0,0.0,0.0,0.0,0.0,0.0,0.0,0.0,0.0,0.0,0.0,0.0,0.0,0.0,0.0,0.0,0.0,0.0,0.0,0.0,0.0,0.0,0.0,0.0,0.0,0.0,0.0,0.0,0.0,0.0,0.0,0.0,0.0,0.0,0.0,0.0,0.0,0.0,0.0,0.0,0.0,0.0,0.0,0.0,0.0,0.0,0.0,0.0,0.0,0.0,0.0,0.0,0.0,0.0,0.0,0.0,0.0,1.5532,1.7077,1.7975,1.8519,1.8625,1.693,1.5335,0.0,0.0,0.0,0.0,0.0,0.0,0.0,0.0,0.0,0.0,0.0,0.0,0.0,0.0,0.0,0.0,0.0,0.0,0.0,0.0,0.0,0.0,0.0,0.0,0.0,0.0,0.0,0.0,0.0,0.0,0.0,0.0,0.0,0.0,0.0,0.0,0.0,0.0,0.0,0.0,0.0,0.0,0.0,0.0,0.0,0.0,0.0,0.0,0.0,0.0,0.0,0.0,0.0,0.0,0.0,0.0,0.0,0.0,0.0,0.0,0.0,0.0,0.0,0.0,0.0,0.0,0.0,0.0,0.0,0.0,0.0,0.0,0.0,0.0,0.0,0.0,0.0,0.0,0.0,0.0,0.0,0.0,0.0,0.0,0.0,0.0,0.0,0.0,0.0,0.0,0.0,0.0,0.0,0.0,0.0,0.0,0.0,0.0,0.0,0.0,0.0,0.0,0.0,0.0,0.0,0.0,0.0,0.0,1.6239,1.7173,1.8579,1.9132,1.8717,1.7796,1.6443,0.0,0.0,0.0,0.0,0.0,0.0,0.0,0.0,0.0,0.0,0.0,0.0,0.0,0.0,0.0,0.0,0.0,0.0,0.0,0.0,0.0,0.0,0.0,0.0,0.0,0.0,0.0,0.0,0.0,0.0,0.0,0.0,0.0,0.0,0.0,0.0,0.0,0.0,0.0,0.0,0.0,0.0,0.0,0.0,0.0,0.0,0.0,0.0,1.1896,0.0,0.0,0.0,0.0,0.0,0.0,0.0,0.0,0.0,0.0,0.0,0.0,0.0,0.0,0.0,0.0,0.0,0.0,0.0,0.0,0.0,0.0,0.0,0.0,0.0,0.0,0.0,0.0,0.0,0.0,0.0,0.0,0.0,0.0,0.0,0.0,0.0,0.0,0.0,0.0,0.0,0.0,0.0,0.0,0.0,0.0,0.0,0.0,0.0,0.0,0.0,0.0,0.0,0.0,0.0,0.0,0.0,0.0,0.0,1.6978,1.7807,1.8978,1.9459,1.9151,1.8222,1.6787,0.0,0.0,0.0,0.0,0.0,0.0,0.0,0.0,0.0,0.0,0.0,0.0,0.0,0.0,0.0,0.0,0.0,0.0,0.0,0.0,0.0,0.0,0.0,0.0,0.0,0.0,0.0,0.0,0.0,0.0,0.0,0.0,0.0,0.0,0.0,0.0,0.0,0.0,0.0,0.0,0.0,0.0,0.0,0.0,0.0,0.0,0.0,0.0,0.0,0.0,0.0,0.0,0.0,0.0,0.0,0.0,0.0,0.0,0.0,0.0,0.0,0.0,0.0,0.0,0.0,0.0,0.0,0.0,0.0,0.0,0.0,0.0,0.0,0.0,0.0,0.0,0.0,0.0,0.0,0.0,0.0,0.0,0.0,0.0,0.0,0.0,0.0,0.0,0.0,0.0,0.0,0.0,0.0,0.0,0.0,0.0,0.0,0.0,0.0,0.0,0.0,0.0,0.0,0.0,0.0,0.0,0.0,1.6107,1.763,1.851,1.9269,1.9687,1.9714,1.8443,1.687,1.5042,0.0,0.0,0.0,0.0,0.0,0.0,0.0,0.0,0.0,0.0,0.0,0.0,0.0,0.0,0.0,0.0,0.0,0.0,0.0,0.0,0.0,0.0,0.0,0.0,0.0,0.0,0.0,0.0,0.0,0.0,0.0,0.0,0.0,0.0,0.0,0.0,0.0,0.0,0.9224,1.1107,0.0,0.0,0.0,0.0,0.0,0.0,0.0,0.0,1.4031,0.0,0.0,0.0,0.0,0.0,0.0,0.0,0.0,0.0,0.0,0.0,0.0,0.0,0.0,0.0,0.0,0.0,0.0,0.0,0.0,0.0,0.0,0.0,0.0,0.0,0.0,0.0,0.0,0.0,0.0,0.0,0.0,0.0,0.0,0.0,0.0,0.0,0.0,0.0,0.0,0.0,0.0,0.0,0.0,0.0,0.0,0.0,0.0,0.0,0.0,0.0,0.0,0.0,0.0,0.0,0.0,1.4248,1.641,1.7888,1.8659,1.9493,1.9943,1.9922,1.8601,1.7196,1.5765,0.0,0.0,0.0,0.0,0.0,0.0,0.0,0.0,0.0,0.0,0.0,0.0,0.0,0.0,0.0,0.0,0.0,0.0,0.0,0.0,0.0,0.0,0.0,0.0,0.0,0.0,0.0,0.0,0.0,0.0,0.0,0.0,0.0,0.0,0.0,0.0,0.0,0.0,0.0,1.2242,1.3187,0.0,0.0,0.0,0.0,0.0,0.0,0.0,0.0,1.5393,0.0,0.0,0.0,0.0,0.0,0.0,0.0,0.0,0.0,0.0,0.0,0.0,0.0,0.0,0.0,0.0,0.0,0.0,0.0,0.0,0.0,0.0,0.0,0.0,0.0,0.0,0.0,0.0,0.0,0.0,0.0,0.0,0.0,0.0,0.0,0.0,0.0,0.0,0.0,0.0,0.0,0.0,0.0,0.0,0.0,0.0,0.0,0.0,0.0,0.0,0.0,0.0,0.0,0.0,0.0,1.5051,1.6822,1.8292,1.9399,1.9911,2.0122,2.0021,1.8733,1.7372,0.0,0.0,0.0,0.0,0.0,0.0,0.0,0.0,0.0,0.0,0.0,0.0,0.0,0.0,0.0,0.0,0.0,0.0,0.0,0.0,0.0,0.0,0.0,0.0,0.0,0.0,0.0,0.0,0.0,0.0,0.0,0.0,0.0,0.0,0.0,0.0,0.0,0.0,0.0,0.0,1.3274,1.4048,1.4935,0.0,0.0,0.0,0.0,0.0,0.0,1.5826,1.5897,0.0,0.0,0.0,0.0,0.0,0.0,0.0,0.0,0.0,0.0,0.0,0.0,0.0,0.0,0.0,0.0,0.0,0.0,0.0,0.0,0.0,0.0,0.0,0.0,0.0,0.0,0.0,0.0,0.0,0.0,0.0,0.0,0.0,0.0,0.0,0.0,0.0,0.0,0.0,0.0,0.0,0.0,0.0,0.0,0.0,0.0,0.0,0.0,0.0,0.0,0.0,0.0,0.0,0.0,0.0,1.5755,1.725,1.8713,2.0117,2.0315,2.0356,2.0213,1.8874,1.7501,0.0,0.0,0.0,0.0,0.0,0.0,0.0,0.0,0.0,0.0,0.0,0.0,0.0,0.0,0.0,0.0,0.0,0.0,0.0,0.0,0.0,0.0,0.0,0.0,0.0,0.0,0.0,0.0,0.0,0.0,0.0,0.0,0.0,0.0,0.0,0.0,0.0,0.0,0.0,0.0,0.0,1.5004,1.5636,1.5996,0.0,0.0,0.0,0.0,1.6116,1.6372,0.0,0.0,0.0,0.0,0.0,0.0,0.0,0.0,0.0,0.0,0.0,0.0,0.0,0.0,0.0,0.0,0.0,0.0,0.0,0.0,0.0,0.0,0.0,0.0,0.0,0.0,0.0,0.0,0.0,0.0,0.0,0.0,0.0,0.0,0.0,0.0,0.0,0.0,0.0,0.0,0.0,0.0,0.0,0.0,0.0,0.0,0.0,0.0,0.0,0.0,0.0,0.0,0.0,0.0,0.0,0.0,1.5946,1.753,1.9028,2.039,2.0645,2.0711,2.0627,1.9154,1.7704,0.0,0.0,0.0,0.0,0.0,0.0,0.0,0.0,0.0,0.0,0.0,0.0,0.0,0.0,0.0,0.0,0.0,0.0,0.0,0.0,0.0,0.0,0.0,0.0,0.0,0.0,0.0,0.0,0.0,0.0,0.0,0.0,0.0,0.0,0.0,0.0,0.0,0.0,0.0,0.0,0.0,1.6003,1.6718,1.7441,1.789,0.0,0.0,1.8083,1.822,1.7549,0.0,0.0,0.0,0.0,0.0,0.0,0.0,0.0,0.0,0.0,0.0,0.0,0.0,0.0,0.0,0.0,0.0,0.0,0.0,0.0,0.0,0.0,0.0,0.0,0.0,0.0,0.0,0.0,0.0,0.0,0.0,0.0,0.0,0.0,0.0,0.0,0.0,0.0,0.0,0.0,0.0,0.0,0.0,0.0,0.0,0.0,0.0,0.0,0.0,0.0,0.0,0.0,0.0,0.0,0.0,1.4711,1.6326,1.7898,1.9396,2.0845,2.1014,2.1031,2.0925,1.9467,1.7983,0.0,0.0,0.0,0.0,0.0,0.0,0.0,0.0,0.0,0.0,0.0,0.0,0.0,0.0,0.0,0.0,0.0,0.0,0.0,0.0,0.0,0.0,0.0,0.0,0.0,0.0,0.0,0.0,0.0,0.0,0.0,0.0,0.0,0.0,0.0,0.0,0.0,0.0,0.0,0.0,0.0,0.0,1.7214,1.7829,0.0,0.0,0.0,1.837,1.8558,0.0,0.0,0.0,0.0,0.0,0.0,0.0,0.0,0.0,0.0,0.0,0.0,0.0,0.0,0.0,0.0,0.0,0.0,0.0,0.0,0.0,0.0,0.0,0.0,0.0,0.0,0.0,0.0,0.0,0.0,0.0,0.0,0.0,0.0,0.0,0.0,0.0,0.0,0.0,0.0,0.0,0.0,0.0,0.0,0.0,0.0,0.0,0.0,0.0,0.0,0.0,0.0,0.0,0.0,0.0,0.0,0.0,1.6659,1.8211,1.9744,2.1229,2.1379,2.1356,2.1206,1.9771,0.0,0.0,0.0,0.0,0.0,0.0,0.0,0.0,0.0,0.0,0.0,0.0,0.0,0.0,0.0,0.0,0.0,0.0,0.0,0.0,0.0,0.0,0.0,0.0,0.0,0.0,0.0,0.8022,0.0,0.0,0.0,0.0,0.0,0.0,0.0,0.0,0.0,0.0,0.0,0.0,0.0,0.0,1.6926,1.7934,1.8623,1.902,0.0,0.0,1.9069,1.921,1.8804,1.8406,0.0,0.0,0.0,0.0,0.0,0.0,0.0,0.0,0.0,0.0,0.0,0.0,0.0,0.0,0.0,0.0,0.0,0.0,0.0,0.0,0.0,0.0,0.0,0.0,0.0,0.0,0.0,0.0,0.0,0.0,0.0,0.0,0.0,0.0,0.0,0.0,0.0,0.0,0.0,0.0,0.0,0.0,0.0,0.0,0.0,0.0,0.0,0.0,0.0,0.0,0.0,0.0,0.0,0.0,0.0,1.686,1.8447,2.002,2.1516,2.1693,2.17,2.1541,2.0013,1.8739,0.0,0.0,0.0,0.0,0.0,0.0,0.0,0.0,0.0,0.0,0.0,0.0,0.0,0.0,0.0,0.0,0.0,0.0,0.0,0.0,0.0,0.0,0.0,0.0,0.0,0.0,0.0,0.0,0.0,0.0,0.0,0.0,0.0,0.0,0.0,0.0,0.0,0.0,0.0,0.0,0.0,1.857,1.9274,2.0466,2.1268,0.0,2.1267,2.12,2.0975,2.0412,2.0036,2.0003,0.0,0.0,0.0,0.0,0.0,0.0,0.0,0.0,0.0,0.0,0.0,0.0,0.0,0.0,0.0,0.0,0.0,0.0,0.0,0.0,0.0,0.0,0.0,0.0,0.0,0.0,0.0,0.0,0.0,0.0,0.0,0.0,0.0,0.0,0.0,0.0,0.0,0.0,0.0,0.0,0.0,0.0,0.0,0.0,0.0,0.0,0.0,0.0,0.0,0.0,0.0,0.0,0.0,1.583,1.7858,1.8986,2.03,2.1757,2.1889,2.1884,2.1783,2.0226,1.9006,0.0,0.0,0.0,0.0,0.0,0.0,0.0,0.0,0.0,0.0,0.0,0.0,0.0,0.0,0.0,0.0,0.0,0.0,0.0,0.0,0.0,0.0,0.0,0.0,0.0,0.0,0.0,0.0,0.9837,1.0096,1.0424,0.0,0.0,0.0,0.0,0.0,0.0,0.0,0.0,0.0,0.0,1.9485,2.0481,2.1119,0.0,0.0,2.1578,2.1512,2.1167,2.0746,2.039,2.0225,1.9802,0.0,0.0,0.0,0.0,0.0,0.0,0.0,0.0,0.0,0.0,0.0,0.0,0.0,0.0,0.0,0.0,0.0,0.0,0.0,0.0,0.0,0.0,0.0,0.0,0.0,0.0,0.0,0.0,0.0,0.0,0.0,0.0,0.0,0.0,0.0,0.0,0.0,0.0,0.0,0.0,0.0,0.0,0.0,0.0,0.0,0.0,0.0,0.0,0.0,0.0,0.0,0.0,1.6438,1.8581,1.9409,2.0562,2.207,2.2101,2.2073,2.1955,2.0665,1.9554,0.0,0.0,0.0,0.0,0.0,0.0,0.0,0.0,0.0,0.0,0.0,0.0,0.0,0.0,0.0,0.0,0.0,0.0,0.0,0.0,0.0,0.0,0.0,0.0,0.0,0.0,0.0,0.0,1.0225,1.0531,1.1051,0.0,0.0,0.0,0.0,0.0,0.0,0.0,0.0,0.0,0.0,2.0731,2.149,2.2049,2.2329,2.2094,2.2225,2.223,2.1883,2.1655,2.1454,2.1231,0.0,0.0,0.0,0.0,0.0,0.0,0.0,0.0,0.0,0.0,0.0,0.0,0.0,0.0,0.0,0.0,0.0,0.0,0.0,0.0,0.0,0.0,0.0,0.0,0.0,0.0,0.0,1.1485,0.0,0.0,1.1365,0.0,0.0,0.0,0.0,0.0,0.0,0.0,0.0,0.0,0.0,0.0,0.0,0.0,0.0,0.0,0.0,0.0,0.0,0.0,0.0,0.0,0.0,1.7123,1.8777,1.9697,2.0841,2.2269,2.2366,2.2348,2.2207,2.1398,2.0508,1.9542,0.0,0.0,0.0,0.0,0.0,0.0,0.0,0.0,0.0,0.0,0.0,0.0,0.0,0.0,0.0,0.0,0.0,0.0,0.0,0.0,0.0,0.0,0.0,0.0,0.0,0.0,1.0339,1.0781,1.1297,0.0,0.0,0.0,0.0,0.0,0.0,0.0,0.0,0.0,1.9674,2.1462,2.2558,2.2365,2.3526,2.4121,2.3443,2.3632,2.3761,2.3458,2.352,2.3594,0.0,0.0,0.0,0.0,0.0,0.0,0.0,0.0,0.0,0.0,0.0,0.0,0.0,0.0,0.0,0.0,0.0,0.0,0.0,0.0,0.0,0.0,0.0,0.0,0.0,0.0,0.0,1.4743,1.4274,0.0,0.0,0.0,0.0,0.0,0.0,0.0,0.0,0.0,0.0,0.0,1.9359,1.9037,0.0,0.0,0.0,0.0,0.0,0.0,0.0,0.0,0.0,0.0,0.0,0.0,1.8171,1.977,2.1056,2.2197,2.3208,2.3221,2.3178,2.3112,2.1833,2.0225,1.8325,0.0,0.0,0.0,0.0,0.0,0.0,0.0,0.0,0.0,0.0,0.0,0.0,0.0,0.0,0.0,0.0,0.0,0.0,0.0,0.0,0.0,0.0,0.0,0.0,0.0,1.1374,0.0,0.0,0.0,0.0,0.0,0.0,0.0,0.0,0.0,0.0,0.0,2.0165,2.1937,2.2943,2.3736,2.4409,2.48,2.4851,0.0,0.0,0.0,0.0,0.0,0.0,0.0,0.0,0.0,0.0,0.0,0.0,0.0,0.0,2.6127,2.445,2.4456,2.5266,2.6913,0.0,0.0,0.0,0.0,0.0,0.0,0.0,0.0,0.0,0.0,0.0,0.0,0.0,0.0,1.8161,1.7423,1.7306,0.0,0.0,0.0,0.0,0.0,0.0,0.0,0.0,2.0144,2.1234,2.2258,2.1893,2.2081,0.0,2.141,1.9816,0.0,0.0,0.0,0.0,0.0,0.0,0.0,0.0,1.9601,2.1205,2.2214,2.3208,2.4178,2.4187,2.4007,2.3676,2.2136,2.0541,1.8943,1.7988,1.6575,0.0,0.0,0.0,0.0,0.0,0.0,0.0,0.0,0.0,0.0,0.0,0.0,0.0,0.0,0.0,0.0,0.0,0.0,0.0,0.0,0.0,0.0,0.0,1.2706,0.0,0.0,0.0,0.0,0.0,0.0,0.0,0.0,0.0,2.2356,2.2033,2.2339,2.4042,2.4803,2.5383,2.5815,0.0,0.0,0.0,0.0,0.0,0.0,0.0,2.6004,2.6287,2.681,2.7426,2.8214,2.8656,2.8978,2.9149,0.0,0.0,2.718,2.7221,2.822,2.991,3.0146,3.0576,3.2152,3.2551,3.2644,0.0,0.0,0.0,0.0,0.0,0.0,0.0,0.0,2.1891,2.1768,0.0,2.0856,0.0,0.0,0.0,0.0,2.0223,2.0291,0.0,0.0,2.2689,2.3603,2.5053,2.4281,2.4251,2.4807,2.3985,2.3491,2.3123,1.9274,0.0,0.0,0.0,0.0,0.0,0.0,2.1399,2.2968,2.3181,2.3887,2.5206,2.5244,2.4826,2.3912,2.241,2.1492,2.1213,1.9121,1.7856,1.7658,1.4803,0.0,0.0,0.0,0.0,0.0,0.0,0.0,0.0,0.0,0.0,0.0,0.0,0.0,0.0,0.0,0.0,0.0,0.0,0.0,0.0,1.3966,0.0,0.0,0.0,0.0,0.0,0.0,0.0,0.0,0.0,0.0,2.5313,2.4626,2.4584,2.5895,0.0,0.0,0.0,0.0,2.7495,2.6666,2.703,2.751,2.7763,2.8125,2.8454,2.8737,0.0,0.0,3.1204,3.1656,3.1872,3.1915,3.2834,3.2821,3.0291,3.0607,3.1637,3.2788,3.3448,3.4202,3.5151,3.5576,3.5791,2.6886,0.0,0.0,0.0,0.0,2.4984,2.5573,2.5578,2.6377,2.6218,2.54,2.4737,0.0,0.0,0.0,0.0,0.0,0.0,2.427,2.4746,2.5384,2.623,2.7206,2.6299,2.6257,2.6964,2.6085,2.5594,2.545,2.3727,2.2071,2.0552,0.0,0.0,0.0,0.0,2.3,2.4128,2.52,2.5959,2.6408,2.6317,2.5564,2.4082,2.3604,2.2749,2.1481,2.0738,1.9567,1.7924,1.6886,0.0,0.0,0.0,0.0,0.0,0.0,0.0,0.0,0.0,0.0,0.0,0.0,0.0,0.0,0.0,0.0,0.0,0.0,0.0,1.4802,1.5782,1.658,0.0,0.0,0.0,0.0,0.0,0.0,0.0,0.0,0.0,3.0375,2.7923,2.6425,0.0,0.0,2.8919,2.8974,2.9591,2.9818,2.9132,2.9481,0.0,2.8576,2.9405,3.0236,3.0513,3.1545,3.2496,3.3006,3.3563,3.4061,3.4391,3.5613,3.621,3.5233,3.4273,3.4367,3.5672,3.6182,3.6651,3.7687,3.8466,3.8948,3.1751,2.9224,2.7808,2.7144,2.7167,2.8542,2.9086,2.9049,2.9878,2.9737,2.8905,2.8374,2.7623,2.679,2.6716,0.0,0.0,0.0,2.7435,2.7749,2.8305,2.9003,2.9701,2.9195,2.9132,2.9519,2.8996,2.8651,2.8528,2.7424,2.619,2.4832,0.0,0.0,2.3213,2.401,2.4796,2.5673,2.6568,2.7199,2.7521,2.7103,2.6333,2.5215,2.4576,2.3713,2.257,2.189,2.0874,1.9394,1.8348,1.6934,0.0,0.0,0.0,0.0,0.0,0.0,0.0,0.0,0.0,0.0,0.0,1.1891,1.2518,0.0,0.0,0.0,1.4629,1.6226,1.673,1.8091,0.0,0.0,0.0,0.0,0.0,0.0,0.0,2.3992,2.7077,3.0483,3.35,3.1373,2.9688,3.0139,3.0458,3.0699,3.0876,0.0,3.1436,3.1051,3.1335,3.1231,3.027,3.1068,3.2092,3.2853,3.3885,3.4803,3.5279,3.5864,3.6363,3.6832,3.7748,3.8435,3.8197,3.7636,3.7442,3.8352,3.8818,3.9337,4.0142,4.079,4.1223,3.602,3.5707,3.2443,3.0934,3.0817,3.1656,3.1914,3.1799,3.2583,3.2438,3.1633,3.1555,3.1079,3.0299,3.0113,0.0,2.8867,2.9666,3.0403,3.1131,3.12,3.161,3.2311,3.2311,3.2256,3.2117,3.2127,3.2021,3.1746,3.0325,2.9561,2.9357,2.6841,2.5439,2.5206,2.5933,2.6693,2.7441,2.7489,2.7846,2.8475,2.767,2.7121,2.6821,2.539,2.4466,2.4112,2.2716,2.1798,2.1473,1.9401,1.8079,1.7754,0.0,0.0,0.0,0.0,0.0,0.0,0.0,0.0,0.0,0.0,0.0,0.0,0.0,0.0,0.0,1.774,0.0,1.9282,2.0802,0.0,0.0,0.0,2.4826,2.5438,2.7124,2.7966,2.7325,0.0,0.0,3.5294,3.4732,3.3792,3.301,3.2739,3.2558,3.2431,3.264,3.2733,3.2614,3.2918,3.2993,3.2507,3.3126,3.4134,3.5355,3.6314,3.6895,3.7521,3.8133,3.8605,3.885,3.9424,3.9849,3.988,4.0501,4.1118,4.0807,4.1275,4.189,4.2233,4.2556,4.2864,3.7848,3.778,3.6935,3.5741,3.4492,3.5333,3.5261,3.4555,3.4791,3.4384,3.3513,3.2897,3.2442,3.214,3.2098,3.1951,3.1714,3.1912,3.2099,3.2305,3.2313,3.2412,3.2614,3.2552,3.2511,3.2476,3.2387,3.2306,3.2251,3.1769,3.1494,3.1386,3.0718,2.9373,2.7345,2.7412,2.7892,2.8682,2.8635,2.8633,2.8657,2.8444,2.7922,2.7114,2.6163,2.526,2.4419,2.3464,2.2581,2.1758,2.0547,1.9309,1.8018,1.664,0.0,0.0,0.0,0.0,0.0,0.0,0.0,0.0,0.0,1.5021,1.5533,0.0,1.4699,0.0,2.0782,2.2913,2.2183,2.3814,0.0,0.0,2.7073,2.817,2.8764,3.0125,3.0873,3.0442,3.2273,3.4555,3.7103,3.6807,3.6418,3.64,3.4818,3.3596,3.342,3.4382,3.5033,3.49,3.5488,3.5672,3.4596,3.5494,3.6583,3.7094,3.7342,3.7646,3.8216,3.8973,3.9644,4.0131,4.104,4.1739,4.2019,4.2604,4.3107,4.3448,4.3225,4.2944,4.3305,4.3968,4.4623,3.9656,3.9653,3.9662,3.9059,3.8081,3.7756,3.7312,3.6798,3.684,3.6535,3.601,3.5523,3.4849,3.4074,3.4416,3.4126,3.3417,3.3743,3.3905,3.3902,3.3902,3.3872,3.3853,3.3819,3.3807,3.3806,3.3728,3.3646,3.3573,3.3135,3.2868,3.2798,3.2421,3.1468,2.9996,2.9429,2.918,2.9225,2.9151,2.8997,2.884,2.8791,2.8506,2.7881,2.7055,2.6339,2.5718,2.4593,2.3661,2.301,2.185,2.0558,1.9161,1.8311,1.7774,0.0,0.0,0.0,0.0,0.0,0.0,0.0,0.0,0.0,0.0,0.0,1.8848,2.2211,2.4823,2.6005,2.526,2.6888,2.8171,2.8581,3.0083,3.1188,3.1527,3.2998,3.3647,3.2733,3.45,3.666,3.8791,3.8414,3.7867,3.7859,3.6658,3.5659,3.5472,3.6079,3.6526,3.6455,3.6906,3.7039,3.6115,3.7434,3.8473,3.8252,3.8607,3.9064,3.9469,4.0113,4.0774,4.131,4.1997,4.2649,4.3112,4.3461,4.4023,4.4987,4.4874,4.4413,4.43,4.5113,4.5906,4.1425,4.1425,4.1439,4.1447,4.1295,3.9621,3.8795,3.8591,3.8572,3.8477,3.8312,3.8236,3.7386,3.6003,3.6664,3.6161,3.4786,3.5422,3.5745,3.576,3.5738,3.5723,3.5648,3.5648,3.5649,3.5641,3.5526,3.5407,3.5263,3.4414,3.3976,3.3876,3.3126,3.2705,3.2559,3.1605,3.0604,2.9605,2.9461,2.9278,2.904,2.8958,2.8857,2.8719,2.7888,2.7363,2.721,2.5793,2.4891,2.4663,2.3259,2.192,2.0806,2.0114,2.0014,0.0,1.9836,0.0,0.0,0.0,0.0,0.0,0.0,0.0,0.0,2.1927,2.4097,2.8164,2.9285,2.9383,2.8503,2.9962,3.1034,3.1174,3.2759,3.3906,3.4075,3.5656,3.6215,3.4805,3.6501,3.853,4.0185,3.9699,3.8935,3.8557,3.8402,3.8127,3.7818,3.7655,3.7608,3.7608,3.7631,3.7776,3.7865,3.8965,3.97,3.9178,3.972,4.0612,4.0806,4.1309,4.1851,4.2285,4.257,4.2945,4.3522,4.3826,4.4528,4.5909,4.607,4.5902,4.5593,4.6126,4.688,4.3213,4.3215,4.3203,4.3202,4.3123,4.2092,4.0828,3.9523,3.9464,3.9066,3.8384,3.8297,3.8103,3.7803,3.789,3.7748,3.7465,3.7597,3.7652,3.7591,3.7591,3.7591,3.7581,3.7561,3.7527,3.7459,3.6786,3.6384,3.6297,3.5453,3.5004,3.4996,3.4784,3.4363,3.3714,0.0,0.0,0.0,3.047,3.0036,2.9277,2.9112,2.9021,2.894,2.8089,0.0,2.7429,2.6522,2.5952,2.5775,2.4778,0.0,0.0,0.0,0.0,0.0,0.0,0.0,0.0,0.0,0.0,0.0,2.5999,2.5746,2.3278,2.393,2.6258,3.0381,3.3261,3.3973,3.1858,3.2858,3.3889,3.4443,3.5298,3.6071,3.6683,3.7581,3.8074,3.8184,3.8916,3.9836,4.0767,4.0879,4.0658,4.0265,4.0276,4.0107,3.9699,3.9072,3.8698,3.8726,3.8828,3.9115,3.9443,3.9793,4.0091,4.0128,4.0435,4.0902,4.1373,4.1883,4.2286,4.2571,4.3021,4.3462,4.3761,4.4459,4.5267,4.5903,4.6649,4.7202,4.7203,4.7532,4.7967,4.368,4.371,4.3703,4.3709,0.0,4.324,4.2527,4.1663,4.0778,4.0145,3.9744,3.9665,3.9403,3.8991,3.8964,3.8673,3.8255,3.8236,3.8211,3.8142,3.8139,3.8143,3.8157,3.8154,3.8125,3.8049,3.7605,3.7361,3.728,3.6438,3.5986,3.5982,3.5492,3.504,3.4657,3.4618,3.3612,3.1662,3.147,3.0944,3.0034,2.9865,2.9568,2.9113,2.8634,0.0,0.0,0.0,0.0,0.0,0.0,0.0,0.0,0.0,0.0,2.6924,2.5744,2.5089,2.5439,2.6458,2.7184,2.7495,2.9413,2.9736,2.7686,2.8253,2.993,3.2863,3.5337,3.6133,3.4777,3.5334,3.6117,3.679,3.7513,3.8217,3.8905,3.961,3.9906,3.9707,4.042,4.1147,4.154,4.1472,4.1405,4.1223,4.1205,4.1088,4.0752,4.0096,3.9588,3.9514,3.9614,3.9785,4.0053,4.0399,4.0589,4.0782,4.1037,4.1406,4.1899,4.227,4.2618,4.3007,4.3387,4.377,4.4509,4.5141,4.587,4.6954,4.772,4.8428,4.8993,4.9071,4.9021,4.4447,4.4374,4.4385,4.4286,4.4159,4.4003,4.3847,4.3589,4.2185,0.0,0.0,4.1485,4.0976,4.0179,4.0138,3.9658,3.8801,3.8779,3.8751,3.8678,3.8678,3.8673,3.8663,3.8682,3.8639,3.8576,3.8418,3.8331,3.8286,3.7397,3.6962,3.6859,3.6019,3.5491,3.5338,3.5304,3.454,3.2969,3.2553,3.1927,3.1005,3.0833,3.042,2.9687,2.9592,2.9524,2.9473,2.8772,2.8301,2.8184,2.7429,2.7469,2.8452,2.7876,2.8099,2.9373,2.8603,2.8093,2.8224,2.938,3.0222,3.0454,3.215,3.2978,3.2465,3.2481,3.3339,3.5212,3.6754,3.7455,3.7037,3.7529,3.807,3.87,3.9418,4.0102,4.0769,4.1357,4.1385,4.0884,4.1579,4.2254,4.2254,4.2013,4.1769,4.1802,4.1802,4.1687,4.1423,4.082,4.0307,4.0233,4.0141,4.0156,4.0439,4.0901,4.1254,4.129,4.1555,4.1932,4.2397,4.2681,4.3039,4.3755,4.3885,4.4484,4.541,4.6039,4.6754,4.8318,4.8904,4.9462,5.0449,5.0418,5.017,4.7513,4.6968,4.6958,4.6558,4.5878,4.5142,4.439,4.3691,4.3448,4.3334,4.3336,4.3263,4.276,4.1923,4.1929,4.1454,4.0634,4.0612,4.0589,4.0524,4.0524,4.0527,4.0515,4.0515,4.0486,4.0376,3.9675,3.9277,3.9129,3.8341,3.79,3.7797,3.7012,3.6184,3.5444,3.5391,3.5193,3.4782,3.3919,3.2997,3.2023,3.1858,3.1715,3.152,3.1383,3.1339,3.1309,3.1063,3.0925,3.0846,3.0611,3.0324,2.9935,3.0053,3.0394,3.0825,3.0241,3.0387,3.159,3.1889,3.2783,3.4488,3.5453,3.5731,3.524,3.3843,3.4186,3.6992,3.8688,3.9244,3.8406,3.9222,3.9921,4.0153,4.0778,4.1487,4.2119,4.2217,4.2351,4.2564,4.2705,4.2837,4.2897,4.268,4.2459,4.2459,4.2428,4.2349,4.198,4.1421,4.1001,4.0898,4.0658,4.0662,4.1072,4.1605,4.1916,4.1964,4.2126,4.2429,4.2913,4.327,4.3771,4.4619,4.506,4.5674,4.6481,4.751,4.8186,4.8872,4.958,5.0437,5.0946,5.1168,5.1413,4.8358,4.8107,4.8137,4.7981,4.7629,4.7222,4.6593,4.5839,4.5801,4.4995,4.3752,4.3666,4.3424,4.3067,4.3051,4.2582,4.1758,4.171,4.1438,4.0963,4.0961,4.0943,4.095,4.0967,4.0922,4.0833,4.0474,4.0239,4.0128,3.9297,3.8858,3.8797,3.7958,3.7052,3.6206,3.6124,3.5847,3.5304,3.4747,3.3981,3.3044,3.2886,3.2584,3.2064,3.1974,3.188,3.1866,3.1743,3.162,3.1567,3.1403,3.1343,3.1457,3.1519,3.1949,3.2788,3.2592,3.2872,3.3904,3.4235,3.5168,3.6853,3.7223,3.7635,3.8198,3.6824,3.6689,3.845,3.9671,4.0259,4.0041,4.0525,4.1151,4.1956,4.2355,4.2783,4.3337,4.3416,4.3435,4.3512,4.3461,4.3431,4.3519,4.3324,4.3157,4.3126,4.3004,4.2789,4.2555,4.2206,4.1769,4.1422,4.1069,4.1137,4.1638,4.2254,4.2555,4.2555,4.2665,4.2929,4.3344,4.3861,4.461,4.5255,4.587,4.6649,4.7549,4.826,4.8921,4.974,5.027,5.0902,5.1323,5.1772,5.2144,4.897,4.8856,4.8927,4.8906,4.879,4.8791,4.8442,4.7886,4.7868,4.664,4.4724,4.4387,4.4169,4.3991,4.3981,4.3521,4.2767,4.264,4.2257,4.166,4.1616,4.1601,4.1551,4.1408,4.127,4.1194,4.1024,4.0932,4.0828,4.0161,3.9705,3.944,3.8769,3.7967,3.7125,3.7039,3.6673,3.6011,3.5633,3.5005,3.4052,3.3904,3.3526,3.2864,3.2742,3.268,3.2617,3.2469,3.2344,3.2275,3.209,3.2248,3.2768,3.2698,3.3168,3.4269,3.47,3.5063,3.5616,3.6337,3.7241,3.8325,3.8667,3.924,4.0164,3.9585,3.9233,3.9752,4.0324,4.0864,4.1353,4.1622,4.2171,4.3416,4.3729,4.3966,4.4401,4.4449,4.4352,4.4133,4.4001,4.3975,4.3989,4.3873,4.3758,4.3652,4.3444,4.3219,4.3114,4.2928,4.2585,4.2142,4.1638,4.1621,4.2222,4.2881,4.3204,4.3146,4.3385,4.3726,4.416,4.4849,4.5652,4.63,4.6884,4.7716,4.8727,4.9175,4.9681,5.0474,5.0955,5.1318,5.1797,5.2263,5.2606,5.0266,4.9679,4.9767,4.9367,4.881,4.8822,4.879,4.8708,4.8764,4.8221,4.7128,4.6406,4.5601,4.4954,4.4894,4.4402,4.3616,4.3596,4.3494,4.339,4.3459,4.3408,4.3218,4.2539,4.2172,4.2076,4.1398,4.1064,4.104,4.084,4.0336,3.9587,3.9417,3.8916,3.8086,3.7973,3.7893,3.7731,3.6956,3.6044,3.5058,3.4959,3.4854,3.4666,3.4569,3.4521,3.4351,3.4259,3.4098,3.398,3.3883,3.3814,3.3778,3.371,3.4005,3.4758,3.5845,3.6546,3.6739,3.7962,3.8752,3.892,4.0066,4.0737,4.0826,4.109,4.1177,4.1088,4.1094,4.1498,4.1893,4.2546,4.3304,4.4182,4.4684,4.5068,4.5065,4.4896,4.4745,4.4742,4.453,4.4432,4.4418,4.4319,4.4179,4.408,4.3875,4.3711,4.3684,4.355,4.3428,4.3233,4.2648,4.2413,4.2945,4.3582,4.3968,4.3892,4.4373,4.4898,4.541,4.6087,4.6908,4.7609,4.8375,4.8959,4.9785,5.0428,5.0662,5.1021,5.1439,5.1802,5.2305,5.2686,5.2901,5.145,5.1141,5.0738,5.0419,5.0205,5.0242,5.0009,4.9591,4.9588,4.9151,4.8396,4.7988,4.707,4.578,4.5759,4.5289,4.4487,4.4464,4.417,4.3739,4.3697,4.3672,4.3605,4.3308,4.3122,4.3066,4.2244,4.1797,4.1701,4.1219,4.0733,4.0382,4.0289,3.9815,3.9,3.8885,3.861,3.8066,3.7728,3.7278,3.6707,3.5731,3.5183,3.5076,3.503,3.4917,3.4835,3.4708,3.4792,3.5099,3.5037,3.5163,3.5537,3.5156,3.5388,3.6376,3.7276,3.7973,3.8426,3.8996,3.967,4.0483,4.1065,4.1523,4.1822,4.1975,4.2122,4.2498,4.2822,4.3085,4.3184,4.38,4.4597,4.5269,4.5586,4.5645,4.5559,4.5389,4.5217,4.5032,4.4923,4.4852,4.4838,4.4786,4.4662,4.4525,4.4336,4.4191,4.4107,4.3977,4.3906,4.3944,4.4115,4.4093,4.3857,4.481,4.5215,4.5085,4.5486,4.6163,4.6498,4.7286,4.8088,4.867,4.9273,4.9896,5.0554,5.0893,5.1131,5.1516,5.1932,5.2298,5.2719,5.2919,5.3028,5.2465,5.2376,5.1657,5.1263,5.1171,5.1243,5.0963,5.0464,5.0447,4.9981,4.9253,4.9255,4.8437,4.7129,4.6777,4.619,4.5428,4.5349,4.5016,4.445,4.441,4.4408,4.4385,4.4149,4.4047,4.3918,4.3185,4.2604,4.227,4.1453,4.0998,4.093,4.0864,4.0505,3.9926,3.9798,3.9458,3.8874,3.8593,3.8371,3.8097,3.6819,3.6009,3.5953,3.5851,3.5782,3.568,3.5604,3.5752,3.6178,3.6113,3.6277,3.6714,3.6258,3.6598,3.788,3.8615,3.919,3.9709,4.0047,4.071,4.1687,4.1932,4.2237,4.2592,4.258,4.2848,4.3581,4.4643,4.5151,4.4569,4.4947,4.56,4.6299,4.6272,4.6124,4.6025,4.5875,4.5645,4.5359,4.5349,4.5296,4.5261,4.518,4.5046,4.4896,4.4783,4.4777,4.4773,4.4761,4.474,4.4925,4.5672,4.5532,4.472,4.5872,4.6554,4.6452,4.6683,4.7318,4.7529,4.8415,4.9164,4.9695,5.0258,5.0673,5.1096,5.1318,5.1536,5.1975,5.2364,5.2656,5.2901,5.3009,5.3092,5.3254,5.3143,5.2453,5.1767,5.1127,5.1207,5.1241,5.1154,5.1274,5.0814,5.0122,5.0113,4.9628,4.8711,4.7949,4.707,4.6308,4.623,4.6172,4.6035,4.6073,4.615,4.613,4.5347,4.4934,4.4874,4.4049,4.3235,4.2445,4.1588,4.1049,4.1035,4.1012,4.0895,4.0739,4.0609,4.0597,4.0346,3.9646,3.9236,3.9148,3.8326,3.7828,3.7774,3.7626,3.7442,3.7488,3.7419,3.7297,3.7225,3.7233,3.7182,3.706,3.6864,3.751,3.8932,3.9725,4.0096,4.0262,4.1299,4.2125,4.2269,4.2748,4.3096,4.3031,4.2937,4.3215,4.4012,4.6206,4.7063,4.5963,4.5838,4.6148,4.6809,4.6719,4.659,4.6566,4.632,4.61,4.5912,4.5849,4.5811,4.5688,4.5494,4.5397,4.5312,4.5228,4.5418,4.5911,4.6009,4.6251,4.6647,4.6669,4.6232,4.5905,4.706,4.7723,4.7612,4.7857,4.8547,4.9007,4.9496,5.0101,5.0603,5.0911,5.1241,5.1559,5.1827,5.206,5.2387,5.2667,5.2944,5.302,5.3114,5.3156,5.3754,5.3297,5.3106,5.2558,5.1828,5.1922,5.1688,5.1243,5.1314,5.1182,5.0971,5.0948,5.0485,4.9628,4.9394,4.8496,4.7207,4.7129,4.6836,4.6367,4.6289,4.6289,4.6269,4.5956,4.5838,4.57,4.4957,4.4072,4.3315,4.2895,4.2466,4.1946,4.1839,4.1507,4.1001,4.0856,4.0779,4.0681,4.0327,4.0184,4.0114,3.9826,3.9638,3.9511,3.8415,3.7814,3.7747,3.7686,3.7818,3.8234,3.8274,3.8415,3.8732,3.9108,3.9788,4.0821,4.1136,4.14,4.1771,4.2253,4.2766,4.3192,4.3347,4.3436,4.3349,4.3224,4.3478,4.4687,4.6719,4.7738,4.7441,4.7049,4.7003,4.7222,4.7116,4.6998,4.6945,4.6801,4.6613,4.6423,4.6362,4.6308,4.6235,4.6062,4.6054,4.6395,4.6408,4.6649,4.7072,4.72,4.7296,4.7585,4.7889,4.8086,4.8069,4.8638,4.9151,4.8953,4.9086,4.9604,5.0084,5.0379,5.0889,5.1026,5.1365,5.1699,5.1993,5.2269,5.2496,5.2679,5.2977,5.3031,5.3095,5.3146,5.3185,5.4426,5.3755,5.3804,5.3387,5.2678,5.2757,5.2338,5.1635,5.1661,5.1601,5.1423,5.1385,5.1066,5.0584,5.0566,4.9824,4.8476,4.8164,4.7558,4.6758,4.6719,4.6582,4.6328,4.6289,4.6289,4.6151,4.5428,4.4684,4.4152,4.3833,4.3392,4.2844,4.2767,4.244,4.1862,4.174,4.1679,4.1587,4.1283,4.1103,4.1016,4.0741,4.0731,4.0762,3.9781,3.8996,3.8705,3.8589,3.8776,3.9199,3.9252,3.9421,3.9811,4.0769,4.1814,4.2743,4.2557,4.2501,4.2891,4.3081,4.3398,4.3823,4.3783,4.3682,4.3625,4.3418,4.3843,4.505,4.6908,4.8267,4.8149,4.7891,4.7723,4.7671,4.7511,4.7403,4.7399,4.7261,4.7082,4.6864,4.6812,4.6801,4.6836,4.6861,4.7022,4.7365,4.7492,4.7879,4.8328,4.8429,4.8483,4.8708,4.9264,4.9606,4.968,5.0041,5.0154,4.9962,4.9942,5.0502,5.0861,5.1188,5.1421,5.1536,5.1761,5.2096,5.2391,5.2654,5.2839,5.2977,5.306,5.3114,5.3146,5.3185,5.3196,5.521,5.4563,5.4598,5.4176,5.3547,5.3575,5.3146,5.2496,5.2543,5.2177,5.155,5.1463,5.1449,5.1324,5.1248,5.0878,5.0078,4.9355,4.8496,4.7656,4.7539,4.7109,4.6445,4.6348,4.6289,4.625,4.5448,4.5057,4.4978,4.4331,4.3895,4.3746,4.3697,4.3555,4.3512,4.3286,4.3352,4.3109,4.2421,4.2019,4.1903,4.1258,4.1219,4.1821,4.1705,4.1257,4.0544,4.0437,4.0404,4.0364,4.0329,4.0142,4.0358,4.1546,4.3101,4.4277,4.397,4.3465,4.3345,4.3827,4.4084,4.4091,4.3989,4.3958,4.4021,4.374,4.4035,4.5366,4.7049,4.8297,4.8288,4.8218,4.8118,4.802,4.7832,4.7752,4.7739,4.7621,4.7439,4.7302,4.7249,4.7249,4.744,4.7742,4.8022,4.8192,4.8579,4.9164,4.9622,4.9719,5.0026,5.0452,5.0615,5.0651,5.0938,5.1166,5.1008,5.0893,5.0955,5.121,5.1344,5.1617,5.1865,5.2,5.2215,5.2524,5.2627,5.2861,5.2944,5.3071,5.3124,5.3175,5.3185,5.3196,5.3196,5.556,5.535,5.5401,5.4979,5.4315,5.4326,5.3936,5.3269,5.3377,5.2953,5.2299,5.2254,5.1985,5.1488,5.1401,5.1268,5.0995,5.0683,4.9863,4.8613,4.791,4.75,4.7148,4.6582,4.6289,4.625,4.6035,4.5879,4.582,4.5565,4.523,4.4719,4.459,4.4242,4.3773,4.3593,4.3543,4.3449,4.3204,4.3,4.2899,4.2605,4.2583,4.2756,4.273,4.2548,4.2302,4.2236,4.2194,4.2099,4.2089,4.1997,4.2089,4.287,4.3956,4.4944,4.4794,4.4461,4.4276,4.4397,4.4498,4.4378,4.4296,4.452,4.4825,4.4318,4.4527,4.5798,4.7462,4.8504,4.8504,4.8457,4.8333,4.8149,4.8022,4.7951,4.7923,4.7839,4.7723,4.7607,4.7639,4.8094,4.8815,4.905,4.8959,4.9591,4.9972,5.0387,5.0878,5.0969,5.1094,5.1401,5.1444,5.1465,5.1599,5.1724,5.1681,5.1594,5.1656,5.1694,5.1841,5.2005,5.2263,5.2462,5.2679,5.2813,5.2923,5.2999,5.3082,5.3114,5.3164,5.3185,5.3185,5.3196,5.3196,5.5689,5.5695,5.5771,5.5518,5.5075,5.5148,5.4742,5.4112,5.417,5.3796,5.3174,5.3116,5.2684,5.2019,5.1881,5.1674,5.1424,5.1386,5.082,4.9805,4.8965,4.8437,4.8027,4.7187,4.6562,4.6328,4.6289,4.6289,4.6289,4.6269,4.6015,4.5564,4.548,4.5254,4.4694,4.4608,4.4546,4.4473,4.4165,4.3952,4.3812,4.3524,4.3476,4.3652,4.3662,4.379,4.4006,4.4035,4.3682,4.3244,4.3254,4.3248,4.2977,4.3818,4.4735,4.5137,4.5189,4.5026,4.4883,4.4802,4.4757,4.4684,4.4835,4.5141,4.5487,4.5107,4.5523,4.6305,4.783,4.8794,4.8723,4.8661,4.8541,4.8372,4.8209,4.8111,4.8062,4.804,4.7949,4.7912,4.8151,4.9011,4.9793,5.0217,5.0027,5.0833,5.1237,5.1442,5.1862,5.1933,5.1957,5.1957,5.1951,5.2024,5.2138,5.2233,5.2327,5.2292,5.2251,5.2239,5.2262,5.2409,5.2611,5.2735,5.2912,5.2995,5.3092,5.3114,5.3175,5.3185,5.3196,5.3196,5.3196,5.3196,5.3196,5.5689,5.5714,5.5766,5.5772,5.5735,5.5859,5.5458,5.4885,5.4975,5.461,5.399,5.3933,5.352,5.2883,5.2623,5.219,5.1598,5.1385,5.1347,5.1035,5.043,4.9707,4.873,4.8008,4.7285,4.6582,4.6465,4.6387,4.6308,4.6289,4.6289,4.619,4.617,4.6263,4.6034,4.6175,4.5993,4.5815,4.5249,4.4869,4.4834,4.4106,4.3974,4.4634,4.4634,4.485,4.5337,4.5387,4.4808,4.3617,4.4047,4.4022,4.3583,4.4585,4.5343,4.5405,4.5355,4.524,4.5136,4.5209,4.5163,4.5148,4.5659,4.6046,4.6257,4.6448,4.6609,4.7001,4.8337,4.9146,4.8986,4.8865,4.8768,4.8615,4.8411,4.8295,4.8226,4.8262,4.8276,4.8243,4.8733,4.9752,5.0857,5.1297,5.1366,5.1649,5.2073,5.2313,5.2365,5.2361,5.2396,5.2384,5.2368,5.2409,5.2455,5.2547,5.2627,5.2638,5.2638,5.2638,5.2627,5.2746,5.2864,5.2966,5.3042,5.3153,5.3196,5.3196,5.3196,5.3196,5.3196,5.3196,5.3196,5.3196,5.3196,5.5689,5.5689,5.5724,5.5756,5.5797,5.5861,5.5783,5.5664,5.5761,5.5335,5.4801,5.4748,5.4351,5.3593,5.2977,5.2569,5.2287,5.1713,5.1385,5.1366,5.1211,5.0215,4.9141,4.8691,4.8105,4.7363,4.7226,4.6914,4.6348,4.6445,4.6406,4.6289,4.6444,4.6365,4.6302,4.6386,4.6251,4.619,4.6013,4.5813,4.573,4.5485,4.542,4.5571,4.5538,4.5585,4.5752,4.5719,4.5568,4.5126,4.5137,4.5184,4.4858,4.5235,4.5514,4.5523,4.5458,4.5375,4.5462,4.5832,4.6058,4.609,4.6693,4.734,4.7966,4.7406,4.7698,4.8404,4.9317,4.9487,4.9343,4.9181,4.9013,4.8759,4.8643,4.853,4.8557,4.8838,4.8936,4.8504,4.9538,5.088,5.1914,5.209,5.1969,5.232,5.2561,5.2732,5.2698,5.2687,5.2676,5.2687,5.2665,5.2705,5.2768,5.2839,5.2893,5.2915,5.2944,5.2974,5.2963,5.2995,5.3078,5.3153,5.3124,5.3185,5.3196,5.3196,5.3196,5.3196,5.3196,5.3196,5.3196,5.3196,5.3196,5.5689,5.5689,5.5689,5.5724,5.5761,5.5787,5.5842,5.5908,5.6016,5.5866,5.5536,5.5574,5.5154,5.4386,5.3933,5.3521,5.3171,5.2331,5.1968,5.1873,5.1562,5.0664,4.9707,4.9433,4.8984,4.8223,4.8144,4.7871,4.75,4.7402,4.7402,4.7461,4.7402,4.7382,4.7478,4.7395,4.7343,4.7327,4.7284,4.7119,4.6723,4.6649,4.6341,4.617,4.6003,4.5962,4.5909,4.6137,4.6132,4.5795,4.5657,4.5616,4.559,4.5568,4.5564,4.5609,4.5826,4.6014,4.6138,4.6701,4.7075,4.7204,4.7756,4.8328,4.8731,4.8517,4.8976,4.948,4.9788,4.9792,4.9656,4.941,4.9187,4.9074,4.9136,4.9205,4.9122,4.9425,4.9578,4.9713,5.052,5.1761,5.3059,5.2655,5.2657,5.2842,5.2911,5.2966,5.2966,5.2955,5.2944,5.2923,5.2934,5.2934,5.2963,5.3017,5.302,5.3071,5.3082,5.3153,5.3153,5.3143,5.3164,5.3185,5.3185,5.3196,5.3196,5.3196,5.3196,5.3196,5.3196,5.3196,5.3196,5.3196,5.3196,5.5689,5.5689,5.5689,5.5689,5.5719,5.5761,5.5792,5.5822,5.5908,5.5997,5.6032,5.6192,5.5801,5.5222,5.4931,5.469,5.408,5.3216,5.2783,5.2399,5.1816,5.0957,5.041,5.0312,4.9824,4.916,4.9043,4.8867,4.8633,4.8691,4.8808,4.8633,4.8711,4.8808,4.8593,4.8709,4.8821,4.8633,4.8506,4.8196,4.7735,4.7593,4.7311,4.6811,4.6674,4.66,4.664,4.6868,4.6923,4.6078,4.5991,4.5954,4.58,4.5671,4.5941,4.6105,4.6627,4.692,4.7045,4.7654,4.8133,4.8222,4.8793,4.9196,4.9328,4.9591,4.9873,4.9921,5.0038,5.0024,4.9916,4.9615,4.9601,4.9672,5.0092,5.0316,5.0277,5.0185,5.0349,5.0809,5.1623,5.2486,5.2967,5.3227,5.3201,5.3128,5.3198,5.3138,5.3117,5.3114,5.3103,5.3103,5.3143,5.3164,5.3164,5.3175,5.3164,5.3164,5.3164,5.3175,5.3175,5.3175,5.3185,5.3196,5.3196,5.3196,5.3196,5.3196,5.3196,5.3196,5.3196,5.3196,5.3196,5.3196,5.3196,5.5689,5.5689,5.5689,5.5689,5.5689,5.5719,5.5731,5.5797,5.5827,5.5918,5.602,5.6094,5.6091,5.5976,5.5424,5.5022,5.4861,5.4077,5.3401,5.2595,5.1796,5.1367,5.1113,5.1074,5.0664,5.0078,4.9922,4.959,4.9141,4.9101,4.8926,4.8984,4.9141,4.8926,4.9004,4.912,4.8904,4.8881,4.8874,4.8844,4.8632,4.8513,4.8374,4.8059,4.8033,4.8076,4.8086,4.8169,4.8096,4.7919,4.7762,4.7207,4.6307,4.6885,4.7453,4.7591,4.7654,4.7813,4.7962,4.8515,4.9003,4.9099,4.9658,5.021,5.0175,5.0165,5.0261,5.0206,5.0237,5.0201,5.0144,5.0371,5.0485,5.064,5.1171,5.1749,5.2102,5.2001,5.1601,5.1542,5.2306,5.3248,5.3402,5.342,5.3429,5.3418,5.3367,5.3305,5.3264,5.3251,5.323,5.3238,5.3209,5.3209,5.3196,5.3196,5.3196,5.3196,5.3196,5.3196,5.3196,5.3196,5.3196,5.3196,5.3196,5.3196,5.3196,5.3196,5.3196,5.3196,5.3196,5.3196,5.3196,5.3196,5.3196,5.5689,5.5689,5.5689,5.5689,5.5689,5.5689,5.5705,5.5756,5.5782,5.5837,5.5918,5.6003,5.6098,5.6181,5.5837,5.5701,5.556,5.4942,5.3907,5.2887,5.2167,5.1816,5.1406,5.1387,5.1133,5.0762,5.0762,5.0449,5.0176,5.0019,5.0156,5.0058,5.0039,5.0176,5.0058,5.0039,5.0136,5.0135,5.0015,4.9854,4.9493,4.9403,4.9112,4.8881,4.8769,4.8744,4.8692,4.9034,4.9138,4.9222,4.9371,4.8763,4.7306,4.7724,4.8468,4.9177,4.8856,4.874,4.8899,4.9447,4.9971,4.9927,5.0383,5.0472,5.0553,5.05,5.0443,5.0404,5.0415,5.044,5.0716,5.084,5.1187,5.171,5.2284,5.2826,5.3042,5.2883,5.2689,5.2521,5.3169,5.3579,5.3728,5.3708,5.3591,5.3562,5.3532,5.3472,5.3418,5.3378,5.3334,5.3303,5.3264,5.3233,5.3206,5.3196,5.3196,5.3196,5.3196,5.3196,5.3196,5.3196,5.3196,5.3196,5.3196,5.3196,5.3196,5.3196,5.3196,5.3196,5.3196,5.3196,5.3196,5.3196,5.3196,5.5689,5.5689,5.5689,5.5689,5.5689,5.5689,5.5689,5.5695,5.5756,5.5806,5.5812,5.5913,5.6008,5.609,5.6172,5.6299,5.6139,5.5556,5.4412,5.3468,5.277,5.2284,5.1797,5.1523,5.1367,5.1387,5.1308,5.125,5.125,5.1367,5.1074,5.1289,5.1328,5.1113,5.1289,5.1367,5.1191,5.1112,5.1092,5.0915,5.0423,5.0281,4.9941,4.9575,4.9444,4.9448,4.9547,4.9835,5.0116,5.014,5.0745,5.0193,4.9227,4.8748,4.9116,5.0591,4.9923,4.9644,4.9682,5.0192,5.0606,5.0688,5.0688,5.0687,5.0653,5.0658,5.0618,5.0736,5.0847,5.1322,5.1738,5.1999,5.2221,5.2714,5.3399,5.3707,5.3645,5.3443,5.3556,5.3628,5.3767,5.399,5.4054,5.4055,5.3879,5.3728,5.3699,5.3651,5.36,5.3511,5.3461,5.3418,5.3369,5.3367,5.3324,5.3282,5.3272,5.3293,5.328,5.328,5.328,5.3282,5.3293,5.3206,5.3196,5.3196,5.3196,5.3196,5.3196,5.3196,5.3196,5.3196,5.3196,5.3196,5.3196,5.5689,5.5689,5.5689,5.5689,5.5689,5.5689,5.5689,5.5689,5.5719,5.577,5.5797,5.5827,5.5913,5.602,5.6095,5.623,5.6175,5.5691,5.5141,5.4432,5.3584,5.2712,5.2459,5.1973,5.1601,5.1387,5.1445,5.1504,5.1406,5.1387,5.1387,5.1387,5.1387,5.1387,5.1387,5.1387,5.1387,5.1387,5.1387,5.123,5.1111,5.1032,5.099,5.069,5.0644,5.0714,5.0798,5.0948,5.1071,5.107,5.114,5.0981,5.0581,5.0351,5.0487,5.0615,5.0565,5.0331,5.0408,5.0539,5.0693,5.0688,5.0765,5.0765,5.0755,5.0721,5.0788,5.1259,5.2003,5.2778,5.2765,5.3118,5.363,5.4059,5.439,5.4798,5.4719,5.459,5.4346,5.421,5.4275,5.4363,5.4414,5.4397,5.4214,5.408,5.4017,5.3935,5.3842,5.3728,5.3612,5.3562,5.3502,5.3491,5.3469,5.3418,5.3398,5.3459,5.3459,5.3449,5.3449,5.3459,5.3437,5.3324,5.3238,5.3217,5.3206,5.3196,5.3196,5.3196,5.3196,5.3196,5.3196,5.3196,5.3196,5.5324,5.5689,5.5689,5.5689,5.5689,5.5689,5.5689,5.5689,5.5689,5.57,5.5731,5.5782,5.5861,5.596,5.6014,5.6151,5.6181,5.6085,5.566,5.5138,5.4432,5.3742,5.3434,5.287,5.2793,5.2617,5.2344,5.1797,5.1445,5.1387,5.1426,5.1387,5.1387,5.1387,5.1387,5.1387,5.1445,5.1445,5.1426,5.1406,5.1387,5.1387,5.1385,5.1383,5.1401,5.1397,5.1388,5.1371,5.135,5.1325,5.129,5.1258,5.1197,5.1168,5.1051,5.0959,5.0842,5.0766,5.073,5.0692,5.0697,5.077,5.1053,5.1298,5.1183,5.1048,5.1149,5.2145,5.3414,5.4267,5.3815,5.4141,5.4444,5.4843,5.5166,5.5275,5.5268,5.5229,5.4943,5.4626,5.4645,5.4726,5.4814,5.4745,5.4571,5.4455,5.4352,5.4241,5.4089,5.399,5.387,5.3747,5.3708,5.3678,5.3688,5.3708,5.3649,5.3669,5.3697,5.3669,5.362,5.3611,5.3531,5.3418,5.3326,5.3303,5.3206,5.3196,5.3196,5.3196,5.3196,5.3196,5.3196,5.3196,5.3196,5.4958,5.5689,5.5689,5.5689,5.5689,5.5689,5.5689,5.5689,5.5689,5.5689,5.5695,5.5756,5.5816,5.589,5.599,5.6136,5.6295,5.6339,5.603,5.5642,5.5255,5.4823,5.4425,5.406,5.3827,5.3574,5.3281,5.2519,5.1914,5.1777,5.1699,5.1855,5.1797,5.1914,5.2051,5.2207,5.1933,5.1875,5.1699,5.1621,5.1445,5.1387,5.1387,5.1386,5.1386,5.1384,5.1399,5.1391,5.1555,5.1658,5.1655,5.1519,5.1349,5.1563,5.165,5.1472,5.1181,5.0964,5.1063,5.1047,5.1221,5.1506,5.1876,5.2097,5.2082,5.1914,5.1991,5.3549,5.4684,5.5327,5.474,5.4672,5.4957,5.5288,5.547,5.5498,5.5431,5.5376,5.5333,5.513,5.5066,5.5057,5.5106,5.5028,5.4848,5.4726,5.4648,5.4554,5.4428,5.4317,5.4186,5.4008,5.3917,5.3889,5.3926,5.4082,5.4018,5.3981,5.3981,5.3963,5.387,5.3767,5.368,5.3611,5.3521,5.3479,5.3345,5.3198,5.3209,5.3227,5.3206,5.3196,5.3196,5.3196,5.3196,5.4958,5.5689,5.5689,5.5689,5.5689,5.5689,5.5689,5.5689,5.5689,5.5689,5.5689,5.57,5.5756,5.5837,5.5995,5.6164,5.6282,5.6333,5.6312,5.6063,5.564,5.5351,5.5053,5.431,5.4352,5.4296,5.4023,5.3359,5.2812,5.2637,5.2558,5.2656,5.3125,5.3613,5.332,5.3281,5.3691,5.3516,5.291,5.2226,5.168,5.1562,5.1562,5.1543,5.1562,5.164,5.1717,5.1773,5.1925,5.2501,5.2529,5.2138,5.1775,5.2873,5.3439,5.3039,5.2213,5.13,5.1872,5.1979,5.2168,5.255,5.3008,5.308,5.3122,5.3178,5.3568,5.5184,5.5645,5.5626,5.5437,5.5481,5.5591,5.5588,5.5626,5.559,5.5562,5.5514,5.5455,5.5456,5.5326,5.5326,5.5352,5.5235,5.5114,5.5016,5.4908,5.483,5.4741,5.4608,5.4509,5.4342,5.4223,5.418,5.4275,5.4405,5.4388,5.4329,5.4294,5.4268,5.4152,5.4053,5.3971,5.3898,5.3794,5.363,5.3469,5.3347,5.3293,5.3241,5.3209,5.3206,5.3196,5.3196,5.3196,5.453,5.5689,5.5689,5.5689,5.5689,5.5689,5.5689,5.5689,5.5689,5.5689,5.5689,5.5689,5.574,5.5822,5.5973,5.6102,5.6193,5.6294,5.6344,5.6351,5.6022,5.5906,5.5913,5.564,5.5437,5.5231,5.4999,5.4648,5.4101,5.3672,5.3437,5.3496,5.3808,5.3906,5.418,5.4023,5.3965,5.3848,5.3594,5.3262,5.2969,5.2851,5.2832,5.2851,5.2812,5.2793,5.2793,5.2889,5.3005,5.3431,5.3426,5.3296,5.3063,5.3632,5.4243,5.5223,5.3638,5.2857,5.2956,5.2941,5.3164,5.3387,5.3769,5.4168,5.4454,5.4607,5.4741,5.5574,5.5689,5.5689,5.5689,5.5689,5.5689,5.5698,5.5676,5.5671,5.564,5.5635,5.5607,5.5607,5.5596,5.5552,5.5507,5.5408,5.5307,5.5236,5.5123,5.5045,5.4956,5.4845,5.4776,5.4698,5.4587,5.4516,5.4632,5.4765,5.4742,5.4695,5.4667,5.4611,5.4486,5.4366,5.4281,5.4187,5.4063,5.3861,5.3639,5.3469,5.3357,5.3274,5.322,5.3227,5.3206,5.3196,5.3196,5.4376,5.567,5.5689,5.5689,5.5689,5.5689,5.5689,5.5689,5.5689,5.5689,5.5689,5.5708,5.574,5.5821,5.5904,5.5995,5.6109,5.6209,5.6278,5.6308,5.6349,5.6346,5.6329,5.6376,5.6421,5.6575,5.5895,5.5584,5.541,5.5039,5.4629,5.4355,5.4746,5.4765,5.4707,5.4785,5.4805,5.4414,5.4375,5.416,5.3906,5.3867,5.3887,5.3926,5.3984,5.3984,5.3984,5.3925,5.3925,5.4315,5.4332,5.4365,5.4612,5.4837,5.529,5.5889,5.498,5.4483,5.4319,5.4158,5.3983,5.4166,5.4405,5.5055,5.5411,5.5689,5.5689,5.5689,5.5689,5.5689,5.5689,5.5689,5.5689,5.5689,5.5703,5.5689,5.5684,5.5668,5.5662,5.5657,5.5651,5.5662,5.5602,5.5539,5.5474,5.5426,5.5352,5.5243,5.5162,5.5064,5.5028,5.4959,5.489,5.483,5.4944,5.5052,5.5045,5.5035,5.4992,5.4912,5.4773,5.4668,5.4597,5.4476,5.4335,5.4189,5.4,5.3679,5.34,5.3318,5.3254,5.322,5.3217,5.3206,5.3196,5.492,5.5689,5.5689,5.5689,5.5689,5.5689,5.5689,5.5689,5.5689,5.5689,5.5689,5.5708,5.574,5.5806,5.5822,5.5899,5.6012,5.6086,5.6159,5.6249,5.6308,5.6344,5.6396,5.646,5.6515,5.6536,5.6297,5.6343,5.6444,5.6152,5.5723,5.539,5.5703,5.6172,5.6211,5.5957,5.5703,5.5332,5.5215,5.4844,5.4453,5.4258,5.4238,5.4199,5.4101,5.4004,5.4023,5.4238,5.4551,5.5195,5.5214,5.5447,5.5817,5.5927,5.6265,5.6251,5.6224,5.5808,5.5672,5.5228,5.521,5.5545,5.571,5.562,5.5703,5.57,5.5689,5.5714,5.5714,5.5689,5.5689,5.5689,5.5689,5.5689,5.5689,5.5689,5.5689,5.5689,5.5678,5.5684,5.5689,5.5689,5.5689,5.5618,5.556,5.5527,5.5486,5.5382,5.5358,5.5268,5.5262,5.5216,5.5142,5.5135,5.5242,5.5288,5.5295,5.5255,5.5189,5.5127,5.5002,5.4944,5.4874,5.4742,5.4592,5.448,5.433,5.4027,5.3718,5.3422,5.3269,5.3285,5.3259,5.3217,5.3196,5.4958,5.5689,5.5689,5.5689,5.5689,5.5689,5.5689,5.5689,5.5689,5.5689,5.5689,5.5689,5.5719,5.5745,5.5782,5.5817,5.5895,5.5995,5.6062,5.6133,5.6197,5.6277,5.6344,5.6401,5.647,5.6492,5.6538,5.6573,5.658,5.66,5.6484,5.6308,5.6445,5.6523,5.6601,5.6621,5.6367,5.623,5.6074,5.584,5.5762,5.5605,5.5605,5.5586,5.5605,5.5586,5.5625,5.5625,5.584,5.5976,5.6035,5.6289,5.6504,5.6539,5.6573,5.6586,5.6547,5.6504,5.645,5.6011,5.5916,5.5897,5.5973,5.5923,5.5803,5.5757,5.5745,5.5735,5.5724,5.5689,5.5689,5.5689,5.5689,5.5689,5.5689,5.5689,5.5689,5.5689,5.5689,5.5689,5.5689,5.5689,5.5689,5.5678,5.5657,5.5629,5.5585,5.5539,5.5492,5.5456,5.5438,5.5426,5.5358,5.5339,5.542,5.5492,5.5551,5.5468,5.5383,5.5301,5.5216,5.5189,5.5109,5.4988,5.4845,5.4691,5.4513,5.4303,5.4027,5.366,5.3471,5.3369,5.3334,5.3238,5.3206,5.5184,5.5689,5.5689,5.5689,5.5689,5.5689,5.5689,5.5689,5.5689,5.5689,5.5689,5.5689,5.5689,5.57,5.5745,5.5782,5.5822,5.588,5.5935,5.6005,5.6106,5.6169,5.6246,5.6342,5.6394,5.6457,5.6494,5.6538,5.6572,5.6577,5.6541,5.6542,5.6621,5.6621,5.6621,5.6621,5.6621,5.6621,5.6621,5.6621,5.6562,5.6523,5.6504,5.6465,5.6426,5.6426,5.6387,5.6348,5.6406,5.6484,5.6543,5.6562,5.6601,5.6621,5.6621,5.6595,5.6569,5.6536,5.6468,5.637,5.6255,5.617,5.6102,5.6026,5.5935,5.5842,5.5847,5.5816,5.5756,5.5695,5.5705,5.5724,5.5708,5.5689,5.5689,5.5689,5.5689,5.5689,5.5689,5.5689,5.5689,5.5689,5.5689,5.5689,5.5678,5.5662,5.5646,5.5613,5.5596,5.5593,5.5587,5.5562,5.5545,5.5545,5.5562,5.559,5.5607,5.5556,5.5486,5.5449,5.5395,5.5364,5.5307,5.5169,5.5016,5.4863,5.468,5.4489,5.4189,5.386,5.363,5.339,5.3318,5.3233,5.3217,5.5651,5.5689,5.5689,5.5689,5.5689,5.5689,5.5689,5.5689,5.5689,5.5689,5.5689,5.5689,5.5689,5.5689,5.5719,5.5745,5.5796,5.5812,5.5856,5.5917,5.6003,5.6036,5.6144,5.624,5.6344,5.6407,5.647,5.6492,5.6513,5.6547,5.6594,5.6619,5.662,5.6621,5.6621,5.6621,5.6621,5.6621,5.6621,5.6621,5.6621,5.6621,5.6621,5.6621,5.6621,5.6621,5.6621,5.6621,5.6621,5.6621,5.6621,5.6621,5.6621,5.6621,5.6621,5.6618,5.6598,5.6574,5.6501,5.6385,5.6324,5.6266,5.6197,5.614,5.6035,5.5986,5.5941,5.59,5.5807,5.5747,5.5756,5.5765,5.573,5.5719,5.5719,5.5689,5.5689,5.5689,5.5689,5.5689,5.5689,5.5689,5.5689,5.5689,5.5689,5.5684,5.5684,5.5698,5.5682,5.5671,5.566,5.5654,5.5629,5.5629,5.5629,5.5657,5.5662,5.5638,5.5585,5.5568,5.552,5.5473,5.5414,5.5314,5.5189,5.5019,5.4848,5.4659,5.4293,5.3926,5.358,5.3349,5.3297,5.3235,5.3209,5.5689,5.5689,5.5689,5.5689,5.5689,5.5689,5.5689,5.5689,5.5689,5.5689,5.5689,5.5689,5.5689,5.5689,5.5689,5.5719,5.574,5.5787,5.5808,5.5827,5.5942,5.599,5.6059,5.6178,5.6272,5.6347,5.6405,5.6464,5.6496,5.6533,5.657,5.6597,5.662,5.6621,5.6621,5.6621,5.6621,5.6621,5.6621,5.6621,5.6621,5.6621,5.6621,5.6621,5.6621,5.6621,5.6621,5.6621,5.6621,5.6621,5.6621,5.6621,5.6621,5.6621,5.6621,5.6621,5.6621,5.6599,5.655,5.649,5.6423,5.6368,5.6297,5.6249,5.6192,5.6047,5.6003,5.5968,5.5908,5.5875,5.5866,5.5816,5.5771,5.5756,5.5745,5.5719,5.5689,5.5689,5.5689,5.5689,5.5689,5.5689,5.5689,5.5689,5.5689,5.5689,5.5689,5.5689,5.5692,5.5698,5.5692,5.5692,5.5673,5.5678,5.5689,5.5689,5.5689,5.5676,5.5671,5.5651,5.5624,5.5585,5.5522,5.5432,5.5301,5.5183,5.4937,5.4648,5.4327,5.3963,5.3631,5.343,5.339,5.3305,5.3206,5.5689,5.5689,5.5689,5.5689,5.5689,5.5689,5.5689,5.5689,5.5689,5.5689,5.5689,5.5689,5.5689,5.5689,5.5689,5.5689,5.5689,5.5721,5.5761,5.5776,5.5866,5.5928,5.599,5.6086,5.6165,5.6255,5.6344,5.6396,5.6462,5.649,5.6538,5.6595,5.662,5.6621,5.6621,5.6621,5.6621,5.6621,5.6621,5.6621,5.6621,5.6621,5.6621,5.6621,5.6621,5.6621,5.6621,5.6621,5.6621,5.6621,5.6621,5.6621,5.6621,5.6621,5.6621,5.6621,5.6621,5.6621,5.6595,5.657,5.6504,5.6449,5.6392,5.6344,5.6312,5.6188,5.6122,5.6086,5.607,5.6008,5.5956,5.588,5.5842,5.5827,5.5782,5.5756,5.573,5.5735,5.5689,5.5689,5.5689,5.5689,5.5689,5.5689,5.5689,5.5689,5.5689,5.5689,5.5689,5.5689,5.5689,5.5689,5.5689,5.5689,5.5689,5.5689,5.5689,5.5689,5.5689,5.5689,5.5678,5.5635,5.559,5.5545,5.5413,5.5249,5.4933,5.464,5.4327,5.4027,5.3727,5.3571,5.3529,5.3375,5.3206,5.5689,5.5689,5.5689,5.5689,5.5689,5.5689,5.5689,5.5689,5.5689,5.5689,5.5689,5.5689,5.5689,5.5689,5.5689,5.5689,5.5689,5.5695,5.5714,5.573,5.5792,5.5856,5.5919,5.6005,5.6106,5.619,5.6283,5.6361,5.6414,5.6476,5.6533,5.6591,5.6618,5.662,5.6621,5.6621,5.6621,5.6621,5.6621,5.6621,5.6621,5.6621,5.6621,5.6621,5.6621,5.6621,5.6621,5.6621,5.6621,5.6621,5.6621,5.6621,5.6621,5.6621,5.6621,5.6621,5.6621,5.6621,5.66,5.6598,5.6574,5.6515,5.6499,5.642,5.6351,5.6305,5.6253,5.6213,5.6185,5.611,5.6037,5.5986,5.5913,5.589,5.5837,5.5807,5.5782,5.5756,5.5705,5.5689,5.5689,5.5689,5.5689,5.5689,5.5689,5.5689,5.5689,5.5689,5.5689,5.5689,5.5689,5.5689,5.5689,5.5689,5.5689,5.5689,5.5689,5.5689,5.5689,5.5689,5.5703,5.5698,5.5629,5.5573,5.5516,5.5307,5.4966,5.4659,5.4382,5.4073,5.3784,5.36,5.3519,5.3345,5.3196,5.5689,5.5689,5.5689,5.5689,5.5689,5.5689,5.5689,5.5689,5.5689,5.5689,5.5689,5.5689,5.5689,5.5689,5.5689,5.5689,5.5689,5.5689,5.5689,5.573,5.5761,5.5836,5.59,5.5959,5.6066,5.6179,5.6269,5.6333,5.6416,5.6465,5.6532,5.6592,5.6617,5.662,5.6621,5.6621,5.6621,5.6621,5.6621,5.6621,5.6621,5.6621,5.6621,5.6621,5.6621,5.6621,5.6621,5.6621,5.6621,5.6621,5.6621,5.6621,5.6621,5.6621,5.6621,5.6621,5.6621,5.6621,5.6621,5.662,5.6598,5.6576,5.6563,5.6515,5.6468,5.6435,5.6388,5.6325,5.6312,5.6239,5.6167,5.6087,5.6031,5.5975,5.5932,5.5852,5.5842,5.5787,5.5737,5.5689,5.5689,5.5689,5.5689,5.5689,5.5689,5.5689,5.5689,5.5689,5.5689,5.5689,5.5689,5.5689,5.5689,5.5689,5.5689,5.5689,5.5689,5.5689,5.5689,5.5689,5.5689,5.5673,5.5651,5.5585,5.5467,5.5243,5.4956,5.4667,5.4414,5.4108,5.3832,5.3669,5.3499,5.3324,5.3196,5.5689,5.5689,5.5689,5.5689,5.5689,5.5689,5.5689,5.5689,5.5689,5.5689,5.5689,5.5689,5.5689,5.5689,5.5689,5.5689,5.5689,5.5689,5.5689,5.5719,5.5745,5.5821,5.5885,5.5951,5.6044,5.6161,5.6248,5.6309,5.639,5.6473,5.6545,5.6592,5.6616,5.6619,5.6621,5.6621,5.6621,5.6621,5.6621,5.6621,5.6621,5.6621,5.6621,5.6621,5.6621,5.6621,5.6621,5.6621,5.6621,5.6621,5.6621,5.6621,5.6621,5.6621,5.6621,5.6621,5.6621,5.6621,5.6621,5.6621,5.662,5.662,5.6618,5.657,5.6551,5.6538,5.6474,5.6429,5.6425,5.6394,5.629,5.62,5.614,5.6079,5.6005,5.5926,5.5871,5.5832,5.5776,5.5705,5.5689,5.5689,5.5689,5.5689,5.5689,5.5689,5.5689,5.5689,5.5689,5.5689,5.5689,5.5689,5.5689,5.5689,5.5689,5.5689,5.5689,5.5689,5.5689,5.5689,5.5689,5.5673,5.5646,5.5531,5.5407,5.5177,5.4978,5.4726,5.4451,5.4169,5.3889,5.366,5.3499,5.3334,5.3238,5.5689,5.5689,5.5689,5.5689,5.5689,5.5689,5.5689,5.5689,5.5689,5.5689,5.5689,5.5689,5.5689,5.5689,5.5689,5.5689,5.5689,5.5689,5.5689,5.5689,5.5714,5.5785,5.5875,5.5933,5.6033,5.6145,5.6241,5.63,5.6393,5.6462,5.6543,5.6611,5.6614,5.6618,5.6621,5.6621,5.6621,5.6621,5.6621,5.6621,5.6621,5.6621,5.6621,5.6621,5.6621,5.6621,5.6621,5.6621,5.6621,5.6621,5.6621,5.6621,5.6621,5.6621,5.6621,5.6621,5.6621,5.6621,5.6621,5.6621,5.6621,5.6621,5.662,5.6598,5.659,5.6589,5.6532,5.6493,5.6474,5.6444,5.6373,5.6306,5.6255,5.6193,5.6125,5.6043,5.5962,5.5875,5.5762,5.571,5.5689,5.5689,5.5689,5.5689,5.5689,5.5689,5.5689,5.5689,5.5689,5.5689,5.5689,5.5689,5.5689,5.5689,5.5689,5.5689,5.5689,5.5689,5.5689,5.5689,5.5689,5.5668,5.564,5.552,5.5401,5.523,5.5031,5.4795,5.4536,5.4222,5.3954,5.3679,5.3481,5.3345,5.3259,5.5689,5.5689,5.5689,5.5689,5.5689,5.5689,5.5689,5.5689,5.5689,5.5689,5.5689,5.5689,5.5689,5.5689,5.5689,5.5689,5.5689,5.5689,5.5689,5.5689,5.5689,5.5785,5.588,5.5924,5.602,5.6145,5.6245,5.6299,5.6433,5.6501,5.6542,5.6611,5.6615,5.662,5.6621,5.6621,5.6621,5.6621,5.6621,5.6621,5.6621,5.6621,5.6621,5.6621,5.6621,5.6621,5.6621,5.6621,5.6621,5.6621,5.6621,5.6621,5.6621,5.6621,5.6621,5.6621,5.6621,5.6621,5.6621,5.6621,5.6621,5.6621,5.6621,5.6621,5.6616,5.662,5.6584,5.6555,5.6523,5.6477,5.6445,5.6409,5.6368,5.6311,5.6239,5.6159,5.607,5.5917,5.5778,5.5726,5.5695,5.5689,5.5689,5.5689,5.5689,5.5689,5.5689,5.5689,5.5689,5.5689,5.5689,5.5689,5.5689,5.5689,5.5689,5.5689,5.5689,5.5689,5.5689,5.5689,5.5689,5.5673,5.5651,5.5545,5.5401,5.5275,5.5101,5.4901,5.4619,5.4301,5.4018,5.3756,5.3541,5.3378,5.3282,5.5689,5.5689,5.5689,5.5689,5.5689,5.5689,5.5689,5.5689,5.5689,5.5689,5.5689,5.5689,5.5689,5.5689,5.5689,5.5689,5.5689,5.5689,5.5689,5.5689,5.5719,5.5796,5.586,5.59,5.6038,5.6176,5.6278,5.6369,5.6467,5.6512,5.6545,5.661,5.6617,5.6621,5.6621,5.6621,5.6621,5.6621,5.6621,5.6621,5.6621,5.6621,5.6621,5.6621,5.6621,5.6621,5.6621,5.6621,5.6621,5.6621,5.6621,5.6621,5.6621,5.6621,5.6621,5.6621,5.6621,5.6621,5.6621,5.6621,5.6621,5.6621,5.6621,5.6621,5.6621,5.6614,5.6607,5.6581,5.6579,5.6544,5.6517,5.6487,5.6429,5.6364,5.6283,5.6213,5.6075,5.5931,5.5803,5.5705,5.5689,5.5689,5.5689,5.5689,5.5689,5.5689,5.5689,5.5689,5.5689,5.5689,5.5689,5.5689,5.5689,5.5689,5.5689,5.5689,5.5689,5.5689,5.5689,5.5689,5.5689,5.5703,5.5651,5.5562,5.5443,5.5352,5.5169,5.4982,5.4702,5.438,5.4099,5.3823,5.3611,5.341,5.3324,5.5689,5.5689,5.5689,5.5689,5.5689,5.5689,5.5689,5.5689,5.5689,5.5689,5.5689,5.5689,5.5689,5.5689,5.5689,5.5689,5.5689,5.5689,5.5689,5.5689,5.5689,5.5766,5.5836,5.5905,5.6042,5.6191,5.632,5.6393,5.6494,5.6515,5.655,5.6591,5.6617,5.6621,5.6621,5.6621,5.6621,5.6621,5.6621,5.6621,5.6621,5.6621,5.6621,5.6621,5.6621,5.6621,5.6621,5.6621,5.6621,5.6621,5.6621,5.6621,5.6621,5.6621,5.6621,5.6621,5.6621,5.6621,5.6621,5.6621,5.6621,5.6621,5.6621,5.6621,5.6621,5.6621,5.6621,5.6621,5.6621,5.6609,5.6572,5.6528,5.6478,5.6418,5.6341,5.6256,5.6106,5.5962,5.5847,5.5731,5.573,5.573,5.5689,5.5689,5.5689,5.5689,5.5689,5.5689,5.5689,5.5689,5.5689,5.5689,5.5689,5.5689,5.5689,5.5689,5.5689,5.5689,5.5689,5.5689,5.5689,5.5703,5.5662,5.5602,5.5504,5.5395,5.5242,5.5057,5.4776,5.4464,5.4206,5.3926,5.364,5.3451,5.3326,5.5689,5.5689,5.5689,5.5689,5.5689,5.5689,5.5689,5.5689,5.5689,5.5689,5.5689,5.5689,5.5689,5.5689,5.5689,5.5689,5.5689,5.5689,5.5689,5.5689,5.5689,5.5751,5.5826,5.5895,5.6031,5.6186,5.6338,5.6427,5.6473,5.6503,5.6555,5.6612,5.662,5.6621,5.6621,5.6621,5.6621,5.6621,5.6621,5.6621,5.6621,5.6621,5.6621,5.6621,5.6621,5.6621,5.6621,5.6621,5.6621,5.6621,5.6621,5.6621,5.6621,5.6621,5.6621,5.6621,5.6621,5.6621,5.6621,5.6621,5.6621,5.6621,5.6621,5.6621,5.6621,5.6621,5.6621,5.6621,5.6621,5.6621,5.6591,5.6536,5.6493,5.6439,5.6386,5.6297,5.6188,5.6066,5.5946,5.5861,5.5797,5.5761,5.5689,5.5689,5.5689,5.5689,5.5689,5.5689,5.5689,5.5689,5.5689,5.5689,5.5689,5.5689,5.5689,5.5689,5.5689,5.5689,5.5689,5.5689,5.5689,5.5689,5.5657,5.5624,5.5545,5.5438,5.5281,5.5127,5.4863,5.4576,5.4344,5.4054,5.3738,5.363,5.3635]}]]